Wetterdaten: Montag, 30.04.2018
Datum Zeit Temp. A. Feuchte A. Luftdruck Regen Wind Richtung Richtung Sonnenschein ET UV Solar Taupunkt Windchill Windböen
30.04.2018 00:00 10,6 °C 74 % 998,2 hPa 0,0 mm 0,0 km/h (0 Bft) S 189 ° 0 min 0,000 mm 0,0 UV-I 0 W/m² 6,2 °C 10,6 °C 0,0 km/h (0 Bft)
30.04.2018 00:01 10,6 °C 75 % 998,3 hPa 0,0 mm 0,0 km/h (0 Bft) S 189 ° 0 min 0,000 mm 0,0 UV-I 0 W/m² 6,4 °C 10,6 °C 0,0 km/h (0 Bft)
30.04.2018 00:02 10,5 °C 75 % 998,3 hPa 0,0 mm 0,0 km/h (0 Bft) S 189 ° 0 min 0,000 mm 0,0 UV-I 0 W/m² 6,3 °C 10,5 °C 0,0 km/h (0 Bft)
30.04.2018 00:03 10,5 °C 75 % 998,2 hPa 0,0 mm 0,0 km/h (0 Bft) S 189 ° 0 min 0,000 mm 0,0 UV-I 0 W/m² 6,3 °C 10,5 °C 0,0 km/h (0 Bft)
30.04.2018 00:04 10,5 °C 75 % 998,2 hPa 0,0 mm 0,3 km/h (0 Bft) S 189 ° 0 min 0,000 mm 0,0 UV-I 0 W/m² 6,3 °C 10,5 °C 1,6 km/h (1 Bft)
30.04.2018 00:05 10,6 °C 74 % 998,2 hPa 0,0 mm 0,5 km/h (0 Bft) S 189 ° 0 min 0,000 mm 0,0 UV-I 0 W/m² 6,2 °C 10,6 °C 1,6 km/h (1 Bft)
30.04.2018 00:06 10,6 °C 73 % 998,2 hPa 0,0 mm 3,0 km/h (1 Bft) S 189 ° 0 min 0,000 mm 0,0 UV-I 0 W/m² 6,0 °C 10,6 °C 3,2 km/h (1 Bft)
30.04.2018 00:07 10,8 °C 73 % 998,2 hPa 0,0 mm 3,7 km/h (1 Bft) S 189 ° 0 min 0,000 mm 0,0 UV-I 0 W/m² 6,2 °C 10,8 °C 4,8 km/h (1 Bft)
30.04.2018 00:08 10,9 °C 72 % 998,2 hPa 0,0 mm 3,7 km/h (1 Bft) S 189 ° 0 min 0,000 mm 0,0 UV-I 0 W/m² 6,1 °C 10,9 °C 4,8 km/h (1 Bft)
30.04.2018 00:09 11,1 °C 72 % 998,1 hPa 0,0 mm 3,4 km/h (1 Bft) S 189 ° 0 min 0,000 mm 0,0 UV-I 0 W/m² 6,2 °C 11,1 °C 4,8 km/h (1 Bft)
30.04.2018 00:10 11,1 °C 72 % 998,2 hPa 0,0 mm 1,8 km/h (1 Bft) S 189 ° 0 min 0,000 mm 0,0 UV-I 0 W/m² 6,2 °C 11,1 °C 3,2 km/h (1 Bft)
30.04.2018 00:11 11,0 °C 72 % 998,1 hPa 0,0 mm 1,2 km/h (1 Bft) S 189 ° 0 min 0,000 mm 0,0 UV-I 0 W/m² 6,2 °C 11,0 °C 3,2 km/h (1 Bft)
30.04.2018 00:12 10,9 °C 72 % 998,1 hPa 0,0 mm 0,0 km/h (0 Bft) S 189 ° 0 min 0,000 mm 0,0 UV-I 0 W/m² 6,1 °C 10,9 °C 0,0 km/h (0 Bft)
30.04.2018 00:13 10,9 °C 74 % 998,2 hPa 0,0 mm 0,0 km/h (0 Bft) S 189 ° 0 min 0,000 mm 0,0 UV-I 0 W/m² 6,5 °C 10,9 °C 0,0 km/h (0 Bft)
30.04.2018 00:14 10,8 °C 74 % 998,2 hPa 0,0 mm 1,2 km/h (1 Bft) S 189 ° 0 min 0,000 mm 0,0 UV-I 0 W/m² 6,4 °C 10,8 °C 3,2 km/h (1 Bft)
30.04.2018 00:15 10,6 °C 74 % 998,2 hPa 0,0 mm 2,8 km/h (1 Bft) S 189 ° 0 min 0,000 mm 0,0 UV-I 0 W/m² 6,2 °C 10,6 °C 3,2 km/h (1 Bft)
30.04.2018 00:16 10,6 °C 76 % 998,2 hPa 0,0 mm 1,7 km/h (1 Bft) S 189 ° 0 min 0,000 mm 0,0 UV-I 0 W/m² 6,5 °C 10,6 °C 3,2 km/h (1 Bft)
30.04.2018 00:17 10,5 °C 76 % 998,2 hPa 0,0 mm 0,0 km/h (0 Bft) S 189 ° 0 min 0,000 mm 0,0 UV-I 0 W/m² 6,5 °C 10,5 °C 0,0 km/h (0 Bft)
30.04.2018 00:18 10,5 °C 75 % 998,2 hPa 0,0 mm 0,0 km/h (0 Bft) S 189 ° 0 min 0,000 mm 0,0 UV-I 0 W/m² 6,3 °C 10,5 °C 0,0 km/h (0 Bft)
30.04.2018 00:19 10,5 °C 75 % 998,2 hPa 0,0 mm 0,0 km/h (0 Bft) S 189 ° 0 min 0,000 mm 0,0 UV-I 0 W/m² 6,3 °C 10,5 °C 0,0 km/h (0 Bft)
30.04.2018 00:20 10,6 °C 75 % 998,3 hPa 0,0 mm 0,8 km/h (0 Bft) S 189 ° 0 min 0,000 mm 0,0 UV-I 0 W/m² 6,4 °C 10,6 °C 1,6 km/h (1 Bft)
30.04.2018 00:21 10,6 °C 75 % 998,3 hPa 0,0 mm 2,4 km/h (1 Bft) S 189 ° 0 min 0,000 mm 0,0 UV-I 0 W/m² 6,4 °C 10,6 °C 3,2 km/h (1 Bft)
30.04.2018 00:22 10,6 °C 75 % 998,3 hPa 0,0 mm 2,3 km/h (1 Bft) S 189 ° 0 min 0,000 mm 0,0 UV-I 0 W/m² 6,4 °C 10,6 °C 4,8 km/h (1 Bft)
30.04.2018 00:23 10,7 °C 74 % 998,3 hPa 0,0 mm 3,1 km/h (1 Bft) S 189 ° 0 min 0,000 mm 0,0 UV-I 0 W/m² 6,3 °C 10,7 °C 4,8 km/h (1 Bft)
30.04.2018 00:24 10,8 °C 74 % 998,2 hPa 0,0 mm 0,7 km/h (0 Bft) S 189 ° 0 min 0,000 mm 0,0 UV-I 0 W/m² 6,4 °C 10,8 °C 3,2 km/h (1 Bft)
30.04.2018 00:25 10,9 °C 73 % 998,2 hPa 0,0 mm 0,3 km/h (0 Bft) S 189 ° 0 min 0,000 mm 0,0 UV-I 0 W/m² 6,3 °C 10,9 °C 1,6 km/h (1 Bft)
30.04.2018 00:26 11,0 °C 73 % 998,2 hPa 0,0 mm 0,6 km/h (0 Bft) S 189 ° 0 min 0,000 mm 0,0 UV-I 0 W/m² 6,4 °C 11,0 °C 3,2 km/h (1 Bft)
30.04.2018 00:27 11,1 °C 73 % 998,1 hPa 0,0 mm 1,5 km/h (1 Bft) S 189 ° 0 min 0,000 mm 0,0 UV-I 0 W/m² 6,4 °C 11,1 °C 3,2 km/h (1 Bft)
30.04.2018 00:28 11,2 °C 72 % 998,1 hPa 0,0 mm 0,1 km/h (0 Bft) S 189 ° 0 min 0,000 mm 0,0 UV-I 0 W/m² 6,3 °C 11,2 °C 1,6 km/h (1 Bft)
30.04.2018 00:29 11,1 °C 73 % 998,1 hPa 0,0 mm 0,0 km/h (0 Bft) S 189 ° 0 min 0,000 mm 0,0 UV-I 0 W/m² 6,4 °C 11,1 °C 0,0 km/h (0 Bft)
30.04.2018 00:30 10,9 °C 74 % 998,0 hPa 0,0 mm 0,0 km/h (0 Bft) S 189 ° 0 min 0,000 mm 0,0 UV-I 0 W/m² 6,5 °C 10,9 °C 0,0 km/h (0 Bft)
30.04.2018 00:31 10,8 °C 75 % 998,0 hPa 0,0 mm 0,0 km/h (0 Bft) S 189 ° 0 min 0,000 mm 0,0 UV-I 0 W/m² 6,5 °C 10,8 °C 0,0 km/h (0 Bft)
30.04.2018 00:32 10,6 °C 75 % 998,0 hPa 0,0 mm 0,0 km/h (0 Bft) S 189 ° 0 min 0,000 mm 0,0 UV-I 0 W/m² 6,4 °C 10,6 °C 0,0 km/h (0 Bft)
30.04.2018 00:33 10,4 °C 75 % 998,0 hPa 0,0 mm 0,0 km/h (0 Bft) S 189 ° 0 min 0,000 mm 0,0 UV-I 0 W/m² 6,2 °C 10,4 °C 0,0 km/h (0 Bft)
30.04.2018 00:34 10,4 °C 76 % 998,1 hPa 0,0 mm 1,9 km/h (1 Bft) S 189 ° 0 min 0,000 mm 0,0 UV-I 0 W/m² 6,4 °C 10,4 °C 3,2 km/h (1 Bft)
30.04.2018 00:35 10,4 °C 75 % 998,1 hPa 0,0 mm 3,5 km/h (1 Bft) S 189 ° 0 min 0,000 mm 0,0 UV-I 0 W/m² 6,2 °C 10,4 °C 4,8 km/h (1 Bft)
30.04.2018 00:36 10,6 °C 75 % 998,1 hPa 0,0 mm 2,4 km/h (1 Bft) S 189 ° 0 min 0,000 mm 0,0 UV-I 0 W/m² 6,4 °C 10,6 °C 3,2 km/h (1 Bft)
30.04.2018 00:37 10,7 °C 74 % 998,1 hPa 0,0 mm 2,5 km/h (1 Bft) S 189 ° 0 min 0,000 mm 0,0 UV-I 0 W/m² 6,3 °C 10,7 °C 3,2 km/h (1 Bft)
30.04.2018 00:38 10,8 °C 75 % 998,0 hPa 0,0 mm 3,5 km/h (1 Bft) S 189 ° 0 min 0,000 mm 0,0 UV-I 0 W/m² 6,5 °C 10,8 °C 4,8 km/h (1 Bft)
30.04.2018 00:39 10,8 °C 75 % 998,0 hPa 0,0 mm 0,3 km/h (0 Bft) S 189 ° 0 min 0,000 mm 0,0 UV-I 0 W/m² 6,5 °C 10,8 °C 1,6 km/h (1 Bft)
30.04.2018 00:40 10,9 °C 75 % 998,0 hPa 0,0 mm 0,0 km/h (0 Bft) S 189 ° 0 min 0,000 mm 0,0 UV-I 0 W/m² 6,6 °C 10,9 °C 0,0 km/h (0 Bft)
30.04.2018 00:41 10,8 °C 76 % 998,1 hPa 0,0 mm 0,0 km/h (0 Bft) S 189 ° 0 min 0,000 mm 0,0 UV-I 0 W/m² 6,7 °C 10,8 °C 0,0 km/h (0 Bft)
30.04.2018 00:42 10,8 °C 76 % 998,1 hPa 0,0 mm 0,0 km/h (0 Bft) S 189 ° 0 min 0,000 mm 0,0 UV-I 0 W/m² 6,7 °C 10,8 °C 0,0 km/h (0 Bft)
30.04.2018 00:43 10,8 °C 76 % 998,1 hPa 0,0 mm 0,0 km/h (0 Bft) S 189 ° 0 min 0,000 mm 0,0 UV-I 0 W/m² 6,7 °C 10,8 °C 0,0 km/h (0 Bft)
30.04.2018 00:44 10,7 °C 76 % 998,1 hPa 0,0 mm 0,0 km/h (0 Bft) S 189 ° 0 min 0,000 mm 0,0 UV-I 0 W/m² 6,6 °C 10,7 °C 0,0 km/h (0 Bft)
30.04.2018 00:45 10,6 °C 76 % 998,0 hPa 0,0 mm 0,0 km/h (0 Bft) S 189 ° 0 min 0,000 mm 0,0 UV-I 0 W/m² 6,5 °C 10,6 °C 0,0 km/h (0 Bft)
30.04.2018 00:46 10,6 °C 77 % 998,0 hPa 0,0 mm 0,5 km/h (0 Bft) S 189 ° 0 min 0,000 mm 0,0 UV-I 0 W/m² 6,7 °C 10,6 °C 3,2 km/h (1 Bft)
30.04.2018 00:47 10,6 °C 77 % 998,0 hPa 0,0 mm 0,7 km/h (0 Bft) S 189 ° 0 min 0,000 mm 0,0 UV-I 0 W/m² 6,7 °C 10,6 °C 3,2 km/h (1 Bft)
30.04.2018 00:48 10,5 °C 77 % 998,0 hPa 0,0 mm 0,0 km/h (0 Bft) S 189 ° 0 min 0,000 mm 0,0 UV-I 0 W/m² 6,6 °C 10,5 °C 0,0 km/h (0 Bft)
30.04.2018 00:49 10,5 °C 77 % 997,9 hPa 0,0 mm 0,0 km/h (0 Bft) S 189 ° 0 min 0,000 mm 0,0 UV-I 0 W/m² 6,6 °C 10,5 °C 0,0 km/h (0 Bft)
30.04.2018 00:50 10,6 °C 76 % 997,9 hPa 0,0 mm 0,0 km/h (0 Bft) S 189 ° 0 min 0,000 mm 0,0 UV-I 0 W/m² 6,5 °C 10,6 °C 0,0 km/h (0 Bft)
30.04.2018 00:51 10,6 °C 76 % 997,9 hPa 0,0 mm 0,0 km/h (0 Bft) S 189 ° 0 min 0,000 mm 0,0 UV-I 0 W/m² 6,5 °C 10,6 °C 0,0 km/h (0 Bft)
30.04.2018 00:52 10,7 °C 75 % 997,9 hPa 0,0 mm 0,0 km/h (0 Bft) S 189 ° 0 min 0,000 mm 0,0 UV-I 0 W/m² 6,5 °C 10,7 °C 0,0 km/h (0 Bft)
30.04.2018 00:53 10,7 °C 75 % 997,9 hPa 0,0 mm 0,0 km/h (0 Bft) S 189 ° 0 min 0,000 mm 0,0 UV-I 0 W/m² 6,5 °C 10,7 °C 0,0 km/h (0 Bft)
30.04.2018 00:54 10,8 °C 75 % 997,9 hPa 0,0 mm 0,1 km/h (0 Bft) S 189 ° 0 min 0,000 mm 0,0 UV-I 0 W/m² 6,5 °C 10,8 °C 1,6 km/h (1 Bft)
30.04.2018 00:55 10,8 °C 75 % 997,9 hPa 0,0 mm 2,6 km/h (1 Bft) S 189 ° 0 min 0,000 mm 0,0 UV-I 0 W/m² 6,5 °C 10,8 °C 3,2 km/h (1 Bft)
30.04.2018 00:56 10,8 °C 75 % 998,0 hPa 0,0 mm 2,5 km/h (1 Bft) S 189 ° 0 min 0,000 mm 0,0 UV-I 0 W/m² 6,5 °C 10,8 °C 3,2 km/h (1 Bft)
30.04.2018 00:57 10,8 °C 75 % 997,9 hPa 0,0 mm 2,5 km/h (1 Bft) S 189 ° 0 min 0,000 mm 0,0 UV-I 0 W/m² 6,5 °C 10,8 °C 3,2 km/h (1 Bft)
30.04.2018 00:58 10,9 °C 74 % 997,9 hPa 0,0 mm 0,5 km/h (0 Bft) S 189 ° 0 min 0,000 mm 0,0 UV-I 0 W/m² 6,5 °C 10,9 °C 1,6 km/h (1 Bft)
30.04.2018 00:59 11,0 °C 73 % 997,9 hPa 0,0 mm 0,0 km/h (0 Bft) S 189 ° 0 min 0,000 mm 0,0 UV-I 0 W/m² 6,4 °C 11,0 °C 0,0 km/h (0 Bft)
30.04.2018 01:00 11,1 °C 74 % 997,9 hPa 0,0 mm 0,0 km/h (0 Bft) S 189 ° 0 min 0,025 mm 0,0 UV-I 0 W/m² 6,6 °C 11,1 °C 0,0 km/h (0 Bft)
30.04.2018 01:01 11,1 °C 74 % 997,9 hPa 0,0 mm 0,0 km/h (0 Bft) S 189 ° 0 min 0,000 mm 0,0 UV-I 0 W/m² 6,6 °C 11,1 °C 0,0 km/h (0 Bft)
30.04.2018 01:02 11,0 °C 74 % 997,9 hPa 0,0 mm 0,0 km/h (0 Bft) S 189 ° 0 min 0,000 mm 0,0 UV-I 0 W/m² 6,5 °C 11,0 °C 0,0 km/h (0 Bft)
30.04.2018 01:03 10,9 °C 75 % 997,8 hPa 0,0 mm 0,0 km/h (0 Bft) S 189 ° 0 min 0,000 mm 0,0 UV-I 0 W/m² 6,6 °C 10,9 °C 0,0 km/h (0 Bft)
30.04.2018 01:04 10,8 °C 76 % 997,9 hPa 0,0 mm 0,0 km/h (0 Bft) S 189 ° 0 min 0,000 mm 0,0 UV-I 0 W/m² 6,7 °C 10,8 °C 0,0 km/h (0 Bft)
30.04.2018 01:05 10,8 °C 76 % 997,9 hPa 0,0 mm 0,0 km/h (0 Bft) S 189 ° 0 min 0,000 mm 0,0 UV-I 0 W/m² 6,7 °C 10,8 °C 0,0 km/h (0 Bft)
30.04.2018 01:06 10,8 °C 76 % 997,9 hPa 0,0 mm 0,0 km/h (0 Bft) S 189 ° 0 min 0,000 mm 0,0 UV-I 0 W/m² 6,7 °C 10,8 °C 0,0 km/h (0 Bft)
30.04.2018 01:07 10,7 °C 76 % 997,9 hPa 0,0 mm 0,0 km/h (0 Bft) S 189 ° 0 min 0,000 mm 0,0 UV-I 0 W/m² 6,6 °C 10,7 °C 0,0 km/h (0 Bft)
30.04.2018 01:08 10,7 °C 76 % 997,9 hPa 0,0 mm 0,0 km/h (0 Bft) S 189 ° 0 min 0,000 mm 0,0 UV-I 0 W/m² 6,6 °C 10,7 °C 0,0 km/h (0 Bft)
30.04.2018 01:09 10,7 °C 76 % 997,9 hPa 0,0 mm 0,0 km/h (0 Bft) S 189 ° 0 min 0,000 mm 0,0 UV-I 0 W/m² 6,6 °C 10,7 °C 0,0 km/h (0 Bft)
30.04.2018 01:10 10,7 °C 76 % 997,9 hPa 0,0 mm 0,0 km/h (0 Bft) S 189 ° 0 min 0,000 mm 0,0 UV-I 0 W/m² 6,6 °C 10,7 °C 0,0 km/h (0 Bft)
30.04.2018 01:11 10,8 °C 75 % 997,9 hPa 0,0 mm 0,0 km/h (0 Bft) S 189 ° 0 min 0,000 mm 0,0 UV-I 0 W/m² 6,5 °C 10,8 °C 0,0 km/h (0 Bft)
30.04.2018 01:12 10,8 °C 75 % 997,9 hPa 0,0 mm 0,0 km/h (0 Bft) S 189 ° 0 min 0,000 mm 0,0 UV-I 0 W/m² 6,5 °C 10,8 °C 0,0 km/h (0 Bft)
30.04.2018 01:13 10,8 °C 75 % 997,9 hPa 0,0 mm 0,0 km/h (0 Bft) S 189 ° 0 min 0,000 mm 0,0 UV-I 0 W/m² 6,5 °C 10,8 °C 0,0 km/h (0 Bft)
30.04.2018 01:14 10,8 °C 75 % 997,9 hPa 0,0 mm 0,0 km/h (0 Bft) S 189 ° 0 min 0,000 mm 0,0 UV-I 0 W/m² 6,5 °C 10,8 °C 0,0 km/h (0 Bft)
30.04.2018 01:15 10,7 °C 77 % 997,9 hPa 0,0 mm 0,0 km/h (0 Bft) S 189 ° 0 min 0,000 mm 0,0 UV-I 0 W/m² 6,8 °C 10,7 °C 0,0 km/h (0 Bft)
30.04.2018 01:16 10,6 °C 77 % 997,9 hPa 0,0 mm 0,0 km/h (0 Bft) S 189 ° 0 min 0,000 mm 0,0 UV-I 0 W/m² 6,7 °C 10,6 °C 0,0 km/h (0 Bft)
30.04.2018 01:17 10,4 °C 78 % 997,8 hPa 0,0 mm 0,0 km/h (0 Bft) S 189 ° 0 min 0,000 mm 0,0 UV-I 0 W/m² 6,7 °C 10,4 °C 0,0 km/h (0 Bft)
30.04.2018 01:18 10,4 °C 78 % 997,9 hPa 0,0 mm 0,0 km/h (0 Bft) S 189 ° 0 min 0,000 mm 0,0 UV-I 0 W/m² 6,7 °C 10,4 °C 0,0 km/h (0 Bft)
30.04.2018 01:19 10,3 °C 78 % 997,9 hPa 0,0 mm 0,0 km/h (0 Bft) S 189 ° 0 min 0,000 mm 0,0 UV-I 0 W/m² 6,6 °C 10,3 °C 0,0 km/h (0 Bft)
30.04.2018 01:20 10,3 °C 78 % 997,9 hPa 0,0 mm 0,0 km/h (0 Bft) S 189 ° 0 min 0,000 mm 0,0 UV-I 0 W/m² 6,6 °C 10,3 °C 0,0 km/h (0 Bft)
30.04.2018 01:21 10,4 °C 78 % 997,9 hPa 0,0 mm 0,0 km/h (0 Bft) S 189 ° 0 min 0,000 mm 0,0 UV-I 0 W/m² 6,7 °C 10,4 °C 0,0 km/h (0 Bft)
30.04.2018 01:22 10,4 °C 77 % 997,9 hPa 0,0 mm 0,0 km/h (0 Bft) S 189 ° 0 min 0,000 mm 0,0 UV-I 0 W/m² 6,5 °C 10,4 °C 0,0 km/h (0 Bft)
30.04.2018 01:23 10,4 °C 76 % 997,9 hPa 0,0 mm 0,0 km/h (0 Bft) S 189 ° 0 min 0,000 mm 0,0 UV-I 0 W/m² 6,4 °C 10,4 °C 0,0 km/h (0 Bft)
30.04.2018 01:24 10,6 °C 76 % 997,8 hPa 0,0 mm 0,0 km/h (0 Bft) S 189 ° 0 min 0,000 mm 0,0 UV-I 0 W/m² 6,5 °C 10,6 °C 0,0 km/h (0 Bft)
30.04.2018 01:25 10,6 °C 76 % 997,8 hPa 0,0 mm 0,0 km/h (0 Bft) S 189 ° 0 min 0,000 mm 0,0 UV-I 0 W/m² 6,5 °C 10,6 °C 0,0 km/h (0 Bft)
30.04.2018 01:26 10,6 °C 76 % 997,8 hPa 0,0 mm 0,0 km/h (0 Bft) S 189 ° 0 min 0,000 mm 0,0 UV-I 0 W/m² 6,5 °C 10,6 °C 0,0 km/h (0 Bft)
30.04.2018 01:27 10,6 °C 75 % 997,8 hPa 0,0 mm 0,0 km/h (0 Bft) S 189 ° 0 min 0,000 mm 0,0 UV-I 0 W/m² 6,4 °C 10,6 °C 0,0 km/h (0 Bft)
30.04.2018 01:28 10,7 °C 75 % 997,8 hPa 0,0 mm 0,0 km/h (0 Bft) S 189 ° 0 min 0,000 mm 0,0 UV-I 0 W/m² 6,5 °C 10,7 °C 0,0 km/h (0 Bft)
30.04.2018 01:29 10,7 °C 75 % 997,8 hPa 0,0 mm 0,0 km/h (0 Bft) S 189 ° 0 min 0,000 mm 0,0 UV-I 0 W/m² 6,5 °C 10,7 °C 0,0 km/h (0 Bft)
30.04.2018 01:30 10,7 °C 75 % 997,8 hPa 0,0 mm 0,0 km/h (0 Bft) S 189 ° 0 min 0,000 mm 0,0 UV-I 0 W/m² 6,5 °C 10,7 °C 0,0 km/h (0 Bft)
30.04.2018 01:31 10,7 °C 75 % 997,8 hPa 0,0 mm 0,0 km/h (0 Bft) S 189 ° 0 min 0,000 mm 0,0 UV-I 0 W/m² 6,5 °C 10,7 °C 0,0 km/h (0 Bft)
30.04.2018 01:32 10,6 °C 76 % 997,8 hPa 0,0 mm 0,0 km/h (0 Bft) S 189 ° 0 min 0,000 mm 0,0 UV-I 0 W/m² 6,5 °C 10,6 °C 0,0 km/h (0 Bft)
30.04.2018 01:33 10,6 °C 76 % 997,8 hPa 0,0 mm 0,0 km/h (0 Bft) S 189 ° 0 min 0,000 mm 0,0 UV-I 0 W/m² 6,5 °C 10,6 °C 0,0 km/h (0 Bft)
30.04.2018 01:34 10,5 °C 77 % 997,8 hPa 0,0 mm 0,0 km/h (0 Bft) S 189 ° 0 min 0,000 mm 0,0 UV-I 0 W/m² 6,6 °C 10,5 °C 0,0 km/h (0 Bft)
30.04.2018 01:35 10,4 °C 77 % 997,8 hPa 0,0 mm 0,0 km/h (0 Bft) S 189 ° 0 min 0,000 mm 0,0 UV-I 0 W/m² 6,5 °C 10,4 °C 0,0 km/h (0 Bft)
30.04.2018 01:36 10,4 °C 77 % 997,8 hPa 0,0 mm 0,0 km/h (0 Bft) S 189 ° 0 min 0,000 mm 0,0 UV-I 0 W/m² 6,5 °C 10,4 °C 0,0 km/h (0 Bft)
30.04.2018 01:37 10,4 °C 76 % 997,9 hPa 0,0 mm 0,0 km/h (0 Bft) S 189 ° 0 min 0,000 mm 0,0 UV-I 0 W/m² 6,4 °C 10,4 °C 0,0 km/h (0 Bft)
30.04.2018 01:38 10,6 °C 75 % 997,9 hPa 0,0 mm 0,0 km/h (0 Bft) S 189 ° 0 min 0,000 mm 0,0 UV-I 0 W/m² 6,4 °C 10,6 °C 0,0 km/h (0 Bft)
30.04.2018 01:39 10,7 °C 74 % 997,8 hPa 0,0 mm 0,0 km/h (0 Bft) S 189 ° 0 min 0,000 mm 0,0 UV-I 0 W/m² 6,3 °C 10,7 °C 0,0 km/h (0 Bft)
30.04.2018 01:40 10,8 °C 75 % 997,8 hPa 0,0 mm 0,0 km/h (0 Bft) S 189 ° 0 min 0,000 mm 0,0 UV-I 0 W/m² 6,5 °C 10,8 °C 0,0 km/h (0 Bft)
30.04.2018 01:41 10,9 °C 74 % 997,8 hPa 0,0 mm 0,0 km/h (0 Bft) S 189 ° 0 min 0,000 mm 0,0 UV-I 0 W/m² 6,5 °C 10,9 °C 0,0 km/h (0 Bft)
30.04.2018 01:42 10,9 °C 74 % 997,7 hPa 0,0 mm 0,0 km/h (0 Bft) S 189 ° 0 min 0,000 mm 0,0 UV-I 0 W/m² 6,5 °C 10,9 °C 0,0 km/h (0 Bft)
30.04.2018 01:43 10,9 °C 73 % 997,8 hPa 0,0 mm 0,0 km/h (0 Bft) S 189 ° 0 min 0,000 mm 0,0 UV-I 0 W/m² 6,3 °C 10,9 °C 0,0 km/h (0 Bft)
30.04.2018 01:44 10,9 °C 75 % 997,8 hPa 0,0 mm 0,0 km/h (0 Bft) S 189 ° 0 min 0,000 mm 0,0 UV-I 0 W/m² 6,6 °C 10,9 °C 0,0 km/h (0 Bft)
30.04.2018 01:45 10,9 °C 74 % 997,8 hPa 0,0 mm 0,0 km/h (0 Bft) S 189 ° 0 min 0,000 mm 0,0 UV-I 0 W/m² 6,5 °C 10,9 °C 0,0 km/h (0 Bft)
30.04.2018 01:46 10,8 °C 74 % 997,8 hPa 0,0 mm 0,0 km/h (0 Bft) S 189 ° 0 min 0,000 mm 0,0 UV-I 0 W/m² 6,4 °C 10,8 °C 0,0 km/h (0 Bft)
30.04.2018 01:47 10,7 °C 74 % 997,8 hPa 0,0 mm 0,0 km/h (0 Bft) S 189 ° 0 min 0,000 mm 0,0 UV-I 0 W/m² 6,3 °C 10,7 °C 0,0 km/h (0 Bft)
30.04.2018 01:48 10,6 °C 76 % 997,8 hPa 0,0 mm 0,0 km/h (0 Bft) S 189 ° 0 min 0,000 mm 0,0 UV-I 0 W/m² 6,5 °C 10,6 °C 0,0 km/h (0 Bft)
30.04.2018 01:49 10,5 °C 77 % 997,8 hPa 0,0 mm 0,0 km/h (0 Bft) S 189 ° 0 min 0,000 mm 0,0 UV-I 0 W/m² 6,6 °C 10,5 °C 0,0 km/h (0 Bft)
30.04.2018 01:50 10,5 °C 76 % 997,8 hPa 0,0 mm 0,0 km/h (0 Bft) S 189 ° 0 min 0,000 mm 0,0 UV-I 0 W/m² 6,5 °C 10,5 °C 0,0 km/h (0 Bft)
30.04.2018 01:51 10,6 °C 75 % 997,8 hPa 0,0 mm 0,0 km/h (0 Bft) S 189 ° 0 min 0,000 mm 0,0 UV-I 0 W/m² 6,4 °C 10,6 °C 0,0 km/h (0 Bft)
30.04.2018 01:52 10,6 °C 75 % 997,8 hPa 0,0 mm 0,0 km/h (0 Bft) S 189 ° 0 min 0,000 mm 0,0 UV-I 0 W/m² 6,4 °C 10,6 °C 0,0 km/h (0 Bft)
30.04.2018 01:53 10,6 °C 76 % 997,8 hPa 0,0 mm 0,0 km/h (0 Bft) S 189 ° 0 min 0,000 mm 0,0 UV-I 0 W/m² 6,5 °C 10,6 °C 0,0 km/h (0 Bft)
30.04.2018 01:54 10,5 °C 75 % 997,9 hPa 0,0 mm 0,0 km/h (0 Bft) S 189 ° 0 min 0,000 mm 0,0 UV-I 0 W/m² 6,3 °C 10,5 °C 0,0 km/h (0 Bft)
30.04.2018 01:55 10,5 °C 75 % 997,9 hPa 0,0 mm 0,0 km/h (0 Bft) S 189 ° 0 min 0,000 mm 0,0 UV-I 0 W/m² 6,3 °C 10,5 °C 0,0 km/h (0 Bft)
30.04.2018 01:56 10,6 °C 74 % 997,8 hPa 0,0 mm 0,0 km/h (0 Bft) S 189 ° 0 min 0,000 mm 0,0 UV-I 0 W/m² 6,2 °C 10,6 °C 0,0 km/h (0 Bft)
30.04.2018 01:57 10,6 °C 75 % 997,9 hPa 0,0 mm 0,0 km/h (0 Bft) S 189 ° 0 min 0,000 mm 0,0 UV-I 0 W/m² 6,4 °C 10,6 °C 0,0 km/h (0 Bft)
30.04.2018 01:58 10,6 °C 74 % 997,8 hPa 0,0 mm 0,0 km/h (0 Bft) S 189 ° 0 min 0,000 mm 0,0 UV-I 0 W/m² 6,2 °C 10,6 °C 0,0 km/h (0 Bft)
30.04.2018 01:59 10,7 °C 74 % 997,8 hPa 0,0 mm 1,1 km/h (1 Bft) S 189 ° 0 min 0,000 mm 0,0 UV-I 0 W/m² 6,3 °C 10,7 °C 1,6 km/h (1 Bft)
30.04.2018 02:00 10,8 °C 73 % 997,8 hPa 0,0 mm 0,2 km/h (0 Bft) S 189 ° 0 min 0,000 mm 0,0 UV-I 0 W/m² 6,2 °C 10,8 °C 1,6 km/h (1 Bft)
30.04.2018 02:01 10,9 °C 72 % 997,8 hPa 0,0 mm 0,0 km/h (0 Bft) S 189 ° 0 min 0,026 mm 0,0 UV-I 0 W/m² 6,1 °C 10,9 °C 0,0 km/h (0 Bft)
30.04.2018 02:02 11,0 °C 73 % 997,8 hPa 0,0 mm 0,0 km/h (0 Bft) S 189 ° 0 min 0,000 mm 0,0 UV-I 0 W/m² 6,4 °C 11,0 °C 0,0 km/h (0 Bft)
30.04.2018 02:03 11,1 °C 72 % 997,8 hPa 0,0 mm 0,0 km/h (0 Bft) S 189 ° 0 min 0,000 mm 0,0 UV-I 0 W/m² 6,2 °C 11,1 °C 0,0 km/h (0 Bft)
30.04.2018 02:04 11,1 °C 72 % 997,8 hPa 0,0 mm 0,0 km/h (0 Bft) S 189 ° 0 min 0,000 mm 0,0 UV-I 0 W/m² 6,2 °C 11,1 °C 0,0 km/h (0 Bft)
30.04.2018 02:05 11,1 °C 71 % 997,9 hPa 0,0 mm 0,0 km/h (0 Bft) S 189 ° 0 min 0,000 mm 0,0 UV-I 0 W/m² 6,0 °C 11,1 °C 0,0 km/h (0 Bft)
30.04.2018 02:06 11,2 °C 71 % 997,8 hPa 0,0 mm 0,0 km/h (0 Bft) S 189 ° 0 min 0,000 mm 0,0 UV-I 0 W/m² 6,1 °C 11,2 °C 0,0 km/h (0 Bft)
30.04.2018 02:07 11,2 °C 71 % 997,8 hPa 0,0 mm 0,0 km/h (0 Bft) S 189 ° 0 min 0,000 mm 0,0 UV-I 0 W/m² 6,1 °C 11,2 °C 0,0 km/h (0 Bft)
30.04.2018 02:08 11,3 °C 70 % 997,8 hPa 0,0 mm 0,0 km/h (0 Bft) S 189 ° 0 min 0,000 mm 0,0 UV-I 0 W/m² 6,0 °C 11,3 °C 0,0 km/h (0 Bft)
30.04.2018 02:09 11,3 °C 70 % 997,8 hPa 0,0 mm 0,0 km/h (0 Bft) S 189 ° 0 min 0,000 mm 0,0 UV-I 0 W/m² 6,0 °C 11,3 °C 0,0 km/h (0 Bft)
30.04.2018 02:10 11,4 °C 70 % 997,8 hPa 0,0 mm 0,0 km/h (0 Bft) S 189 ° 0 min 0,000 mm 0,0 UV-I 0 W/m² 6,1 °C 11,4 °C 0,0 km/h (0 Bft)
30.04.2018 02:11 11,5 °C 70 % 997,8 hPa 0,0 mm 0,9 km/h (0 Bft) S 189 ° 0 min 0,000 mm 0,0 UV-I 0 W/m² 6,2 °C 11,5 °C 3,2 km/h (1 Bft)
30.04.2018 02:12 11,6 °C 69 % 997,8 hPa 0,0 mm 0,6 km/h (0 Bft) S 189 ° 0 min 0,000 mm 0,0 UV-I 0 W/m² 6,1 °C 11,6 °C 3,2 km/h (1 Bft)
30.04.2018 02:13 11,6 °C 69 % 997,8 hPa 0,0 mm 0,5 km/h (0 Bft) S 189 ° 0 min 0,000 mm 0,0 UV-I 0 W/m² 6,1 °C 11,6 °C 1,6 km/h (1 Bft)
30.04.2018 02:14 11,6 °C 69 % 997,8 hPa 0,0 mm 0,1 km/h (0 Bft) S 189 ° 0 min 0,000 mm 0,0 UV-I 0 W/m² 6,1 °C 11,6 °C 1,6 km/h (1 Bft)
30.04.2018 02:15 11,6 °C 69 % 997,8 hPa 0,0 mm 0,0 km/h (0 Bft) S 189 ° 0 min 0,000 mm 0,0 UV-I 0 W/m² 6,1 °C 11,6 °C 0,0 km/h (0 Bft)
30.04.2018 02:16 11,6 °C 69 % 997,8 hPa 0,0 mm 0,2 km/h (0 Bft) S 189 ° 0 min 0,000 mm 0,0 UV-I 0 W/m² 6,1 °C 11,6 °C 1,6 km/h (1 Bft)
30.04.2018 02:17 11,7 °C 69 % 997,8 hPa 0,0 mm 1,7 km/h (1 Bft) S 189 ° 0 min 0,000 mm 0,0 UV-I 0 W/m² 6,2 °C 11,7 °C 3,2 km/h (1 Bft)
30.04.2018 02:18 11,7 °C 69 % 997,8 hPa 0,0 mm 0,6 km/h (0 Bft) S 189 ° 0 min 0,000 mm 0,0 UV-I 0 W/m² 6,2 °C 11,7 °C 3,2 km/h (1 Bft)
30.04.2018 02:19 11,7 °C 69 % 997,8 hPa 0,0 mm 1,7 km/h (1 Bft) S 189 ° 0 min 0,000 mm 0,0 UV-I 0 W/m² 6,2 °C 11,7 °C 3,2 km/h (1 Bft)
30.04.2018 02:20 11,7 °C 68 % 997,8 hPa 0,0 mm 0,4 km/h (0 Bft) S 189 ° 0 min 0,000 mm 0,0 UV-I 0 W/m² 6,0 °C 11,7 °C 1,6 km/h (1 Bft)
30.04.2018 02:21 11,8 °C 68 % 997,7 hPa 0,0 mm 0,9 km/h (0 Bft) S 189 ° 0 min 0,000 mm 0,0 UV-I 0 W/m² 6,1 °C 11,8 °C 3,2 km/h (1 Bft)
30.04.2018 02:22 11,9 °C 68 % 997,7 hPa 0,0 mm 0,4 km/h (0 Bft) S 189 ° 0 min 0,000 mm 0,0 UV-I 0 W/m² 6,2 °C 11,9 °C 1,6 km/h (1 Bft)
30.04.2018 02:23 11,9 °C 68 % 997,7 hPa 0,0 mm 0,0 km/h (0 Bft) S 189 ° 0 min 0,000 mm 0,0 UV-I 0 W/m² 6,2 °C 11,9 °C 0,0 km/h (0 Bft)
30.04.2018 02:24 11,9 °C 67 % 997,7 hPa 0,0 mm 0,0 km/h (0 Bft) S 189 ° 0 min 0,000 mm 0,0 UV-I 0 W/m² 6,0 °C 11,9 °C 0,0 km/h (0 Bft)
30.04.2018 02:25 12,1 °C 66 % 997,6 hPa 0,0 mm 0,0 km/h (0 Bft) S 189 ° 0 min 0,000 mm 0,0 UV-I 0 W/m² 5,9 °C 12,1 °C 0,0 km/h (0 Bft)
30.04.2018 02:26 12,1 °C 66 % 997,7 hPa 0,0 mm 0,0 km/h (0 Bft) S 189 ° 0 min 0,000 mm 0,0 UV-I 0 W/m² 5,9 °C 12,1 °C 0,0 km/h (0 Bft)
30.04.2018 02:27 12,1 °C 66 % 997,7 hPa 0,0 mm 0,0 km/h (0 Bft) S 189 ° 0 min 0,000 mm 0,0 UV-I 0 W/m² 5,9 °C 12,1 °C 0,0 km/h (0 Bft)
30.04.2018 02:28 12,1 °C 67 % 997,7 hPa 0,0 mm 0,0 km/h (0 Bft) S 189 ° 0 min 0,000 mm 0,0 UV-I 0 W/m² 6,2 °C 12,1 °C 0,0 km/h (0 Bft)
30.04.2018 02:29 12,1 °C 67 % 997,7 hPa 0,0 mm 0,0 km/h (0 Bft) S 189 ° 0 min 0,000 mm 0,0 UV-I 0 W/m² 6,2 °C 12,1 °C 0,0 km/h (0 Bft)
30.04.2018 02:30 12,1 °C 67 % 997,6 hPa 0,0 mm 0,3 km/h (0 Bft) S 189 ° 0 min 0,000 mm 0,0 UV-I 0 W/m² 6,2 °C 12,1 °C 3,2 km/h (1 Bft)
30.04.2018 02:31 12,2 °C 66 % 997,6 hPa 0,0 mm 0,0 km/h (0 Bft) S 189 ° 0 min 0,000 mm 0,0 UV-I 0 W/m² 6,0 °C 12,2 °C 0,0 km/h (0 Bft)
30.04.2018 02:32 12,2 °C 66 % 997,6 hPa 0,0 mm 0,0 km/h (0 Bft) S 189 ° 0 min 0,000 mm 0,0 UV-I 0 W/m² 6,0 °C 12,2 °C 0,0 km/h (0 Bft)
30.04.2018 02:33 12,2 °C 66 % 997,6 hPa 0,0 mm 0,0 km/h (0 Bft) S 189 ° 0 min 0,000 mm 0,0 UV-I 0 W/m² 6,0 °C 12,2 °C 0,0 km/h (0 Bft)
30.04.2018 02:34 12,3 °C 66 % 997,6 hPa 0,0 mm 0,0 km/h (0 Bft) S 189 ° 0 min 0,000 mm 0,0 UV-I 0 W/m² 6,1 °C 12,3 °C 0,0 km/h (0 Bft)
30.04.2018 02:35 12,2 °C 66 % 997,6 hPa 0,0 mm 0,5 km/h (0 Bft) S 189 ° 0 min 0,000 mm 0,0 UV-I 0 W/m² 6,0 °C 12,2 °C 1,6 km/h (1 Bft)
30.04.2018 02:36 12,2 °C 66 % 997,6 hPa 0,0 mm 0,0 km/h (0 Bft) S 189 ° 0 min 0,000 mm 0,0 UV-I 0 W/m² 6,0 °C 12,2 °C 0,0 km/h (0 Bft)
30.04.2018 02:37 12,2 °C 66 % 997,6 hPa 0,0 mm 0,0 km/h (0 Bft) S 189 ° 0 min 0,000 mm 0,0 UV-I 0 W/m² 6,0 °C 12,2 °C 0,0 km/h (0 Bft)
30.04.2018 02:38 12,1 °C 67 % 997,6 hPa 0,0 mm 0,0 km/h (0 Bft) S 189 ° 0 min 0,000 mm 0,0 UV-I 0 W/m² 6,2 °C 12,1 °C 0,0 km/h (0 Bft)
30.04.2018 02:39 12,1 °C 66 % 997,5 hPa 0,0 mm 0,0 km/h (0 Bft) S 189 ° 0 min 0,000 mm 0,0 UV-I 0 W/m² 5,9 °C 12,1 °C 0,0 km/h (0 Bft)
30.04.2018 02:40 12,2 °C 66 % 997,5 hPa 0,0 mm 0,0 km/h (0 Bft) S 189 ° 0 min 0,000 mm 0,0 UV-I 0 W/m² 6,0 °C 12,2 °C 0,0 km/h (0 Bft)
30.04.2018 02:41 12,3 °C 66 % 997,5 hPa 0,0 mm 0,0 km/h (0 Bft) S 189 ° 0 min 0,000 mm 0,0 UV-I 0 W/m² 6,1 °C 12,3 °C 0,0 km/h (0 Bft)
30.04.2018 02:42 12,3 °C 65 % 997,5 hPa 0,0 mm 0,8 km/h (0 Bft) S 189 ° 0 min 0,000 mm 0,0 UV-I 0 W/m² 5,9 °C 12,3 °C 3,2 km/h (1 Bft)
30.04.2018 02:43 12,3 °C 65 % 997,5 hPa 0,0 mm 2,5 km/h (1 Bft) S 189 ° 0 min 0,000 mm 0,0 UV-I 0 W/m² 5,9 °C 12,3 °C 4,8 km/h (1 Bft)
30.04.2018 02:44 12,4 °C 66 % 997,4 hPa 0,0 mm 0,6 km/h (0 Bft) S 189 ° 0 min 0,000 mm 0,0 UV-I 0 W/m² 6,2 °C 12,4 °C 3,2 km/h (1 Bft)
30.04.2018 02:45 12,4 °C 65 % 997,4 hPa 0,0 mm 0,7 km/h (0 Bft) S 189 ° 0 min 0,000 mm 0,0 UV-I 0 W/m² 6,0 °C 12,4 °C 3,2 km/h (1 Bft)
30.04.2018 02:46 12,4 °C 65 % 997,4 hPa 0,0 mm 0,1 km/h (0 Bft) S 189 ° 0 min 0,000 mm 0,0 UV-I 0 W/m² 6,0 °C 12,4 °C 1,6 km/h (1 Bft)
30.04.2018 02:47 12,4 °C 65 % 997,5 hPa 0,0 mm 0,1 km/h (0 Bft) S 189 ° 0 min 0,000 mm 0,0 UV-I 0 W/m² 6,0 °C 12,4 °C 1,6 km/h (1 Bft)
30.04.2018 02:48 12,3 °C 65 % 997,4 hPa 0,0 mm 0,0 km/h (0 Bft) S 189 ° 0 min 0,000 mm 0,0 UV-I 0 W/m² 5,9 °C 12,3 °C 0,0 km/h (0 Bft)
30.04.2018 02:49 12,2 °C 65 % 997,5 hPa 0,0 mm 0,0 km/h (0 Bft) S 189 ° 0 min 0,000 mm 0,0 UV-I 0 W/m² 5,8 °C 12,2 °C 0,0 km/h (0 Bft)
30.04.2018 02:50 12,2 °C 66 % 997,4 hPa 0,0 mm 0,0 km/h (0 Bft) S 189 ° 0 min 0,000 mm 0,0 UV-I 0 W/m² 6,0 °C 12,2 °C 0,0 km/h (0 Bft)
30.04.2018 02:51 12,2 °C 65 % 997,4 hPa 0,0 mm 0,0 km/h (0 Bft) S 189 ° 0 min 0,000 mm 0,0 UV-I 0 W/m² 5,8 °C 12,2 °C 0,0 km/h (0 Bft)
30.04.2018 02:52 12,2 °C 66 % 997,4 hPa 0,0 mm 0,0 km/h (0 Bft) S 189 ° 0 min 0,000 mm 0,0 UV-I 0 W/m² 6,0 °C 12,2 °C 0,0 km/h (0 Bft)
30.04.2018 02:53 12,0 °C 66 % 997,4 hPa 0,0 mm 0,0 km/h (0 Bft) S 189 ° 0 min 0,000 mm 0,0 UV-I 0 W/m² 5,8 °C 12,0 °C 0,0 km/h (0 Bft)
30.04.2018 02:54 11,9 °C 67 % 997,4 hPa 0,0 mm 0,0 km/h (0 Bft) S 189 ° 0 min 0,000 mm 0,0 UV-I 0 W/m² 6,0 °C 11,9 °C 0,0 km/h (0 Bft)
30.04.2018 02:55 11,8 °C 68 % 997,4 hPa 0,0 mm 0,0 km/h (0 Bft) S 189 ° 0 min 0,000 mm 0,0 UV-I 0 W/m² 6,1 °C 11,8 °C 0,0 km/h (0 Bft)
30.04.2018 02:56 11,8 °C 67 % 997,4 hPa 0,0 mm 0,0 km/h (0 Bft) S 189 ° 0 min 0,000 mm 0,0 UV-I 0 W/m² 5,9 °C 11,8 °C 0,0 km/h (0 Bft)
30.04.2018 02:57 11,8 °C 67 % 997,4 hPa 0,0 mm 0,0 km/h (0 Bft) S 189 ° 0 min 0,000 mm 0,0 UV-I 0 W/m² 5,9 °C 11,8 °C 0,0 km/h (0 Bft)
30.04.2018 02:58 11,9 °C 66 % 997,4 hPa 0,0 mm 0,0 km/h (0 Bft) S 189 ° 0 min 0,000 mm 0,0 UV-I 0 W/m² 5,8 °C 11,9 °C 0,0 km/h (0 Bft)
30.04.2018 02:59 11,9 °C 66 % 997,4 hPa 0,0 mm 0,0 km/h (0 Bft) S 189 ° 0 min 0,000 mm 0,0 UV-I 0 W/m² 5,8 °C 11,9 °C 0,0 km/h (0 Bft)
30.04.2018 03:00 11,9 °C 66 % 997,4 hPa 0,0 mm 0,0 km/h (0 Bft) S 189 ° 0 min 0,025 mm 0,0 UV-I 0 W/m² 5,8 °C 11,9 °C 0,0 km/h (0 Bft)
30.04.2018 03:01 12,0 °C 67 % 997,4 hPa 0,0 mm 0,0 km/h (0 Bft) S 189 ° 0 min 0,000 mm 0,0 UV-I 0 W/m² 6,1 °C 12,0 °C 0,0 km/h (0 Bft)
30.04.2018 03:02 12,0 °C 66 % 997,5 hPa 0,0 mm 0,0 km/h (0 Bft) S 189 ° 0 min 0,000 mm 0,0 UV-I 0 W/m² 5,8 °C 12,0 °C 0,0 km/h (0 Bft)
30.04.2018 03:03 11,9 °C 66 % 997,5 hPa 0,0 mm 0,0 km/h (0 Bft) S 189 ° 0 min 0,000 mm 0,0 UV-I 0 W/m² 5,8 °C 11,9 °C 0,0 km/h (0 Bft)
30.04.2018 03:04 11,9 °C 66 % 997,6 hPa 0,0 mm 0,0 km/h (0 Bft) S 189 ° 0 min 0,000 mm 0,0 UV-I 0 W/m² 5,8 °C 11,9 °C 0,0 km/h (0 Bft)
30.04.2018 03:05 12,0 °C 66 % 997,6 hPa 0,0 mm 0,0 km/h (0 Bft) S 189 ° 0 min 0,000 mm 0,0 UV-I 0 W/m² 5,8 °C 12,0 °C 0,0 km/h (0 Bft)
30.04.2018 03:06 12,0 °C 67 % 997,5 hPa 0,0 mm 0,0 km/h (0 Bft) S 189 ° 0 min 0,000 mm 0,0 UV-I 0 W/m² 6,1 °C 12,0 °C 0,0 km/h (0 Bft)
30.04.2018 03:07 12,0 °C 66 % 997,5 hPa 0,0 mm 0,0 km/h (0 Bft) S 189 ° 0 min 0,000 mm 0,0 UV-I 0 W/m² 5,8 °C 12,0 °C 0,0 km/h (0 Bft)
30.04.2018 03:08 12,1 °C 66 % 997,5 hPa 0,0 mm 0,0 km/h (0 Bft) S 189 ° 0 min 0,000 mm 0,0 UV-I 0 W/m² 5,9 °C 12,1 °C 0,0 km/h (0 Bft)
30.04.2018 03:09 12,1 °C 66 % 997,4 hPa 0,0 mm 0,0 km/h (0 Bft) S 189 ° 0 min 0,000 mm 0,0 UV-I 0 W/m² 5,9 °C 12,1 °C 0,0 km/h (0 Bft)
30.04.2018 03:10 12,2 °C 66 % 997,4 hPa 0,0 mm 0,0 km/h (0 Bft) S 189 ° 0 min 0,000 mm 0,0 UV-I 0 W/m² 6,0 °C 12,2 °C 0,0 km/h (0 Bft)
30.04.2018 03:11 12,2 °C 66 % 997,4 hPa 0,0 mm 0,0 km/h (0 Bft) S 189 ° 0 min 0,000 mm 0,0 UV-I 0 W/m² 6,0 °C 12,2 °C 0,0 km/h (0 Bft)
30.04.2018 03:12 12,2 °C 65 % 997,4 hPa 0,0 mm 0,0 km/h (0 Bft) S 189 ° 0 min 0,000 mm 0,0 UV-I 0 W/m² 5,8 °C 12,2 °C 0,0 km/h (0 Bft)
30.04.2018 03:13 12,2 °C 65 % 997,4 hPa 0,0 mm 0,0 km/h (0 Bft) S 189 ° 0 min 0,000 mm 0,0 UV-I 0 W/m² 5,8 °C 12,2 °C 0,0 km/h (0 Bft)
30.04.2018 03:14 12,2 °C 65 % 997,4 hPa 0,0 mm 0,0 km/h (0 Bft) S 189 ° 0 min 0,000 mm 0,0 UV-I 0 W/m² 5,8 °C 12,2 °C 0,0 km/h (0 Bft)
30.04.2018 03:15 12,2 °C 65 % 997,4 hPa 0,0 mm 0,0 km/h (0 Bft) S 189 ° 0 min 0,000 mm 0,0 UV-I 0 W/m² 5,8 °C 12,2 °C 0,0 km/h (0 Bft)
30.04.2018 03:16 12,2 °C 65 % 997,4 hPa 0,0 mm 0,0 km/h (0 Bft) S 189 ° 0 min 0,000 mm 0,0 UV-I 0 W/m² 5,8 °C 12,2 °C 0,0 km/h (0 Bft)
30.04.2018 03:17 12,3 °C 65 % 997,3 hPa 0,0 mm 0,0 km/h (0 Bft) S 189 ° 0 min 0,000 mm 0,0 UV-I 0 W/m² 5,9 °C 12,3 °C 0,0 km/h (0 Bft)
30.04.2018 03:18 12,3 °C 65 % 997,3 hPa 0,0 mm 0,0 km/h (0 Bft) S 189 ° 0 min 0,000 mm 0,0 UV-I 0 W/m² 5,9 °C 12,3 °C 0,0 km/h (0 Bft)
30.04.2018 03:19 12,3 °C 65 % 997,3 hPa 0,0 mm 0,0 km/h (0 Bft) S 189 ° 0 min 0,000 mm 0,0 UV-I 0 W/m² 5,9 °C 12,3 °C 0,0 km/h (0 Bft)
30.04.2018 03:20 12,3 °C 65 % 997,3 hPa 0,0 mm 0,0 km/h (0 Bft) S 189 ° 0 min 0,000 mm 0,0 UV-I 0 W/m² 5,9 °C 12,3 °C 0,0 km/h (0 Bft)
30.04.2018 03:21 12,3 °C 66 % 997,3 hPa 0,0 mm 0,0 km/h (0 Bft) S 189 ° 0 min 0,000 mm 0,0 UV-I 0 W/m² 6,1 °C 12,3 °C 0,0 km/h (0 Bft)
30.04.2018 03:22 12,2 °C 66 % 997,3 hPa 0,0 mm 0,0 km/h (0 Bft) S 189 ° 0 min 0,000 mm 0,0 UV-I 0 W/m² 6,0 °C 12,2 °C 0,0 km/h (0 Bft)
30.04.2018 03:23 12,1 °C 67 % 997,3 hPa 0,0 mm 0,0 km/h (0 Bft) S 189 ° 0 min 0,000 mm 0,0 UV-I 0 W/m² 6,2 °C 12,1 °C 0,0 km/h (0 Bft)
30.04.2018 03:24 12,1 °C 66 % 997,3 hPa 0,0 mm 0,0 km/h (0 Bft) S 189 ° 0 min 0,000 mm 0,0 UV-I 0 W/m² 5,9 °C 12,1 °C 0,0 km/h (0 Bft)
30.04.2018 03:25 12,2 °C 66 % 997,2 hPa 0,0 mm 0,0 km/h (0 Bft) S 189 ° 0 min 0,000 mm 0,0 UV-I 0 W/m² 6,0 °C 12,2 °C 0,0 km/h (0 Bft)
30.04.2018 03:26 12,2 °C 66 % 997,2 hPa 0,0 mm 0,0 km/h (0 Bft) S 189 ° 0 min 0,000 mm 0,0 UV-I 0 W/m² 6,0 °C 12,2 °C 0,0 km/h (0 Bft)
30.04.2018 03:27 12,3 °C 66 % 997,3 hPa 0,0 mm 0,0 km/h (0 Bft) S 189 ° 0 min 0,000 mm 0,0 UV-I 0 W/m² 6,1 °C 12,3 °C 0,0 km/h (0 Bft)
30.04.2018 03:28 12,3 °C 65 % 997,3 hPa 0,0 mm 0,0 km/h (0 Bft) S 189 ° 0 min 0,000 mm 0,0 UV-I 0 W/m² 5,9 °C 12,3 °C 0,0 km/h (0 Bft)
30.04.2018 03:29 12,4 °C 66 % 997,3 hPa 0,0 mm 0,0 km/h (0 Bft) S 189 ° 0 min 0,000 mm 0,0 UV-I 0 W/m² 6,2 °C 12,4 °C 0,0 km/h (0 Bft)
30.04.2018 03:30 12,5 °C 65 % 997,3 hPa 0,0 mm 0,0 km/h (0 Bft) S 189 ° 0 min 0,000 mm 0,0 UV-I 0 W/m² 6,1 °C 12,5 °C 0,0 km/h (0 Bft)
30.04.2018 03:31 12,6 °C 65 % 997,4 hPa 0,0 mm 0,0 km/h (0 Bft) S 189 ° 0 min 0,000 mm 0,0 UV-I 0 W/m² 6,2 °C 12,6 °C 0,0 km/h (0 Bft)
30.04.2018 03:32 12,6 °C 65 % 997,3 hPa 0,0 mm 0,0 km/h (0 Bft) S 189 ° 0 min 0,000 mm 0,0 UV-I 0 W/m² 6,2 °C 12,6 °C 0,0 km/h (0 Bft)
30.04.2018 03:33 12,7 °C 66 % 997,4 hPa 0,0 mm 0,0 km/h (0 Bft) S 189 ° 0 min 0,000 mm 0,0 UV-I 0 W/m² 6,5 °C 12,7 °C 0,0 km/h (0 Bft)
30.04.2018 03:34 12,7 °C 65 % 997,3 hPa 0,0 mm 0,0 km/h (0 Bft) S 189 ° 0 min 0,000 mm 0,0 UV-I 0 W/m² 6,3 °C 12,7 °C 0,0 km/h (0 Bft)
30.04.2018 03:35 12,7 °C 65 % 997,3 hPa 0,0 mm 0,0 km/h (0 Bft) S 189 ° 0 min 0,000 mm 0,0 UV-I 0 W/m² 6,3 °C 12,7 °C 0,0 km/h (0 Bft)
30.04.2018 03:36 12,7 °C 65 % 997,3 hPa 0,0 mm 0,0 km/h (0 Bft) S 189 ° 0 min 0,000 mm 0,0 UV-I 0 W/m² 6,3 °C 12,7 °C 0,0 km/h (0 Bft)
30.04.2018 03:37 12,7 °C 66 % 997,3 hPa 0,0 mm 0,0 km/h (0 Bft) S 189 ° 0 min 0,000 mm 0,0 UV-I 0 W/m² 6,5 °C 12,7 °C 0,0 km/h (0 Bft)
30.04.2018 03:38 12,7 °C 66 % 997,3 hPa 0,0 mm 0,0 km/h (0 Bft) S 189 ° 0 min 0,000 mm 0,0 UV-I 0 W/m² 6,5 °C 12,7 °C 0,0 km/h (0 Bft)
30.04.2018 03:39 12,7 °C 66 % 997,3 hPa 0,0 mm 0,0 km/h (0 Bft) S 189 ° 0 min 0,000 mm 0,0 UV-I 0 W/m² 6,5 °C 12,7 °C 0,0 km/h (0 Bft)
30.04.2018 03:40 12,7 °C 66 % 997,3 hPa 0,0 mm 0,3 km/h (0 Bft) S 189 ° 0 min 0,000 mm 0,0 UV-I 0 W/m² 6,5 °C 12,7 °C 1,6 km/h (1 Bft)
30.04.2018 03:41 12,7 °C 65 % 997,2 hPa 0,0 mm 0,0 km/h (0 Bft) S 189 ° 0 min 0,000 mm 0,0 UV-I 0 W/m² 6,3 °C 12,7 °C 0,0 km/h (0 Bft)
30.04.2018 03:42 12,7 °C 64 % 997,2 hPa 0,0 mm 0,0 km/h (0 Bft) S 189 ° 0 min 0,000 mm 0,0 UV-I 0 W/m² 6,1 °C 12,7 °C 0,0 km/h (0 Bft)
30.04.2018 03:43 12,7 °C 64 % 997,1 hPa 0,0 mm 0,0 km/h (0 Bft) S 189 ° 0 min 0,000 mm 0,0 UV-I 0 W/m² 6,1 °C 12,7 °C 0,0 km/h (0 Bft)
30.04.2018 03:44 12,8 °C 64 % 997,1 hPa 0,0 mm 0,0 km/h (0 Bft) S 189 ° 0 min 0,000 mm 0,0 UV-I 0 W/m² 6,2 °C 12,8 °C 0,0 km/h (0 Bft)
30.04.2018 03:45 12,8 °C 64 % 997,1 hPa 0,0 mm 0,0 km/h (0 Bft) S 189 ° 0 min 0,000 mm 0,0 UV-I 0 W/m² 6,2 °C 12,8 °C 0,0 km/h (0 Bft)
30.04.2018 03:46 12,8 °C 64 % 997,1 hPa 0,0 mm 0,0 km/h (0 Bft) S 189 ° 0 min 0,000 mm 0,0 UV-I 0 W/m² 6,2 °C 12,8 °C 0,0 km/h (0 Bft)
30.04.2018 03:47 12,8 °C 64 % 997,1 hPa 0,0 mm 0,0 km/h (0 Bft) S 189 ° 0 min 0,000 mm 0,0 UV-I 0 W/m² 6,2 °C 12,8 °C 0,0 km/h (0 Bft)
30.04.2018 03:48 12,8 °C 64 % 997,0 hPa 0,0 mm 0,0 km/h (0 Bft) S 189 ° 0 min 0,000 mm 0,0 UV-I 0 W/m² 6,2 °C 12,8 °C 0,0 km/h (0 Bft)
30.04.2018 03:49 12,8 °C 64 % 997,0 hPa 0,0 mm 0,0 km/h (0 Bft) S 189 ° 0 min 0,000 mm 0,0 UV-I 0 W/m² 6,2 °C 12,8 °C 0,0 km/h (0 Bft)
30.04.2018 03:50 12,8 °C 64 % 997,0 hPa 0,0 mm 0,0 km/h (0 Bft) S 189 ° 0 min 0,000 mm 0,0 UV-I 0 W/m² 6,2 °C 12,8 °C 0,0 km/h (0 Bft)
30.04.2018 03:51 12,8 °C 64 % 997,0 hPa 0,0 mm 0,0 km/h (0 Bft) S 189 ° 0 min 0,000 mm 0,0 UV-I 0 W/m² 6,2 °C 12,8 °C 0,0 km/h (0 Bft)
30.04.2018 03:52 12,8 °C 64 % 997,0 hPa 0,0 mm 0,0 km/h (0 Bft) S 189 ° 0 min 0,000 mm 0,0 UV-I 0 W/m² 6,2 °C 12,8 °C 0,0 km/h (0 Bft)
30.04.2018 03:53 12,8 °C 64 % 997,0 hPa 0,0 mm 0,0 km/h (0 Bft) S 189 ° 0 min 0,000 mm 0,0 UV-I 0 W/m² 6,2 °C 12,8 °C 0,0 km/h (0 Bft)
30.04.2018 03:54 12,8 °C 64 % 997,1 hPa 0,0 mm 0,0 km/h (0 Bft) S 189 ° 0 min 0,000 mm 0,0 UV-I 0 W/m² 6,2 °C 12,8 °C 0,0 km/h (0 Bft)
30.04.2018 03:55 12,8 °C 64 % 997,1 hPa 0,0 mm 0,6 km/h (0 Bft) S 189 ° 0 min 0,000 mm 0,0 UV-I 0 W/m² 6,2 °C 12,8 °C 3,2 km/h (1 Bft)
30.04.2018 03:56 12,7 °C 64 % 997,1 hPa 0,0 mm 1,1 km/h (1 Bft) S 189 ° 0 min 0,000 mm 0,0 UV-I 0 W/m² 6,1 °C 12,7 °C 3,2 km/h (1 Bft)
30.04.2018 03:57 12,7 °C 64 % 997,1 hPa 0,0 mm 1,0 km/h (0 Bft) S 189 ° 0 min 0,000 mm 0,0 UV-I 0 W/m² 6,1 °C 12,7 °C 3,2 km/h (1 Bft)
30.04.2018 03:58 12,7 °C 64 % 997,1 hPa 0,0 mm 2,2 km/h (1 Bft) S 189 ° 0 min 0,000 mm 0,0 UV-I 0 W/m² 6,1 °C 12,7 °C 4,8 km/h (1 Bft)
30.04.2018 03:59 12,6 °C 66 % 997,1 hPa 0,0 mm 0,8 km/h (0 Bft) S 189 ° 0 min 0,000 mm 0,0 UV-I 0 W/m² 6,4 °C 12,6 °C 1,6 km/h (1 Bft)
30.04.2018 04:00 12,5 °C 66 % 997,1 hPa 0,0 mm 1,1 km/h (1 Bft) S 189 ° 0 min 0,026 mm 0,0 UV-I 0 W/m² 6,3 °C 12,5 °C 3,2 km/h (1 Bft)
30.04.2018 04:01 12,4 °C 67 % 997,2 hPa 0,0 mm 1,7 km/h (1 Bft) S 189 ° 0 min 0,000 mm 0,0 UV-I 0 W/m² 6,4 °C 12,4 °C 3,2 km/h (1 Bft)
30.04.2018 04:02 12,3 °C 67 % 997,2 hPa 0,0 mm 0,4 km/h (0 Bft) S 189 ° 0 min 0,000 mm 0,0 UV-I 0 W/m² 6,4 °C 12,3 °C 1,6 km/h (1 Bft)
30.04.2018 04:03 12,3 °C 66 % 997,2 hPa 0,0 mm 0,0 km/h (0 Bft) S 189 ° 0 min 0,000 mm 0,0 UV-I 0 W/m² 6,1 °C 12,3 °C 0,0 km/h (0 Bft)
30.04.2018 04:04 12,3 °C 66 % 997,3 hPa 0,0 mm 0,0 km/h (0 Bft) S 189 ° 0 min 0,000 mm 0,0 UV-I 0 W/m² 6,1 °C 12,3 °C 0,0 km/h (0 Bft)
30.04.2018 04:05 12,3 °C 66 % 997,3 hPa 0,0 mm 0,0 km/h (0 Bft) S 189 ° 0 min 0,000 mm 0,0 UV-I 0 W/m² 6,1 °C 12,3 °C 0,0 km/h (0 Bft)
30.04.2018 04:06 12,3 °C 66 % 997,2 hPa 0,0 mm 0,0 km/h (0 Bft) S 189 ° 0 min 0,000 mm 0,0 UV-I 0 W/m² 6,1 °C 12,3 °C 0,0 km/h (0 Bft)
30.04.2018 04:07 12,3 °C 67 % 997,2 hPa 0,0 mm 0,0 km/h (0 Bft) S 189 ° 0 min 0,000 mm 0,0 UV-I 0 W/m² 6,4 °C 12,3 °C 0,0 km/h (0 Bft)
30.04.2018 04:08 12,4 °C 66 % 997,2 hPa 0,0 mm 0,0 km/h (0 Bft) S 189 ° 0 min 0,000 mm 0,0 UV-I 0 W/m² 6,2 °C 12,4 °C 0,0 km/h (0 Bft)
30.04.2018 04:09 12,5 °C 66 % 997,2 hPa 0,0 mm 0,0 km/h (0 Bft) S 189 ° 0 min 0,000 mm 0,0 UV-I 0 W/m² 6,3 °C 12,5 °C 0,0 km/h (0 Bft)
30.04.2018 04:10 12,6 °C 66 % 997,2 hPa 0,0 mm 0,0 km/h (0 Bft) S 189 ° 0 min 0,000 mm 0,0 UV-I 0 W/m² 6,4 °C 12,6 °C 0,0 km/h (0 Bft)
30.04.2018 04:11 12,5 °C 66 % 997,2 hPa 0,0 mm 1,2 km/h (1 Bft) S 189 ° 0 min 0,000 mm 0,0 UV-I 0 W/m² 6,3 °C 12,5 °C 3,2 km/h (1 Bft)
30.04.2018 04:12 12,5 °C 65 % 997,2 hPa 0,0 mm 0,7 km/h (0 Bft) S 189 ° 0 min 0,000 mm 0,0 UV-I 0 W/m² 6,1 °C 12,5 °C 3,2 km/h (1 Bft)
30.04.2018 04:13 12,6 °C 66 % 997,2 hPa 0,0 mm 0,0 km/h (0 Bft) S 189 ° 0 min 0,000 mm 0,0 UV-I 0 W/m² 6,4 °C 12,6 °C 0,0 km/h (0 Bft)
30.04.2018 04:14 12,6 °C 66 % 997,2 hPa 0,0 mm 0,0 km/h (0 Bft) S 189 ° 0 min 0,000 mm 0,0 UV-I 0 W/m² 6,4 °C 12,6 °C 0,0 km/h (0 Bft)
30.04.2018 04:15 12,6 °C 66 % 997,2 hPa 0,0 mm 0,0 km/h (0 Bft) S 189 ° 0 min 0,000 mm 0,0 UV-I 0 W/m² 6,4 °C 12,6 °C 0,0 km/h (0 Bft)
30.04.2018 04:16 12,5 °C 66 % 997,2 hPa 0,0 mm 0,0 km/h (0 Bft) S 189 ° 0 min 0,000 mm 0,0 UV-I 0 W/m² 6,3 °C 12,5 °C 0,0 km/h (0 Bft)
30.04.2018 04:17 12,5 °C 66 % 997,3 hPa 0,0 mm 0,0 km/h (0 Bft) S 189 ° 0 min 0,000 mm 0,0 UV-I 0 W/m² 6,3 °C 12,5 °C 0,0 km/h (0 Bft)
30.04.2018 04:18 12,6 °C 65 % 997,2 hPa 0,0 mm 0,0 km/h (0 Bft) S 189 ° 0 min 0,000 mm 0,0 UV-I 0 W/m² 6,2 °C 12,6 °C 0,0 km/h (0 Bft)
30.04.2018 04:19 12,6 °C 66 % 997,3 hPa 0,0 mm 0,0 km/h (0 Bft) S 189 ° 0 min 0,000 mm 0,0 UV-I 0 W/m² 6,4 °C 12,6 °C 0,0 km/h (0 Bft)
30.04.2018 04:20 12,6 °C 65 % 997,3 hPa 0,0 mm 1,2 km/h (1 Bft) S 189 ° 0 min 0,000 mm 0,0 UV-I 0 W/m² 6,2 °C 12,6 °C 3,2 km/h (1 Bft)
30.04.2018 04:21 12,7 °C 64 % 997,5 hPa 0,0 mm 8,2 km/h (2 Bft) W 275 ° 0 min 0,000 mm 0,0 UV-I 0 W/m² 6,1 °C 12,7 °C 14,5 km/h (3 Bft)
30.04.2018 04:22 12,7 °C 65 % 997,7 hPa 0,0 mm 14,9 km/h (3 Bft) W-NW 294 ° 0 min 0,000 mm 0,0 UV-I 0 W/m² 6,3 °C 12,7 °C 22,5 km/h (4 Bft)
30.04.2018 04:23 12,6 °C 66 % 997,9 hPa 0,0 mm 16,2 km/h (3 Bft) W-NW 299 ° 0 min 0,000 mm 0,0 UV-I 0 W/m² 6,4 °C 12,6 °C 22,5 km/h (4 Bft)
30.04.2018 04:24 12,5 °C 66 % 998,0 hPa 0,0 mm 7,3 km/h (2 Bft) W-NW 295 ° 0 min 0,000 mm 0,0 UV-I 0 W/m² 6,3 °C 12,5 °C 14,5 km/h (3 Bft)
30.04.2018 04:25 12,4 °C 66 % 998,0 hPa 0,0 mm 10,8 km/h (2 Bft) W-NW 290 ° 0 min 0,000 mm 0,0 UV-I 0 W/m² 6,2 °C 12,4 °C 27,4 km/h (4 Bft)
30.04.2018 04:26 12,4 °C 66 % 997,9 hPa 0,0 mm 17,2 km/h (3 Bft) W 259 ° 0 min 0,000 mm 0,0 UV-I 0 W/m² 6,2 °C 12,4 °C 30,6 km/h (5 Bft)
30.04.2018 04:27 12,5 °C 66 % 998,0 hPa 0,0 mm 12,0 km/h (2 Bft) W 273 ° 0 min 0,000 mm 0,0 UV-I 0 W/m² 6,3 °C 12,5 °C 17,7 km/h (3 Bft)
30.04.2018 04:28 12,6 °C 65 % 998,0 hPa 0,0 mm 13,5 km/h (3 Bft) W-SW 254 ° 0 min 0,000 mm 0,0 UV-I 0 W/m² 6,2 °C 12,6 °C 17,7 km/h (3 Bft)
30.04.2018 04:29 12,7 °C 65 % 998,0 hPa 0,0 mm 13,5 km/h (3 Bft) W-NW 285 ° 0 min 0,000 mm 0,0 UV-I 0 W/m² 6,3 °C 12,7 °C 17,7 km/h (3 Bft)
30.04.2018 04:30 12,8 °C 64 % 997,9 hPa 0,0 mm 9,9 km/h (2 Bft) W-NW 298 ° 0 min 0,000 mm 0,0 UV-I 0 W/m² 6,2 °C 12,8 °C 16,1 km/h (3 Bft)
30.04.2018 04:31 12,9 °C 64 % 998,0 hPa 0,0 mm 12,3 km/h (3 Bft) W-NW 296 ° 0 min 0,000 mm 0,0 UV-I 0 W/m² 6,3 °C 12,9 °C 20,9 km/h (4 Bft)
30.04.2018 04:32 13,1 °C 64 % 998,2 hPa 0,0 mm 15,6 km/h (3 Bft) W-NW 293 ° 0 min 0,000 mm 0,0 UV-I 0 W/m² 6,4 °C 13,1 °C 22,5 km/h (4 Bft)
30.04.2018 04:33 13,2 °C 65 % 998,2 hPa 0,0 mm 12,7 km/h (3 Bft) W-NW 287 ° 0 min 0,000 mm 0,0 UV-I 0 W/m² 6,8 °C 13,2 °C 22,5 km/h (4 Bft)
30.04.2018 04:34 13,2 °C 66 % 998,3 hPa 0,0 mm 8,9 km/h (2 Bft) W-SW 257 ° 0 min 0,000 mm 0,0 UV-I 0 W/m² 7,0 °C 13,2 °C 16,1 km/h (3 Bft)
30.04.2018 04:35 13,2 °C 66 % 998,3 hPa 0,0 mm 16,0 km/h (3 Bft) W 261 ° 0 min 0,000 mm 0,0 UV-I 0 W/m² 7,0 °C 13,2 °C 22,5 km/h (4 Bft)
30.04.2018 04:36 13,2 °C 66 % 998,4 hPa 0,0 mm 19,2 km/h (3 Bft) W 271 ° 0 min 0,000 mm 0,0 UV-I 0 W/m² 7,0 °C 13,2 °C 29,0 km/h (5 Bft)
30.04.2018 04:37 13,2 °C 67 % 998,5 hPa 0,0 mm 22,3 km/h (4 Bft) W 269 ° 0 min 0,000 mm 0,0 UV-I 0 W/m² 7,2 °C 13,2 °C 45,1 km/h (6 Bft)
30.04.2018 04:38 13,2 °C 69 % 998,4 hPa 0,0 mm 23,9 km/h (4 Bft) W 274 ° 0 min 0,000 mm 0,0 UV-I 0 W/m² 7,6 °C 13,2 °C 38,6 km/h (5 Bft)
30.04.2018 04:39 13,1 °C 69 % 998,5 hPa 0,0 mm 22,1 km/h (4 Bft) W 267 ° 0 min 0,000 mm 0,0 UV-I 0 W/m² 7,5 °C 13,1 °C 30,6 km/h (5 Bft)
30.04.2018 04:40 13,1 °C 71 % 998,5 hPa 0,0 mm 27,0 km/h (4 Bft) W 267 ° 0 min 0,000 mm 0,0 UV-I 0 W/m² 8,0 °C 13,1 °C 41,8 km/h (6 Bft)
30.04.2018 04:41 13,0 °C 71 % 998,5 hPa 0,0 mm 23,6 km/h (4 Bft) W-SW 256 ° 0 min 0,000 mm 0,0 UV-I 0 W/m² 7,9 °C 13,0 °C 32,2 km/h (5 Bft)
30.04.2018 04:42 12,9 °C 72 % 998,5 hPa 0,0 mm 24,0 km/h (4 Bft) W 279 ° 0 min 0,000 mm 0,0 UV-I 0 W/m² 8,0 °C 12,9 °C 37,0 km/h (5 Bft)
30.04.2018 04:43 12,9 °C 72 % 998,4 hPa 0,0 mm 19,6 km/h (3 Bft) SW 233 ° 0 min 0,000 mm 0,0 UV-I 0 W/m² 8,0 °C 12,9 °C 30,6 km/h (5 Bft)
30.04.2018 04:44 12,8 °C 72 % 998,5 hPa 0,0 mm 25,6 km/h (4 Bft) W 269 ° 0 min 0,000 mm 0,0 UV-I 0 W/m² 7,9 °C 12,8 °C 40,2 km/h (6 Bft)
30.04.2018 04:45 12,7 °C 73 % 998,5 hPa 0,0 mm 22,7 km/h (4 Bft) W 259 ° 0 min 0,000 mm 0,0 UV-I 0 W/m² 8,0 °C 12,7 °C 38,6 km/h (5 Bft)
30.04.2018 04:46 12,6 °C 74 % 998,3 hPa 0,0 mm 24,8 km/h (4 Bft) W 267 ° 0 min 0,000 mm 0,0 UV-I 0 W/m² 8,1 °C 12,6 °C 33,8 km/h (5 Bft)
30.04.2018 04:47 12,6 °C 74 % 998,5 hPa 0,0 mm 22,5 km/h (4 Bft) W-SW 250 ° 0 min 0,000 mm 0,0 UV-I 0 W/m² 8,1 °C 12,6 °C 30,6 km/h (5 Bft)
30.04.2018 04:48 12,5 °C 75 % 998,5 hPa 0,0 mm 20,6 km/h (4 Bft) W-NW 282 ° 0 min 0,000 mm 0,0 UV-I 0 W/m² 8,2 °C 12,5 °C 32,2 km/h (5 Bft)
30.04.2018 04:49 12,4 °C 75 % 998,5 hPa 0,0 mm 19,6 km/h (3 Bft) W 278 ° 0 min 0,000 mm 0,0 UV-I 0 W/m² 8,1 °C 12,4 °C 25,7 km/h (4 Bft)
30.04.2018 04:50 12,4 °C 75 % 998,6 hPa 0,0 mm 22,5 km/h (4 Bft) W 268 ° 0 min 0,000 mm 0,0 UV-I 0 W/m² 8,1 °C 12,4 °C 40,2 km/h (6 Bft)
30.04.2018 04:51 12,3 °C 76 % 998,6 hPa 0,0 mm 20,7 km/h (4 Bft) W-SW 255 ° 0 min 0,000 mm 0,0 UV-I 0 W/m² 8,2 °C 12,3 °C 33,8 km/h (5 Bft)
30.04.2018 04:52 12,3 °C 76 % 998,7 hPa 0,0 mm 17,2 km/h (3 Bft) W-NW 297 ° 0 min 0,000 mm 0,0 UV-I 0 W/m² 8,2 °C 12,3 °C 30,6 km/h (5 Bft)
30.04.2018 04:53 12,3 °C 76 % 998,7 hPa 0,0 mm 16,5 km/h (3 Bft) W 279 ° 0 min 0,000 mm 0,0 UV-I 0 W/m² 8,2 °C 12,3 °C 24,1 km/h (4 Bft)
30.04.2018 04:54 12,2 °C 76 % 998,8 hPa 0,0 mm 17,7 km/h (3 Bft) W-NW 292 ° 0 min 0,000 mm 0,0 UV-I 0 W/m² 8,1 °C 12,2 °C 32,2 km/h (5 Bft)
30.04.2018 04:55 12,2 °C 77 % 998,8 hPa 0,0 mm 13,1 km/h (3 Bft) W-NW 288 ° 0 min 0,000 mm 0,0 UV-I 0 W/m² 8,3 °C 12,2 °C 24,1 km/h (4 Bft)
30.04.2018 04:56 12,2 °C 77 % 998,8 hPa 0,0 mm 22,9 km/h (4 Bft) W-NW 303 ° 0 min 0,000 mm 0,0 UV-I 0 W/m² 8,3 °C 12,2 °C 33,8 km/h (5 Bft)
30.04.2018 04:57 12,1 °C 77 % 999,0 hPa 0,0 mm 19,7 km/h (3 Bft) W 273 ° 0 min 0,000 mm 0,0 UV-I 0 W/m² 8,2 °C 12,1 °C 32,2 km/h (5 Bft)
30.04.2018 04:58 12,1 °C 77 % 998,9 hPa 0,0 mm 20,9 km/h (4 Bft) W 269 ° 0 min 0,000 mm 0,0 UV-I 0 W/m² 8,2 °C 12,1 °C 32,2 km/h (5 Bft)
30.04.2018 04:59 11,9 °C 78 % 999,0 hPa 0,0 mm 27,4 km/h (4 Bft) W-NW 291 ° 0 min 0,000 mm 0,0 UV-I 0 W/m² 8,2 °C 11,9 °C 43,5 km/h (6 Bft)
30.04.2018 05:00 11,9 °C 78 % 999,1 hPa 0,0 mm 20,6 km/h (4 Bft) W 271 ° 0 min 0,000 mm 0,0 UV-I 0 W/m² 8,2 °C 11,9 °C 27,4 km/h (4 Bft)
30.04.2018 05:01 11,9 °C 78 % 999,1 hPa 0,0 mm 23,8 km/h (4 Bft) W-NW 296 ° 0 min 0,050 mm 0,0 UV-I 0 W/m² 8,2 °C 11,9 °C 33,8 km/h (5 Bft)
30.04.2018 05:02 11,9 °C 78 % 999,1 hPa 0,0 mm 17,9 km/h (3 Bft) W 267 ° 0 min 0,000 mm 0,0 UV-I 0 W/m² 8,2 °C 11,9 °C 25,7 km/h (4 Bft)
30.04.2018 05:03 11,9 °C 78 % 999,3 hPa 0,0 mm 19,6 km/h (3 Bft) NW 309 ° 0 min 0,000 mm 0,0 UV-I 0 W/m² 8,2 °C 11,9 °C 27,4 km/h (4 Bft)
30.04.2018 05:04 11,8 °C 78 % 999,3 hPa 0,0 mm 12,6 km/h (3 Bft) W-SW 240 ° 0 min 0,000 mm 0,0 UV-I 0 W/m² 8,1 °C 11,8 °C 22,5 km/h (4 Bft)
30.04.2018 05:05 11,8 °C 78 % 999,3 hPa 0,0 mm 16,8 km/h (3 Bft) W 263 ° 0 min 0,000 mm 0,0 UV-I 0 W/m² 8,1 °C 11,8 °C 27,4 km/h (4 Bft)
30.04.2018 05:06 11,8 °C 78 % 999,4 hPa 0,0 mm 11,0 km/h (2 Bft) NW 306 ° 0 min 0,000 mm 0,0 UV-I 0 W/m² 8,1 °C 11,8 °C 22,5 km/h (4 Bft)
30.04.2018 05:07 11,7 °C 78 % 999,5 hPa 0,0 mm 20,4 km/h (4 Bft) W-SW 250 ° 0 min 0,000 mm 0,0 UV-I 0 W/m² 8,0 °C 11,7 °C 30,6 km/h (5 Bft)
30.04.2018 05:08 11,7 °C 78 % 999,4 hPa 0,0 mm 18,6 km/h (3 Bft) S 182 ° 0 min 0,000 mm 0,0 UV-I 0 W/m² 8,0 °C 11,7 °C 27,4 km/h (4 Bft)
30.04.2018 05:09 11,6 °C 78 % 999,6 hPa 0,0 mm 15,3 km/h (3 Bft) W-NW 286 ° 0 min 0,000 mm 0,0 UV-I 0 W/m² 7,9 °C 11,6 °C 30,6 km/h (5 Bft)
30.04.2018 05:10 11,6 °C 78 % 999,5 hPa 0,0 mm 21,3 km/h (4 Bft) W 266 ° 0 min 0,000 mm 0,0 UV-I 0 W/m² 7,9 °C 11,6 °C 33,8 km/h (5 Bft)
30.04.2018 05:11 11,5 °C 77 % 999,6 hPa 0,0 mm 18,2 km/h (3 Bft) W 274 ° 0 min 0,000 mm 0,0 UV-I 0 W/m² 7,6 °C 11,5 °C 37,0 km/h (5 Bft)
30.04.2018 05:12 11,4 °C 77 % 999,7 hPa 0,0 mm 20,4 km/h (4 Bft) W 273 ° 0 min 0,000 mm 0,0 UV-I 0 W/m² 7,5 °C 11,4 °C 29,0 km/h (5 Bft)
30.04.2018 05:13 11,4 °C 77 % 999,7 hPa 0,0 mm 15,7 km/h (3 Bft) W-NW 303 ° 0 min 0,000 mm 0,0 UV-I 0 W/m² 7,5 °C 11,4 °C 29,0 km/h (5 Bft)
30.04.2018 05:14 11,3 °C 77 % 999,8 hPa 0,0 mm 10,1 km/h (2 Bft) W-NW 283 ° 0 min 0,000 mm 0,0 UV-I 0 W/m² 7,4 °C 11,3 °C 14,5 km/h (3 Bft)
30.04.2018 05:15 11,3 °C 77 % 999,9 hPa 0,0 mm 8,3 km/h (2 Bft) W-NW 299 ° 0 min 0,000 mm 0,0 UV-I 0 W/m² 7,4 °C 11,3 °C 12,9 km/h (3 Bft)
30.04.2018 05:16 11,2 °C 77 % 1000,0 hPa 0,0 mm 10,2 km/h (2 Bft) N-NW 334 ° 0 min 0,000 mm 0,0 UV-I 0 W/m² 7,3 °C 11,2 °C 19,3 km/h (3 Bft)
30.04.2018 05:17 11,1 °C 78 % 1000,0 hPa 0,0 mm 16,1 km/h (3 Bft) W 266 ° 0 min 0,000 mm 0,0 UV-I 0 W/m² 7,4 °C 11,1 °C 29,0 km/h (5 Bft)
30.04.2018 05:18 11,1 °C 78 % 1000,0 hPa 0,0 mm 14,4 km/h (3 Bft) W 275 ° 0 min 0,000 mm 0,0 UV-I 0 W/m² 7,4 °C 11,1 °C 24,1 km/h (4 Bft)
30.04.2018 05:19 11,0 °C 78 % 1000,0 hPa 0,0 mm 17,0 km/h (3 Bft) N 355 ° 0 min 0,000 mm 0,0 UV-I 0 W/m² 7,3 °C 11,0 °C 30,6 km/h (5 Bft)
30.04.2018 05:20 10,9 °C 78 % 1000,0 hPa 0,0 mm 19,6 km/h (3 Bft) W 273 ° 0 min 0,000 mm 0,0 UV-I 0 W/m² 7,2 °C 10,9 °C 35,4 km/h (5 Bft)
30.04.2018 05:21 10,9 °C 77 % 1000,0 hPa 0,0 mm 14,3 km/h (3 Bft) W-NW 282 ° 0 min 0,000 mm 0,0 UV-I 0 W/m² 7,0 °C 10,9 °C 25,7 km/h (4 Bft)
30.04.2018 05:22 10,9 °C 77 % 1000,1 hPa 0,0 mm 17,2 km/h (3 Bft) W 275 ° 0 min 0,000 mm 0,0 UV-I 0 W/m² 7,0 °C 10,9 °C 30,6 km/h (5 Bft)
30.04.2018 05:23 10,8 °C 77 % 1000,1 hPa 0,0 mm 13,4 km/h (3 Bft) W-NW 302 ° 0 min 0,000 mm 0,0 UV-I 0 W/m² 6,9 °C 10,8 °C 19,3 km/h (3 Bft)
30.04.2018 05:24 10,8 °C 77 % 1000,2 hPa 0,0 mm 16,3 km/h (3 Bft) W 267 ° 0 min 0,000 mm 0,0 UV-I 0 W/m² 6,9 °C 10,8 °C 40,2 km/h (6 Bft)
30.04.2018 05:25 10,7 °C 77 % 1000,1 hPa 0,0 mm 20,3 km/h (4 Bft) W 270 ° 0 min 0,000 mm 0,0 UV-I 0 W/m² 6,8 °C 10,7 °C 38,6 km/h (5 Bft)
30.04.2018 05:26 10,7 °C 77 % 1000,2 hPa 0,0 mm 12,4 km/h (3 Bft) W 275 ° 0 min 0,000 mm 0,0 UV-I 0 W/m² 6,8 °C 10,7 °C 20,9 km/h (4 Bft)
30.04.2018 05:27 10,6 °C 76 % 1000,3 hPa 0,0 mm 13,9 km/h (3 Bft) W 259 ° 0 min 0,000 mm 0,0 UV-I 0 W/m² 6,5 °C 10,6 °C 19,3 km/h (3 Bft)
30.04.2018 05:28 10,5 °C 76 % 1000,3 hPa 0,0 mm 17,0 km/h (3 Bft) W 273 ° 0 min 0,000 mm 0,0 UV-I 0 W/m² 6,5 °C 10,5 °C 20,9 km/h (4 Bft)
30.04.2018 05:29 10,4 °C 76 % 1000,5 hPa 0,0 mm 24,1 km/h (4 Bft) W-NW 288 ° 0 min 0,000 mm 0,0 UV-I 0 W/m² 6,4 °C 10,4 °C 33,8 km/h (5 Bft)
30.04.2018 05:30 10,4 °C 75 % 1000,3 hPa 0,0 mm 16,6 km/h (3 Bft) W-NW 302 ° 0 min 0,000 mm 0,0 UV-I 0 W/m² 6,2 °C 10,4 °C 24,1 km/h (4 Bft)
30.04.2018 05:31 10,3 °C 75 % 1000,3 hPa 0,0 mm 13,6 km/h (3 Bft) W-SW 257 ° 0 min 0,000 mm 0,0 UV-I 0 W/m² 6,1 °C 10,3 °C 20,9 km/h (4 Bft)
30.04.2018 05:32 10,3 °C 75 % 1000,3 hPa 0,0 mm 18,6 km/h (3 Bft) W-SW 244 ° 0 min 0,000 mm 0,0 UV-I 0 W/m² 6,1 °C 10,3 °C 30,6 km/h (5 Bft)
30.04.2018 05:33 10,2 °C 74 % 1000,4 hPa 0,0 mm 26,0 km/h (4 Bft) W 277 ° 0 min 0,000 mm 0,0 UV-I 0 W/m² 5,8 °C 10,2 °C 35,4 km/h (5 Bft)
30.04.2018 05:34 10,2 °C 74 % 1000,3 hPa 0,0 mm 20,2 km/h (4 Bft) W-SW 244 ° 0 min 0,000 mm 0,0 UV-I 0 W/m² 5,8 °C 10,2 °C 27,4 km/h (4 Bft)
30.04.2018 05:35 10,1 °C 75 % 1000,4 hPa 0,0 mm 9,1 km/h (2 Bft) W 271 ° 0 min 0,000 mm 0,0 UV-I 0 W/m² 5,9 °C 10,1 °C 20,9 km/h (4 Bft)
30.04.2018 05:36 10,0 °C 75 % 1000,4 hPa 0,0 mm 16,0 km/h (3 Bft) W-NW 298 ° 0 min 0,000 mm 0,0 UV-I 0 W/m² 5,8 °C 7,8 °C 24,1 km/h (4 Bft)
30.04.2018 05:37 9,9 °C 75 % 1000,5 hPa 0,0 mm 16,4 km/h (3 Bft) W 267 ° 0 min 0,000 mm 0,0 UV-I 0 W/m² 5,7 °C 7,6 °C 27,4 km/h (4 Bft)
30.04.2018 05:38 9,9 °C 75 % 1000,5 hPa 0,0 mm 23,5 km/h (4 Bft) W 263 ° 0 min 0,000 mm 0,0 UV-I 0 W/m² 5,7 °C 6,9 °C 37,0 km/h (5 Bft)
30.04.2018 05:39 9,8 °C 75 % 1000,6 hPa 0,0 mm 12,4 km/h (3 Bft) W-SW 248 ° 0 min 0,000 mm 0,0 UV-I 0 W/m² 5,6 °C 8,0 °C 20,9 km/h (4 Bft)
30.04.2018 05:40 9,8 °C 75 % 1000,6 hPa 0,0 mm 16,4 km/h (3 Bft) W 259 ° 0 min 0,000 mm 0,0 UV-I 0 W/m² 5,6 °C 7,5 °C 30,6 km/h (5 Bft)
30.04.2018 05:41 9,7 °C 74 % 1000,7 hPa 0,0 mm 23,4 km/h (4 Bft) W-SW 244 ° 0 min 0,000 mm 0,0 UV-I 0 W/m² 5,3 °C 6,7 °C 40,2 km/h (6 Bft)
30.04.2018 05:42 9,7 °C 74 % 1000,7 hPa 0,0 mm 22,0 km/h (4 Bft) NW 306 ° 0 min 0,000 mm 0,0 UV-I 0 W/m² 5,3 °C 6,8 °C 33,8 km/h (5 Bft)
30.04.2018 05:43 9,7 °C 74 % 1000,7 hPa 0,0 mm 21,8 km/h (4 Bft) W-SW 253 ° 0 min 0,000 mm 0,0 UV-I 0 W/m² 5,3 °C 6,8 °C 35,4 km/h (5 Bft)
30.04.2018 05:44 9,7 °C 74 % 1000,7 hPa 0,0 mm 19,4 km/h (3 Bft) W-NW 285 ° 0 min 0,000 mm 0,0 UV-I 0 W/m² 5,3 °C 7,1 °C 32,2 km/h (5 Bft)
30.04.2018 05:45 9,6 °C 74 % 1000,8 hPa 0,0 mm 20,5 km/h (4 Bft) W 277 ° 0 min 0,000 mm 0,0 UV-I 0 W/m² 5,2 °C 6,8 °C 22,5 km/h (4 Bft)
30.04.2018 05:46 9,6 °C 74 % 1000,8 hPa 0,0 mm 19,0 km/h (3 Bft) W-NW 287 ° 0 min 0,000 mm 0,0 UV-I 0 W/m² 5,2 °C 7,0 °C 22,5 km/h (4 Bft)
30.04.2018 05:47 9,6 °C 74 % 1000,8 hPa 0,0 mm 19,6 km/h (3 Bft) S-SW 207 ° 0 min 0,000 mm 0,0 UV-I 0 W/m² 5,2 °C 6,9 °C 32,2 km/h (5 Bft)
30.04.2018 05:48 9,5 °C 74 % 1000,7 hPa 0,0 mm 17,9 km/h (3 Bft) W 266 ° 0 min 0,000 mm 0,0 UV-I 0 W/m² 5,1 °C 7,0 °C 27,4 km/h (4 Bft)
30.04.2018 05:49 9,4 °C 73 % 1000,9 hPa 0,0 mm 22,9 km/h (4 Bft) W-NW 287 ° 0 min 0,000 mm 0,0 UV-I 0 W/m² 4,8 °C 6,3 °C 35,4 km/h (5 Bft)
30.04.2018 05:50 9,4 °C 73 % 1000,9 hPa 0,0 mm 20,1 km/h (4 Bft) W-SW 249 ° 0 min 0,000 mm 0,0 UV-I 0 W/m² 4,8 °C 6,6 °C 27,4 km/h (4 Bft)
30.04.2018 05:51 9,4 °C 73 % 1001,0 hPa 0,0 mm 20,4 km/h (4 Bft) W-NW 300 ° 0 min 0,000 mm 0,0 UV-I 0 W/m² 4,8 °C 6,6 °C 33,8 km/h (5 Bft)
30.04.2018 05:52 9,4 °C 73 % 1001,0 hPa 0,0 mm 22,2 km/h (4 Bft) W 270 ° 0 min 0,000 mm 0,0 UV-I 0 W/m² 4,8 °C 6,4 °C 30,6 km/h (5 Bft)
30.04.2018 05:53 9,3 °C 74 % 1001,0 hPa 0,0 mm 21,6 km/h (4 Bft) W-NW 302 ° 0 min 0,000 mm 0,0 UV-I 0 W/m² 4,9 °C 6,3 °C 33,8 km/h (5 Bft)
30.04.2018 05:54 9,3 °C 74 % 1001,0 hPa 0,0 mm 23,6 km/h (4 Bft) W 281 ° 0 min 0,000 mm 0,0 UV-I 0 W/m² 4,9 °C 6,2 °C 33,8 km/h (5 Bft)
30.04.2018 05:55 9,3 °C 74 % 1001,0 hPa 0,0 mm 12,8 km/h (3 Bft) W 269 ° 0 min 0,000 mm 0,0 UV-I 0 W/m² 4,9 °C 7,3 °C 22,5 km/h (4 Bft)
30.04.2018 05:56 9,3 °C 74 % 1001,1 hPa 0,0 mm 17,3 km/h (3 Bft) W-NW 286 ° 0 min 0,000 mm 0,0 UV-I 0 W/m² 4,9 °C 6,8 °C 27,4 km/h (4 Bft)
30.04.2018 05:57 9,2 °C 74 % 1001,0 hPa 0,0 mm 22,0 km/h (4 Bft) W-SW 258 ° 0 min 0,000 mm 0,0 UV-I 0 W/m² 4,8 °C 6,2 °C 30,6 km/h (5 Bft)
30.04.2018 05:58 9,2 °C 74 % 1001,3 hPa 0,0 mm 13,6 km/h (3 Bft) SW 234 ° 0 min 0,000 mm 0,0 UV-I 0 W/m² 4,8 °C 7,1 °C 20,9 km/h (4 Bft)
30.04.2018 05:59 9,2 °C 74 % 1001,3 hPa 0,0 mm 7,0 km/h (2 Bft) W-SW 256 ° 0 min 0,000 mm 0,0 UV-I 0 W/m² 4,8 °C 8,3 °C 16,1 km/h (3 Bft)
30.04.2018 06:00 9,1 °C 75 % 1001,3 hPa 0,0 mm 25,1 km/h (4 Bft) W-SW 254 ° 0 min 0,000 mm 0,0 UV-I 0 W/m² 4,9 °C 5,8 °C 37,0 km/h (5 Bft)
30.04.2018 06:01 9,1 °C 75 % 1001,2 hPa 0,0 mm 18,3 km/h (3 Bft) W-NW 293 ° 0 min 0,051 mm 0,0 UV-I 0 W/m² 4,9 °C 6,4 °C 27,4 km/h (4 Bft)
30.04.2018 06:02 9,1 °C 75 % 1001,3 hPa 0,0 mm 17,2 km/h (3 Bft) W 267 ° 0 min 0,000 mm 0,0 UV-I 0 W/m² 4,9 °C 6,5 °C 25,7 km/h (4 Bft)
30.04.2018 06:03 9,0 °C 75 % 1001,4 hPa 0,0 mm 15,1 km/h (3 Bft) W 281 ° 0 min 0,000 mm 0,0 UV-I 0 W/m² 4,8 °C 6,7 °C 27,4 km/h (4 Bft)
30.04.2018 06:04 8,9 °C 75 % 1001,3 hPa 0,0 mm 11,5 km/h (2 Bft) W 261 ° 0 min 0,000 mm 0,0 UV-I 0 W/m² 4,7 °C 7,1 °C 17,7 km/h (3 Bft)
30.04.2018 06:05 8,8 °C 75 % 1001,4 hPa 0,0 mm 17,8 km/h (3 Bft) W 281 ° 0 min 0,000 mm 0,0 UV-I 0 W/m² 4,6 °C 6,1 °C 33,8 km/h (5 Bft)
30.04.2018 06:06 8,8 °C 75 % 1001,5 hPa 0,0 mm 21,8 km/h (4 Bft) W 263 ° 0 min 0,000 mm 0,0 UV-I 0 W/m² 4,6 °C 5,7 °C 30,6 km/h (5 Bft)
30.04.2018 06:07 8,8 °C 75 % 1001,5 hPa 0,0 mm 17,1 km/h (3 Bft) W-SW 258 ° 0 min 0,000 mm 0,0 UV-I 0 W/m² 4,6 °C 6,2 °C 25,7 km/h (4 Bft)
30.04.2018 06:08 8,8 °C 76 % 1001,5 hPa 0,0 mm 20,1 km/h (4 Bft) W-NW 294 ° 0 min 0,000 mm 0,0 UV-I 0 W/m² 4,8 °C 5,9 °C 29,0 km/h (5 Bft)
30.04.2018 06:09 8,7 °C 75 % 1001,6 hPa 0,0 mm 18,6 km/h (3 Bft) NW 305 ° 0 min 0,000 mm 0,0 UV-I 0 W/m² 4,5 °C 5,9 °C 30,6 km/h (5 Bft)
30.04.2018 06:10 8,7 °C 76 % 1001,7 hPa 0,0 mm 21,7 km/h (4 Bft) W 275 ° 0 min 0,000 mm 0,0 UV-I 0 W/m² 4,7 °C 5,6 °C 37,0 km/h (5 Bft)
30.04.2018 06:11 8,7 °C 75 % 1001,6 hPa 0,0 mm 11,9 km/h (2 Bft) NW 313 ° 0 min 0,000 mm 0,0 UV-I 0 W/m² 4,5 °C 6,8 °C 22,5 km/h (4 Bft)
30.04.2018 06:12 8,6 °C 76 % 1001,7 hPa 0,0 mm 16,0 km/h (3 Bft) W 273 ° 0 min 0,000 mm 0,0 UV-I 0 W/m² 4,6 °C 6,1 °C 25,7 km/h (4 Bft)
30.04.2018 06:13 8,6 °C 75 % 1001,7 hPa 0,0 mm 11,3 km/h (2 Bft) W 269 ° 0 min 0,000 mm 0,0 UV-I 0 W/m² 4,4 °C 6,7 °C 29,0 km/h (5 Bft)
30.04.2018 06:14 8,5 °C 75 % 1001,8 hPa 0,0 mm 14,7 km/h (3 Bft) W 267 ° 0 min 0,000 mm 0,0 UV-I 0 W/m² 4,3 °C 6,1 °C 35,4 km/h (5 Bft)
30.04.2018 06:15 8,4 °C 76 % 1001,7 hPa 0,0 mm 14,1 km/h (3 Bft) W 269 ° 0 min 0,000 mm 0,0 UV-I 0 W/m² 4,4 °C 6,1 °C 20,9 km/h (4 Bft)
30.04.2018 06:16 8,4 °C 76 % 1001,8 hPa 0,0 mm 22,6 km/h (4 Bft) W 280 ° 0 min 0,000 mm 0,0 UV-I 0 W/m² 4,4 °C 5,1 °C 32,2 km/h (5 Bft)
30.04.2018 06:17 8,3 °C 76 % 1001,9 hPa 0,0 mm 23,8 km/h (4 Bft) W-SW 245 ° 0 min 0,000 mm 0,0 UV-I 0 W/m² 4,3 °C 4,9 °C 37,0 km/h (5 Bft)
30.04.2018 06:18 8,3 °C 76 % 1001,9 hPa 0,0 mm 13,7 km/h (3 Bft) W-SW 244 ° 0 min 0,000 mm 0,0 UV-I 0 W/m² 4,3 °C 6,0 °C 19,3 km/h (3 Bft)
30.04.2018 06:19 8,3 °C 76 % 1002,0 hPa 0,0 mm 17,8 km/h (3 Bft) W-SW 247 ° 0 min 0,000 mm 0,0 UV-I 0 W/m² 4,3 °C 5,5 °C 30,6 km/h (5 Bft)
30.04.2018 06:20 8,1 °C 77 % 1002,0 hPa 0,0 mm 15,6 km/h (3 Bft) W 281 ° 0 min 0,000 mm 0,0 UV-I 0 W/m² 4,3 °C 5,5 °C 22,5 km/h (4 Bft)
30.04.2018 06:21 8,1 °C 77 % 1002,0 hPa 0,0 mm 13,4 km/h (3 Bft) W 280 ° 0 min 0,000 mm 0,0 UV-I 0 W/m² 4,3 °C 5,8 °C 24,1 km/h (4 Bft)
30.04.2018 06:22 7,9 °C 78 % 1002,0 hPa 0,0 mm 15,4 km/h (3 Bft) W-SW 238 ° 0 min 0,000 mm 0,0 UV-I 0 W/m² 4,3 °C 5,3 °C 30,6 km/h (5 Bft)
30.04.2018 06:23 7,8 °C 78 % 1001,9 hPa 0,0 mm 16,9 km/h (3 Bft) W-SW 258 ° 0 min 0,000 mm 0,0 UV-I 0 W/m² 4,2 °C 5,0 °C 24,1 km/h (4 Bft)
30.04.2018 06:24 7,8 °C 78 % 1001,9 hPa 0,0 mm 11,8 km/h (2 Bft) W-NW 288 ° 0 min 0,000 mm 0,0 UV-I 0 W/m² 4,2 °C 5,7 °C 20,9 km/h (4 Bft)
30.04.2018 06:25 7,7 °C 78 % 1002,0 hPa 0,0 mm 5,9 km/h (2 Bft) W-SW 250 ° 0 min 0,000 mm 0,0 UV-I 0 W/m² 4,1 °C 6,9 °C 9,7 km/h (2 Bft)
30.04.2018 06:26 7,7 °C 79 % 1002,1 hPa 0,0 mm 15,8 km/h (3 Bft) W-NW 293 ° 0 min 0,000 mm 0,0 UV-I 0 W/m² 4,3 °C 5,0 °C 30,6 km/h (5 Bft)
30.04.2018 06:27 7,6 °C 79 % 1002,1 hPa 0,0 mm 9,2 km/h (2 Bft) W-SW 252 ° 0 min 0,000 mm 0,0 UV-I 0 W/m² 4,2 °C 5,9 °C 24,1 km/h (4 Bft)
30.04.2018 06:28 7,6 °C 79 % 1002,2 hPa 0,0 mm 9,4 km/h (2 Bft) W 259 ° 0 min 0,000 mm 0,0 UV-I 0 W/m² 4,2 °C 5,9 °C 19,3 km/h (3 Bft)
30.04.2018 06:29 7,5 °C 80 % 1002,3 hPa 0,0 mm 11,8 km/h (2 Bft) W-NW 300 ° 0 min 0,000 mm 0,0 UV-I 0 W/m² 4,3 °C 5,3 °C 19,3 km/h (3 Bft)
30.04.2018 06:30 7,5 °C 80 % 1002,3 hPa 0,0 mm 13,0 km/h (3 Bft) NW 304 ° 0 min 0,000 mm 0,0 UV-I 0 W/m² 4,3 °C 5,1 °C 33,8 km/h (5 Bft)
30.04.2018 06:31 7,4 °C 80 % 1002,2 hPa 0,0 mm 14,8 km/h (3 Bft) W-NW 299 ° 0 min 0,000 mm 0,0 UV-I 5 W/m² 4,2 °C 4,7 °C 27,4 km/h (4 Bft)
30.04.2018 06:32 7,4 °C 80 % 1002,3 hPa 0,0 mm 15,4 km/h (3 Bft) W 267 ° 0 min 0,000 mm 0,0 UV-I 5 W/m² 4,2 °C 4,7 °C 27,4 km/h (4 Bft)
30.04.2018 06:33 7,4 °C 80 % 1002,3 hPa 0,0 mm 16,4 km/h (3 Bft) W-NW 285 ° 0 min 0,000 mm 0,0 UV-I 5 W/m² 4,2 °C 4,5 °C 27,4 km/h (4 Bft)
30.04.2018 06:34 7,3 °C 80 % 1002,3 hPa 0,0 mm 8,3 km/h (2 Bft) W-SW 243 ° 0 min 0,000 mm 0,0 UV-I 5 W/m² 4,1 °C 5,8 °C 14,5 km/h (3 Bft)
30.04.2018 06:35 7,3 °C 80 % 1002,3 hPa 0,0 mm 9,4 km/h (2 Bft) NW 319 ° 0 min 0,000 mm 0,0 UV-I 5 W/m² 4,1 °C 5,5 °C 16,1 km/h (3 Bft)
30.04.2018 06:36 7,3 °C 80 % 1002,3 hPa 0,0 mm 10,5 km/h (2 Bft) W-NW 291 ° 0 min 0,000 mm 0,0 UV-I 5 W/m² 4,1 °C 5,3 °C 17,7 km/h (3 Bft)
30.04.2018 06:37 7,3 °C 81 % 1002,4 hPa 0,0 mm 10,5 km/h (2 Bft) W-SW 257 ° 0 min 0,000 mm 0,0 UV-I 5 W/m² 4,3 °C 5,3 °C 14,5 km/h (3 Bft)
30.04.2018 06:38 7,3 °C 81 % 1002,4 hPa 0,0 mm 11,4 km/h (2 Bft) W-NW 296 ° 0 min 0,000 mm 0,0 UV-I 7 W/m² 4,3 °C 5,1 °C 12,9 km/h (3 Bft)
30.04.2018 06:39 7,3 °C 81 % 1002,5 hPa 0,0 mm 11,3 km/h (2 Bft) W-NW 292 ° 0 min 0,000 mm 0,0 UV-I 7 W/m² 4,3 °C 5,2 °C 16,1 km/h (3 Bft)
30.04.2018 06:40 7,2 °C 81 % 1002,5 hPa 0,0 mm 7,2 km/h (2 Bft) NW 306 ° 0 min 0,000 mm 0,0 UV-I 7 W/m² 4,2 °C 5,9 °C 14,5 km/h (3 Bft)
30.04.2018 06:41 7,2 °C 80 % 1002,6 hPa 0,0 mm 11,4 km/h (2 Bft) W 268 ° 0 min 0,000 mm 0,0 UV-I 7 W/m² 4,0 °C 5,0 °C 14,5 km/h (3 Bft)
30.04.2018 06:42 7,2 °C 80 % 1002,6 hPa 0,0 mm 6,2 km/h (2 Bft) SW 221 ° 0 min 0,000 mm 0,0 UV-I 7 W/m² 4,0 °C 6,2 °C 14,5 km/h (3 Bft)
30.04.2018 06:43 7,2 °C 81 % 1002,7 hPa 0,0 mm 11,1 km/h (2 Bft) W-NW 302 ° 0 min 0,000 mm 0,0 UV-I 9 W/m² 4,2 °C 5,1 °C 19,3 km/h (3 Bft)
30.04.2018 06:44 7,2 °C 81 % 1002,6 hPa 0,0 mm 6,7 km/h (2 Bft) W-NW 292 ° 0 min 0,000 mm 0,0 UV-I 11 W/m² 4,2 °C 6,1 °C 11,3 km/h (2 Bft)
30.04.2018 06:45 7,2 °C 81 % 1002,6 hPa 0,0 mm 10,7 km/h (2 Bft) W-SW 240 ° 0 min 0,000 mm 0,0 UV-I 14 W/m² 4,2 °C 5,2 °C 19,3 km/h (3 Bft)
30.04.2018 06:46 7,2 °C 81 % 1002,5 hPa 0,0 mm 11,2 km/h (2 Bft) W 281 ° 0 min 0,000 mm 0,0 UV-I 16 W/m² 4,2 °C 5,1 °C 19,3 km/h (3 Bft)
30.04.2018 06:47 7,2 °C 81 % 1002,6 hPa 0,0 mm 10,9 km/h (2 Bft) W 281 ° 0 min 0,000 mm 0,0 UV-I 19 W/m² 4,2 °C 5,1 °C 12,9 km/h (3 Bft)
30.04.2018 06:48 7,2 °C 81 % 1002,6 hPa 0,0 mm 10,4 km/h (2 Bft) SW 226 ° 0 min 0,000 mm 0,0 UV-I 21 W/m² 4,2 °C 5,2 °C 14,5 km/h (3 Bft)
30.04.2018 06:49 7,1 °C 81 % 1002,7 hPa 0,0 mm 10,5 km/h (2 Bft) W 268 ° 0 min 0,000 mm 0,0 UV-I 25 W/m² 4,1 °C 5,1 °C 14,5 km/h (3 Bft)
30.04.2018 06:50 7,1 °C 81 % 1002,8 hPa 0,0 mm 6,9 km/h (2 Bft) W 267 ° 0 min 0,000 mm 0,0 UV-I 26 W/m² 4,1 °C 5,9 °C 11,3 km/h (2 Bft)
30.04.2018 06:51 7,1 °C 81 % 1002,7 hPa 0,0 mm 8,8 km/h (2 Bft) W-NW 298 ° 0 min 0,000 mm 0,0 UV-I 30 W/m² 4,1 °C 5,4 °C 14,5 km/h (3 Bft)
30.04.2018 06:52 7,1 °C 81 % 1002,7 hPa 0,0 mm 14,1 km/h (3 Bft) W 262 ° 0 min 0,000 mm 0,0 UV-I 33 W/m² 4,1 °C 4,5 °C 19,3 km/h (3 Bft)
30.04.2018 06:53 7,1 °C 82 % 1002,7 hPa 0,0 mm 13,1 km/h (3 Bft) NW 312 ° 0 min 0,000 mm 0,0 UV-I 35 W/m² 4,2 °C 4,6 °C 19,3 km/h (3 Bft)
30.04.2018 06:54 7,1 °C 81 % 1002,8 hPa 0,0 mm 12,5 km/h (3 Bft) SW 233 ° 0 min 0,000 mm 0,0 UV-I 33 W/m² 4,1 °C 4,7 °C 20,9 km/h (4 Bft)
30.04.2018 06:55 7,1 °C 81 % 1003,0 hPa 0,0 mm 19,8 km/h (3 Bft) W-NW 290 ° 0 min 0,000 mm 0,0 UV-I 26 W/m² 4,1 °C 3,7 °C 25,7 km/h (4 Bft)
30.04.2018 06:56 7,1 °C 81 % 1003,1 hPa 0,0 mm 8,2 km/h (2 Bft) W 277 ° 0 min 0,000 mm 0,0 UV-I 21 W/m² 4,1 °C 5,6 °C 19,3 km/h (3 Bft)
30.04.2018 06:57 7,1 °C 81 % 1003,1 hPa 0,0 mm 18,1 km/h (3 Bft) W 260 ° 0 min 0,000 mm 0,0 UV-I 16 W/m² 4,1 °C 3,9 °C 27,4 km/h (4 Bft)
30.04.2018 06:58 7,1 °C 81 % 1003,1 hPa 0,0 mm 17,0 km/h (3 Bft) W-NW 299 ° 0 min 0,000 mm 0,0 UV-I 16 W/m² 4,1 °C 4,1 °C 25,7 km/h (4 Bft)
30.04.2018 06:59 7,1 °C 80 % 1003,1 hPa 0,0 mm 16,1 km/h (3 Bft) W-SW 250 ° 0 min 0,000 mm 0,0 UV-I 18 W/m² 3,9 °C 4,2 °C 27,4 km/h (4 Bft)
30.04.2018 07:00 7,1 °C 80 % 1003,1 hPa 0,0 mm 15,3 km/h (3 Bft) W 277 ° 0 min 0,000 mm 0,0 UV-I 21 W/m² 3,9 °C 4,3 °C 22,5 km/h (4 Bft)
30.04.2018 07:01 7,1 °C 81 % 1003,1 hPa 0,0 mm 13,7 km/h (3 Bft) W 265 ° 0 min 0,026 mm 0,0 UV-I 23 W/m² 4,1 °C 4,5 °C 24,1 km/h (4 Bft)
30.04.2018 07:02 7,1 °C 80 % 1003,2 hPa 0,0 mm 15,6 km/h (3 Bft) W-NW 283 ° 0 min 0,000 mm 0,0 UV-I 19 W/m² 3,9 °C 4,3 °C 25,7 km/h (4 Bft)
30.04.2018 07:03 7,1 °C 81 % 1003,3 hPa 0,0 mm 10,5 km/h (2 Bft) W 275 ° 0 min 0,000 mm 0,0 UV-I 9 W/m² 4,1 °C 5,1 °C 17,7 km/h (3 Bft)
30.04.2018 07:04 7,1 °C 81 % 1003,4 hPa 0,0 mm 13,9 km/h (3 Bft) W 281 ° 0 min 0,000 mm 0,0 UV-I 7 W/m² 4,1 °C 4,5 °C 22,5 km/h (4 Bft)
30.04.2018 07:05 7,1 °C 81 % 1003,4 hPa 0,0 mm 5,6 km/h (1 Bft) W-NW 290 ° 0 min 0,000 mm 0,0 UV-I 11 W/m² 4,1 °C 6,3 °C 11,3 km/h (2 Bft)
30.04.2018 07:06 7,1 °C 81 % 1003,4 hPa 0,0 mm 5,0 km/h (1 Bft) W-NW 296 ° 0 min 0,000 mm 0,0 UV-I 16 W/m² 4,1 °C 6,5 °C 11,3 km/h (2 Bft)
30.04.2018 07:07 7,0 °C 81 % 1003,2 hPa 0,0 mm 4,2 km/h (1 Bft) W-NW 286 ° 0 min 0,000 mm 0,0 UV-I 19 W/m² 4,0 °C 7,0 °C 9,7 km/h (2 Bft)
30.04.2018 07:08 7,0 °C 81 % 1003,1 hPa 0,0 mm 7,2 km/h (2 Bft) NW 313 ° 0 min 0,000 mm 0,0 UV-I 18 W/m² 4,0 °C 5,7 °C 11,3 km/h (2 Bft)
30.04.2018 07:09 6,9 °C 81 % 1003,1 hPa 0,0 mm 4,5 km/h (1 Bft) W 269 ° 0 min 0,000 mm 0,0 UV-I 16 W/m² 3,9 °C 6,9 °C 8,0 km/h (2 Bft)
30.04.2018 07:10 6,9 °C 82 % 1003,3 hPa 0,0 mm 5,1 km/h (1 Bft) W 281 ° 0 min 0,000 mm 0,0 UV-I 14 W/m² 4,0 °C 6,2 °C 12,9 km/h (3 Bft)
30.04.2018 07:11 6,9 °C 82 % 1003,4 hPa 0,0 mm 8,9 km/h (2 Bft) W-SW 244 ° 0 min 0,000 mm 0,0 UV-I 16 W/m² 4,0 °C 5,2 °C 17,7 km/h (3 Bft)
30.04.2018 07:12 6,9 °C 82 % 1003,4 hPa 0,0 mm 14,3 km/h (3 Bft) W 276 ° 0 min 0,000 mm 0,0 UV-I 21 W/m² 4,0 °C 4,2 °C 20,9 km/h (4 Bft)
30.04.2018 07:13 6,9 °C 81 % 1003,5 hPa 0,0 mm 14,0 km/h (3 Bft) W 276 ° 0 min 0,000 mm 0,0 UV-I 23 W/m² 3,9 °C 4,2 °C 17,7 km/h (3 Bft)
30.04.2018 07:14 6,9 °C 82 % 1003,4 hPa 0,0 mm 12,5 km/h (3 Bft) W 274 ° 0 min 0,000 mm 0,0 UV-I 26 W/m² 4,0 °C 4,5 °C 19,3 km/h (3 Bft)
30.04.2018 07:15 6,9 °C 81 % 1003,3 hPa 0,0 mm 14,4 km/h (3 Bft) W-NW 284 ° 0 min 0,000 mm 0,0 UV-I 21 W/m² 3,9 °C 4,2 °C 17,7 km/h (3 Bft)
30.04.2018 07:16 6,9 °C 81 % 1003,3 hPa 0,0 mm 11,1 km/h (2 Bft) W-NW 292 ° 0 min 0,000 mm 0,0 UV-I 18 W/m² 3,9 °C 4,7 °C 17,7 km/h (3 Bft)
30.04.2018 07:17 6,9 °C 81 % 1003,4 hPa 0,0 mm 5,2 km/h (1 Bft) W-SW 244 ° 0 min 0,000 mm 0,0 UV-I 16 W/m² 3,9 °C 6,2 °C 9,7 km/h (2 Bft)
30.04.2018 07:18 6,9 °C 82 % 1003,4 hPa 0,0 mm 2,7 km/h (1 Bft) SW 229 ° 0 min 0,000 mm 0,0 UV-I 16 W/m² 4,0 °C 6,9 °C 4,8 km/h (1 Bft)
30.04.2018 07:19 6,9 °C 81 % 1003,4 hPa 0,0 mm 7,6 km/h (2 Bft) W 279 ° 0 min 0,000 mm 0,0 UV-I 19 W/m² 3,9 °C 5,5 °C 11,3 km/h (2 Bft)
30.04.2018 07:20 6,9 °C 81 % 1003,4 hPa 0,0 mm 5,6 km/h (1 Bft) W 263 ° 0 min 0,000 mm 0,0 UV-I 25 W/m² 3,9 °C 6,0 °C 9,7 km/h (2 Bft)
30.04.2018 07:21 6,8 °C 82 % 1003,4 hPa 0,0 mm 8,2 km/h (2 Bft) W-SW 257 ° 0 min 0,000 mm 0,0 UV-I 30 W/m² 3,9 °C 5,2 °C 16,1 km/h (3 Bft)
30.04.2018 07:22 6,8 °C 82 % 1003,5 hPa 0,0 mm 6,6 km/h (2 Bft) W-NW 302 ° 0 min 0,000 mm 0,0 UV-I 30 W/m² 3,9 °C 5,6 °C 12,9 km/h (3 Bft)
30.04.2018 07:23 6,8 °C 82 % 1003,5 hPa 0,0 mm 3,9 km/h (1 Bft) W-NW 286 ° 0 min 0,000 mm 0,0 UV-I 28 W/m² 3,9 °C 6,8 °C 6,4 km/h (2 Bft)
30.04.2018 07:24 6,8 °C 83 % 1003,5 hPa 0,0 mm 9,3 km/h (2 Bft) W 281 ° 0 min 0,000 mm 0,0 UV-I 28 W/m² 4,1 °C 5,0 °C 17,7 km/h (3 Bft)
30.04.2018 07:25 6,9 °C 83 % 1003,6 hPa 0,0 mm 15,0 km/h (3 Bft) S 188 ° 0 min 0,000 mm 0,0 UV-I 28 W/m² 4,2 °C 4,1 °C 20,9 km/h (4 Bft)
30.04.2018 07:26 6,8 °C 82 % 1003,5 hPa 0,0 mm 4,2 km/h (1 Bft) W 261 ° 0 min 0,000 mm 0,0 UV-I 26 W/m² 3,9 °C 6,8 °C 8,0 km/h (2 Bft)
30.04.2018 07:27 6,8 °C 82 % 1003,5 hPa 0,0 mm 5,8 km/h (2 Bft) W-SW 238 ° 0 min 0,000 mm 0,0 UV-I 26 W/m² 3,9 °C 5,9 °C 9,7 km/h (2 Bft)
30.04.2018 07:28 6,8 °C 83 % 1003,5 hPa 0,0 mm 5,2 km/h (1 Bft) W-NW 284 ° 0 min 0,000 mm 0,0 UV-I 26 W/m² 4,1 °C 6,1 °C 9,7 km/h (2 Bft)
30.04.2018 07:29 6,8 °C 83 % 1003,4 hPa 0,0 mm 3,6 km/h (1 Bft) W 263 ° 0 min 0,000 mm 0,0 UV-I 25 W/m² 4,1 °C 6,8 °C 11,3 km/h (2 Bft)
30.04.2018 07:30 6,8 °C 83 % 1003,4 hPa 0,0 mm 8,6 km/h (2 Bft) W 274 ° 0 min 0,000 mm 0,0 UV-I 25 W/m² 4,1 °C 5,1 °C 16,1 km/h (3 Bft)
30.04.2018 07:31 6,8 °C 82 % 1003,4 hPa 0,0 mm 8,6 km/h (2 Bft) W 277 ° 0 min 0,000 mm 0,0 UV-I 25 W/m² 3,9 °C 5,1 °C 14,5 km/h (3 Bft)
30.04.2018 07:32 6,8 °C 82 % 1003,4 hPa 0,0 mm 6,7 km/h (2 Bft) W-NW 302 ° 0 min 0,000 mm 0,0 UV-I 25 W/m² 3,9 °C 5,6 °C 11,3 km/h (2 Bft)
30.04.2018 07:33 6,8 °C 83 % 1003,5 hPa 0,0 mm 5,5 km/h (1 Bft) W 267 ° 0 min 0,000 mm 0,0 UV-I 26 W/m² 4,1 °C 6,0 °C 8,0 km/h (2 Bft)
30.04.2018 07:34 6,8 °C 83 % 1003,5 hPa 0,0 mm 4,5 km/h (1 Bft) W-SW 253 ° 0 min 0,000 mm 0,0 UV-I 25 W/m² 4,1 °C 6,8 °C 8,0 km/h (2 Bft)
30.04.2018 07:35 6,8 °C 83 % 1003,6 hPa 0,0 mm 5,9 km/h (2 Bft) W 277 ° 0 min 0,000 mm 0,0 UV-I 25 W/m² 4,1 °C 5,8 °C 11,3 km/h (2 Bft)
30.04.2018 07:36 6,8 °C 83 % 1003,6 hPa 0,0 mm 9,1 km/h (2 Bft) SW 219 ° 0 min 0,000 mm 0,0 UV-I 19 W/m² 4,1 °C 5,0 °C 16,1 km/h (3 Bft)
30.04.2018 07:37 6,8 °C 83 % 1003,6 hPa 0,0 mm 8,3 km/h (2 Bft) SW 227 ° 0 min 0,000 mm 0,0 UV-I 19 W/m² 4,1 °C 5,2 °C 12,9 km/h (3 Bft)
30.04.2018 07:38 6,8 °C 83 % 1003,6 hPa 0,0 mm 5,4 km/h (1 Bft) W-NW 292 ° 0 min 0,000 mm 0,0 UV-I 26 W/m² 4,1 °C 6,0 °C 11,3 km/h (2 Bft)
30.04.2018 07:39 6,8 °C 83 % 1003,5 hPa 0,0 mm 6,6 km/h (2 Bft) W-NW 300 ° 0 min 0,000 mm 0,0 UV-I 32 W/m² 4,1 °C 5,6 °C 11,3 km/h (2 Bft)
30.04.2018 07:40 6,8 °C 83 % 1003,4 hPa 0,0 mm 1,6 km/h (1 Bft) W-NW 293 ° 0 min 0,000 mm 0,0 UV-I 32 W/m² 4,1 °C 6,8 °C 4,8 km/h (1 Bft)
30.04.2018 07:41 6,8 °C 83 % 1003,5 hPa 0,0 mm 2,6 km/h (1 Bft) W-SW 242 ° 0 min 0,000 mm 0,0 UV-I 28 W/m² 4,1 °C 6,8 °C 6,4 km/h (2 Bft)
30.04.2018 07:42 6,8 °C 83 % 1003,4 hPa 0,0 mm 5,8 km/h (2 Bft) W 263 ° 0 min 0,000 mm 0,0 UV-I 28 W/m² 4,1 °C 5,9 °C 12,9 km/h (3 Bft)
30.04.2018 07:43 6,8 °C 83 % 1003,5 hPa 0,0 mm 10,9 km/h (2 Bft) W 279 ° 0 min 0,000 mm 0,0 UV-I 30 W/m² 4,1 °C 4,6 °C 14,5 km/h (3 Bft)
30.04.2018 07:44 6,8 °C 84 % 1003,4 hPa 0,0 mm 7,6 km/h (2 Bft) W-SW 255 ° 0 min 0,000 mm 0,0 UV-I 46 W/m² 4,3 °C 5,3 °C 12,9 km/h (3 Bft)
30.04.2018 07:45 6,8 °C 84 % 1003,3 hPa 0,0 mm 8,3 km/h (2 Bft) W 271 ° 0 min 0,000 mm 0,0 UV-I 51 W/m² 4,3 °C 5,2 °C 14,5 km/h (3 Bft)
30.04.2018 07:46 6,7 °C 84 % 1003,3 hPa 0,2 mm 3,7 km/h (1 Bft) W 263 ° 0 min 0,000 mm 0,0 UV-I 51 W/m² 4,2 °C 6,7 °C 4,8 km/h (1 Bft)
30.04.2018 07:47 6,7 °C 84 % 1003,3 hPa 0,0 mm 0,7 km/h (0 Bft) W 263 ° 0 min 0,000 mm 0,0 UV-I 46 W/m² 4,2 °C 6,7 °C 1,6 km/h (1 Bft)
30.04.2018 07:48 6,7 °C 85 % 1003,4 hPa 0,0 mm 3,2 km/h (1 Bft) W-NW 299 ° 0 min 0,000 mm 0,0 UV-I 39 W/m² 4,4 °C 6,7 °C 4,8 km/h (1 Bft)
30.04.2018 07:49 6,7 °C 85 % 1003,4 hPa 0,0 mm 2,6 km/h (1 Bft) W 279 ° 0 min 0,000 mm 0,0 UV-I 37 W/m² 4,4 °C 6,7 °C 3,2 km/h (1 Bft)
30.04.2018 07:50 6,7 °C 85 % 1003,5 hPa 0,0 mm 6,7 km/h (2 Bft) W 267 ° 0 min 0,000 mm 0,0 UV-I 37 W/m² 4,4 °C 5,5 °C 14,5 km/h (3 Bft)
30.04.2018 07:51 6,7 °C 85 % 1003,5 hPa 0,0 mm 2,7 km/h (1 Bft) W-SW 257 ° 0 min 0,000 mm 0,0 UV-I 37 W/m² 4,4 °C 6,7 °C 4,8 km/h (1 Bft)
30.04.2018 07:52 6,7 °C 85 % 1003,6 hPa 0,0 mm 6,3 km/h (2 Bft) W-SW 244 ° 0 min 0,000 mm 0,0 UV-I 33 W/m² 4,4 °C 5,6 °C 12,9 km/h (3 Bft)
30.04.2018 07:53 6,6 °C 85 % 1003,7 hPa 0,0 mm 4,1 km/h (1 Bft) W-NW 290 ° 0 min 0,000 mm 0,0 UV-I 30 W/m² 4,3 °C 6,6 °C 6,4 km/h (2 Bft)
30.04.2018 07:54 6,6 °C 85 % 1003,7 hPa 0,0 mm 3,5 km/h (1 Bft) SW 221 ° 0 min 0,000 mm 0,0 UV-I 26 W/m² 4,3 °C 6,6 °C 6,4 km/h (2 Bft)
30.04.2018 07:55 6,7 °C 85 % 1003,7 hPa 0,0 mm 6,2 km/h (2 Bft) NW 307 ° 0 min 0,000 mm 0,0 UV-I 25 W/m² 4,4 °C 5,6 °C 17,7 km/h (3 Bft)
30.04.2018 07:56 6,6 °C 85 % 1003,8 hPa 0,0 mm 9,3 km/h (2 Bft) W-SW 246 ° 0 min 0,000 mm 0,0 UV-I 30 W/m² 4,3 °C 4,7 °C 16,1 km/h (3 Bft)
30.04.2018 07:57 6,6 °C 84 % 1003,7 hPa 0,0 mm 6,3 km/h (2 Bft) W-SW 253 ° 0 min 0,000 mm 0,0 UV-I 32 W/m² 4,1 °C 5,5 °C 11,3 km/h (2 Bft)
30.04.2018 07:58 6,6 °C 85 % 1003,6 hPa 0,0 mm 2,7 km/h (1 Bft) NW 315 ° 0 min 0,000 mm 0,0 UV-I 30 W/m² 4,3 °C 6,6 °C 4,8 km/h (1 Bft)
30.04.2018 07:59 6,6 °C 85 % 1003,6 hPa 0,0 mm 3,5 km/h (1 Bft) W-NW 300 ° 0 min 0,000 mm 0,0 UV-I 28 W/m² 4,3 °C 6,6 °C 6,4 km/h (2 Bft)
30.04.2018 08:00 6,6 °C 85 % 1003,6 hPa 0,0 mm 3,8 km/h (1 Bft) W 260 ° 0 min 0,000 mm 0,0 UV-I 30 W/m² 4,3 °C 6,6 °C 6,4 km/h (2 Bft)
30.04.2018 08:01 6,5 °C 85 % 1003,6 hPa 0,0 mm 0,5 km/h (0 Bft) W 260 ° 0 min 0,025 mm 0,0 UV-I 33 W/m² 4,2 °C 6,5 °C 1,6 km/h (1 Bft)
30.04.2018 08:02 6,4 °C 85 % 1003,6 hPa 0,0 mm 2,7 km/h (1 Bft) W-SW 255 ° 0 min 0,000 mm 0,0 UV-I 35 W/m² 4,1 °C 6,4 °C 6,4 km/h (2 Bft)
30.04.2018 08:03 6,4 °C 85 % 1003,6 hPa 0,0 mm 1,6 km/h (1 Bft) W-SW 255 ° 0 min 0,000 mm 0,0 UV-I 33 W/m² 4,1 °C 6,4 °C 3,2 km/h (1 Bft)
30.04.2018 08:04 6,4 °C 85 % 1003,6 hPa 0,0 mm 3,9 km/h (1 Bft) W-SW 253 ° 0 min 0,000 mm 0,0 UV-I 33 W/m² 4,1 °C 6,4 °C 6,4 km/h (2 Bft)
30.04.2018 08:05 6,4 °C 86 % 1003,6 hPa 0,0 mm 6,2 km/h (2 Bft) W-NW 285 ° 0 min 0,000 mm 0,0 UV-I 35 W/m² 4,2 °C 5,3 °C 11,3 km/h (2 Bft)
30.04.2018 08:06 6,4 °C 86 % 1003,6 hPa 0,0 mm 9,2 km/h (2 Bft) W 270 ° 0 min 0,000 mm 0,0 UV-I 39 W/m² 4,2 °C 4,5 °C 16,1 km/h (3 Bft)
30.04.2018 08:07 6,4 °C 86 % 1003,6 hPa 0,0 mm 3,5 km/h (1 Bft) W-SW 238 ° 0 min 0,000 mm 0,0 UV-I 46 W/m² 4,2 °C 6,4 °C 9,7 km/h (2 Bft)
30.04.2018 08:08 6,3 °C 85 % 1003,6 hPa 0,0 mm 3,0 km/h (1 Bft) S-SW 198 ° 0 min 0,000 mm 0,0 UV-I 49 W/m² 4,0 °C 6,3 °C 6,4 km/h (2 Bft)
30.04.2018 08:09 6,3 °C 86 % 1003,6 hPa 0,0 mm 6,0 km/h (2 Bft) SW 220 ° 0 min 0,000 mm 0,0 UV-I 53 W/m² 4,1 °C 5,2 °C 12,9 km/h (3 Bft)
30.04.2018 08:10 6,3 °C 85 % 1003,6 hPa 0,0 mm 5,5 km/h (1 Bft) SW 217 ° 0 min 0,000 mm 0,0 UV-I 56 W/m² 4,0 °C 5,4 °C 8,0 km/h (2 Bft)
30.04.2018 08:11 6,3 °C 85 % 1003,6 hPa 0,0 mm 1,1 km/h (1 Bft) SW 217 ° 0 min 0,000 mm 0,0 UV-I 62 W/m² 4,0 °C 6,3 °C 3,2 km/h (1 Bft)
30.04.2018 08:12 6,3 °C 85 % 1003,8 hPa 0,0 mm 1,4 km/h (1 Bft) W-SW 240 ° 0 min 0,000 mm 0,0 UV-I 63 W/m² 4,0 °C 6,3 °C 4,8 km/h (1 Bft)
30.04.2018 08:13 6,3 °C 85 % 1003,8 hPa 0,0 mm 2,2 km/h (1 Bft) S 178 ° 0 min 0,000 mm 0,0 UV-I 62 W/m² 4,0 °C 6,3 °C 8,0 km/h (2 Bft)
30.04.2018 08:14 6,3 °C 86 % 1003,8 hPa 0,0 mm 1,8 km/h (1 Bft) SW 234 ° 0 min 0,000 mm 0,0 UV-I 60 W/m² 4,1 °C 6,3 °C 3,2 km/h (1 Bft)
30.04.2018 08:15 6,3 °C 86 % 1003,9 hPa 0,0 mm 2,8 km/h (1 Bft) W-SW 254 ° 0 min 0,000 mm 0,0 UV-I 62 W/m² 4,1 °C 6,3 °C 4,8 km/h (1 Bft)
30.04.2018 08:16 6,3 °C 86 % 1003,8 hPa 0,0 mm 3,8 km/h (1 Bft) W 265 ° 0 min 0,000 mm 0,0 UV-I 63 W/m² 4,1 °C 6,3 °C 6,4 km/h (2 Bft)
30.04.2018 08:17 6,4 °C 86 % 1003,8 hPa 0,0 mm 3,3 km/h (1 Bft) W 261 ° 0 min 0,000 mm 0,0 UV-I 62 W/m² 4,2 °C 6,4 °C 4,8 km/h (1 Bft)
30.04.2018 08:18 6,4 °C 86 % 1003,9 hPa 0,0 mm 7,2 km/h (2 Bft) W 263 ° 0 min 0,000 mm 0,0 UV-I 56 W/m² 4,2 °C 5,0 °C 11,3 km/h (2 Bft)
30.04.2018 08:19 6,4 °C 86 % 1003,9 hPa 0,0 mm 1,9 km/h (1 Bft) W 263 ° 0 min 0,000 mm 0,0 UV-I 53 W/m² 4,2 °C 6,4 °C 6,4 km/h (2 Bft)
30.04.2018 08:20 6,4 °C 87 % 1003,9 hPa 0,0 mm 2,4 km/h (1 Bft) W-SW 238 ° 0 min 0,000 mm 0,0 UV-I 54 W/m² 4,4 °C 6,4 °C 6,4 km/h (2 Bft)
30.04.2018 08:21 6,4 °C 86 % 1003,8 hPa 0,0 mm 3,8 km/h (1 Bft) W 260 ° 0 min 0,000 mm 0,0 UV-I 54 W/m² 4,2 °C 6,4 °C 6,4 km/h (2 Bft)
30.04.2018 08:22 6,4 °C 86 % 1003,8 hPa 0,0 mm 2,2 km/h (1 Bft) W 261 ° 0 min 0,000 mm 0,5 UV-I 98 W/m² 4,2 °C 6,4 °C 4,8 km/h (1 Bft)
30.04.2018 08:23 6,4 °C 86 % 1003,7 hPa 0,0 mm 2,6 km/h (1 Bft) W 271 ° 0 min 0,000 mm 0,6 UV-I 120 W/m² 4,2 °C 6,4 °C 6,4 km/h (2 Bft)
30.04.2018 08:24 6,5 °C 87 % 1003,7 hPa 0,0 mm 6,4 km/h (2 Bft) W-SW 247 ° 0 min 0,000 mm 0,7 UV-I 132 W/m² 4,5 °C 5,3 °C 11,3 km/h (2 Bft)
30.04.2018 08:25 6,6 °C 87 % 1003,7 hPa 0,0 mm 5,8 km/h (2 Bft) W 265 ° 0 min 0,000 mm 0,7 UV-I 127 W/m² 4,6 °C 5,6 °C 9,7 km/h (2 Bft)
30.04.2018 08:26 6,6 °C 87 % 1003,7 hPa 0,0 mm 3,9 km/h (1 Bft) W 274 ° 0 min 0,000 mm 0,6 UV-I 118 W/m² 4,6 °C 6,6 °C 4,8 km/h (1 Bft)
30.04.2018 08:27 6,7 °C 87 % 1003,7 hPa 0,0 mm 3,1 km/h (1 Bft) W 276 ° 0 min 0,000 mm 0,6 UV-I 114 W/m² 4,7 °C 6,7 °C 4,8 km/h (1 Bft)
30.04.2018 08:28 6,7 °C 87 % 1003,7 hPa 0,0 mm 3,6 km/h (1 Bft) W 275 ° 0 min 0,000 mm 0,6 UV-I 118 W/m² 4,7 °C 6,7 °C 4,8 km/h (1 Bft)
30.04.2018 08:29 6,7 °C 87 % 1003,7 hPa 0,0 mm 0,4 km/h (0 Bft) W 275 ° 0 min 0,000 mm 0,7 UV-I 128 W/m² 4,7 °C 6,7 °C 3,2 km/h (1 Bft)
30.04.2018 08:30 6,8 °C 87 % 1003,7 hPa 0,0 mm 4,2 km/h (1 Bft) W 275 ° 0 min 0,000 mm 0,7 UV-I 137 W/m² 4,8 °C 6,8 °C 6,4 km/h (2 Bft)
30.04.2018 08:31 6,8 °C 87 % 1003,7 hPa 0,0 mm 5,1 km/h (1 Bft) W-SW 246 ° 0 min 0,000 mm 0,7 UV-I 144 W/m² 4,8 °C 6,1 °C 6,4 km/h (2 Bft)
30.04.2018 08:32 6,8 °C 87 % 1003,7 hPa 0,0 mm 0,6 km/h (0 Bft) W-SW 246 ° 0 min 0,000 mm 0,7 UV-I 148 W/m² 4,8 °C 6,8 °C 3,2 km/h (1 Bft)
30.04.2018 08:33 6,8 °C 87 % 1003,7 hPa 0,0 mm 2,1 km/h (1 Bft) W-SW 238 ° 0 min 0,000 mm 0,8 UV-I 156 W/m² 4,8 °C 6,8 °C 6,4 km/h (2 Bft)
30.04.2018 08:34 6,8 °C 86 % 1003,7 hPa 0,0 mm 2,9 km/h (1 Bft) W 269 ° 0 min 0,000 mm 0,8 UV-I 169 W/m² 4,6 °C 6,8 °C 3,2 km/h (1 Bft)
30.04.2018 08:35 6,9 °C 87 % 1003,7 hPa 0,0 mm 2,3 km/h (1 Bft) W-NW 282 ° 0 min 0,000 mm 0,9 UV-I 181 W/m² 4,9 °C 6,9 °C 4,8 km/h (1 Bft)
30.04.2018 08:36 7,0 °C 87 % 1003,7 hPa 0,0 mm 1,1 km/h (1 Bft) W-NW 282 ° 0 min 0,000 mm 1,0 UV-I 186 W/m² 5,0 °C 7,0 °C 3,2 km/h (1 Bft)
30.04.2018 08:37 7,1 °C 87 % 1003,7 hPa 0,0 mm 4,9 km/h (1 Bft) W-SW 248 ° 0 min 0,000 mm 1,0 UV-I 197 W/m² 5,1 °C 6,5 °C 12,9 km/h (3 Bft)
30.04.2018 08:38 7,1 °C 87 % 1003,7 hPa 0,0 mm 5,3 km/h (1 Bft) W 279 ° 0 min 0,000 mm 1,0 UV-I 193 W/m² 5,1 °C 6,4 °C 8,0 km/h (2 Bft)
30.04.2018 08:39 7,2 °C 87 % 1003,6 hPa 0,0 mm 4,4 km/h (1 Bft) SW 234 ° 0 min 0,000 mm 0,9 UV-I 188 W/m² 5,2 °C 7,2 °C 8,0 km/h (2 Bft)
30.04.2018 08:40 7,2 °C 85 % 1003,6 hPa 0,0 mm 3,9 km/h (1 Bft) W 277 ° 0 min 0,000 mm 1,0 UV-I 193 W/m² 4,9 °C 7,2 °C 8,0 km/h (2 Bft)
30.04.2018 08:41 7,2 °C 86 % 1003,6 hPa 0,0 mm 5,4 km/h (1 Bft) W 270 ° 0 min 0,000 mm 1,0 UV-I 199 W/m² 5,0 °C 6,4 °C 9,7 km/h (2 Bft)
30.04.2018 08:42 7,2 °C 85 % 1003,5 hPa 0,0 mm 12,3 km/h (3 Bft) W-SW 258 ° 0 min 0,000 mm 1,1 UV-I 202 W/m² 4,9 °C 4,9 °C 17,7 km/h (3 Bft)
30.04.2018 08:43 7,2 °C 85 % 1003,5 hPa 0,0 mm 5,6 km/h (1 Bft) W 263 ° 0 min 0,000 mm 1,1 UV-I 188 W/m² 4,9 °C 6,4 °C 9,7 km/h (2 Bft)
30.04.2018 08:44 7,3 °C 85 % 1003,5 hPa 0,0 mm 5,7 km/h (1 Bft) W 275 ° 0 min 0,000 mm 1,0 UV-I 162 W/m² 4,9 °C 6,5 °C 11,3 km/h (2 Bft)
30.04.2018 08:45 7,3 °C 85 % 1003,5 hPa 0,0 mm 5,1 km/h (1 Bft) W-NW 294 ° 0 min 0,000 mm 0,9 UV-I 141 W/m² 4,9 °C 6,7 °C 6,4 km/h (2 Bft)
30.04.2018 08:46 7,3 °C 85 % 1003,5 hPa 0,0 mm 2,7 km/h (1 Bft) W-NW 290 ° 0 min 0,000 mm 0,9 UV-I 128 W/m² 4,9 °C 7,3 °C 3,2 km/h (1 Bft)
30.04.2018 08:47 7,3 °C 86 % 1003,5 hPa 0,0 mm 2,2 km/h (1 Bft) W-NW 289 ° 0 min 0,000 mm 0,9 UV-I 118 W/m² 5,1 °C 7,3 °C 3,2 km/h (1 Bft)
30.04.2018 08:48 7,3 °C 85 % 1003,5 hPa 0,0 mm 2,5 km/h (1 Bft) NW 305 ° 0 min 0,000 mm 0,9 UV-I 113 W/m² 4,9 °C 7,3 °C 4,8 km/h (1 Bft)
30.04.2018 08:49 7,4 °C 85 % 1003,5 hPa 0,0 mm 1,5 km/h (1 Bft) S-SW 210 ° 0 min 0,000 mm 0,9 UV-I 105 W/m² 5,0 °C 7,4 °C 3,2 km/h (1 Bft)
30.04.2018 08:50 7,3 °C 84 % 1003,5 hPa 0,0 mm 1,3 km/h (1 Bft) S-SW 210 ° 0 min 0,000 mm 1,0 UV-I 109 W/m² 4,8 °C 7,3 °C 1,6 km/h (1 Bft)
30.04.2018 08:51 7,3 °C 83 % 1003,5 hPa 0,0 mm 0,4 km/h (0 Bft) S-SW 210 ° 0 min 0,000 mm 1,0 UV-I 127 W/m² 4,6 °C 7,3 °C 1,6 km/h (1 Bft)
30.04.2018 08:52 7,4 °C 85 % 1003,6 hPa 0,0 mm 2,2 km/h (1 Bft) W-NW 284 ° 0 min 0,000 mm 1,1 UV-I 167 W/m² 5,0 °C 7,4 °C 4,8 km/h (1 Bft)
30.04.2018 08:53 7,4 °C 85 % 1003,6 hPa 0,0 mm 2,0 km/h (1 Bft) W 271 ° 0 min 0,000 mm 1,1 UV-I 190 W/m² 5,0 °C 7,4 °C 3,2 km/h (1 Bft)
30.04.2018 08:54 7,5 °C 85 % 1003,6 hPa 0,0 mm 1,5 km/h (1 Bft) SW 217 ° 0 min 0,000 mm 1,1 UV-I 197 W/m² 5,1 °C 7,5 °C 8,0 km/h (2 Bft)
30.04.2018 08:55 7,6 °C 84 % 1003,5 hPa 0,0 mm 5,0 km/h (1 Bft) SW 219 ° 0 min 0,000 mm 1,1 UV-I 193 W/m² 5,1 °C 7,0 °C 8,0 km/h (2 Bft)
30.04.2018 08:56 7,7 °C 84 % 1003,5 hPa 0,0 mm 3,7 km/h (1 Bft) SW 229 ° 0 min 0,000 mm 1,1 UV-I 185 W/m² 5,2 °C 7,7 °C 4,8 km/h (1 Bft)
30.04.2018 08:57 7,7 °C 85 % 1003,5 hPa 0,0 mm 0,3 km/h (0 Bft) SW 232 ° 0 min 0,000 mm 1,1 UV-I 178 W/m² 5,3 °C 7,7 °C 1,6 km/h (1 Bft)
30.04.2018 08:58 7,7 °C 83 % 1003,5 hPa 0,0 mm 0,6 km/h (0 Bft) SW 232 ° 0 min 0,000 mm 1,1 UV-I 179 W/m² 5,0 °C 7,7 °C 3,2 km/h (1 Bft)
30.04.2018 08:59 7,7 °C 82 % 1003,4 hPa 0,0 mm 0,2 km/h (0 Bft) SW 232 ° 0 min 0,000 mm 1,2 UV-I 185 W/m² 4,8 °C 7,7 °C 1,6 km/h (1 Bft)
30.04.2018 09:00 7,7 °C 83 % 1003,5 hPa 0,0 mm 0,0 km/h (0 Bft) SW 232 ° 0 min 0,000 mm 1,2 UV-I 197 W/m² 5,0 °C 7,7 °C 0,0 km/h (0 Bft)
30.04.2018 09:01 7,8 °C 83 % 1003,4 hPa 0,0 mm 0,0 km/h (0 Bft) SW 232 ° 0 min 0,051 mm 1,3 UV-I 211 W/m² 5,1 °C 7,8 °C 0,0 km/h (0 Bft)
30.04.2018 09:02 7,8 °C 83 % 1003,4 hPa 0,0 mm 0,2 km/h (0 Bft) SW 233 ° 0 min 0,000 mm 1,4 UV-I 236 W/m² 5,1 °C 7,8 °C 1,6 km/h (1 Bft)
30.04.2018 09:03 7,8 °C 83 % 1003,4 hPa 0,0 mm 3,1 km/h (1 Bft) W-NW 294 ° 0 min 0,000 mm 1,4 UV-I 272 W/m² 5,1 °C 7,8 °C 4,8 km/h (1 Bft)
30.04.2018 09:04 8,1 °C 85 % 1003,5 hPa 0,0 mm 3,2 km/h (1 Bft) W-NW 295 ° 1 min 0,000 mm 1,5 UV-I 302 W/m² 5,7 °C 8,1 °C 4,8 km/h (1 Bft)
30.04.2018 09:05 8,2 °C 85 % 1003,5 hPa 0,0 mm 0,6 km/h (0 Bft) W-NW 295 ° 1 min 0,000 mm 1,4 UV-I 308 W/m² 5,8 °C 8,2 °C 3,2 km/h (1 Bft)
30.04.2018 09:06 8,3 °C 83 % 1003,5 hPa 0,0 mm 0,1 km/h (0 Bft) W-NW 295 ° 0 min 0,000 mm 1,3 UV-I 258 W/m² 5,6 °C 8,3 °C 1,6 km/h (1 Bft)
30.04.2018 09:07 8,3 °C 82 % 1003,5 hPa 0,0 mm 1,8 km/h (1 Bft) W-NW 294 ° 0 min 0,000 mm 1,1 UV-I 227 W/m² 5,4 °C 8,3 °C 3,2 km/h (1 Bft)
30.04.2018 09:08 8,3 °C 81 % 1003,5 hPa 0,0 mm 3,8 km/h (1 Bft) W 273 ° 0 min 0,000 mm 1,0 UV-I 199 W/m² 5,2 °C 8,3 °C 6,4 km/h (2 Bft)
30.04.2018 09:09 8,4 °C 83 % 1003,4 hPa 0,0 mm 2,7 km/h (1 Bft) W 277 ° 0 min 0,000 mm 1,0 UV-I 185 W/m² 5,7 °C 8,4 °C 4,8 km/h (1 Bft)
30.04.2018 09:10 8,4 °C 80 % 1003,4 hPa 0,0 mm 2,1 km/h (1 Bft) W 277 ° 0 min 0,000 mm 1,0 UV-I 179 W/m² 5,2 °C 8,4 °C 3,2 km/h (1 Bft)
30.04.2018 09:11 8,4 °C 82 % 1003,4 hPa 0,0 mm 1,3 km/h (1 Bft) W 277 ° 0 min 0,000 mm 1,0 UV-I 179 W/m² 5,5 °C 8,4 °C 3,2 km/h (1 Bft)
30.04.2018 09:12 8,3 °C 80 % 1003,3 hPa 0,0 mm 0,6 km/h (0 Bft) W 277 ° 0 min 0,000 mm 1,1 UV-I 181 W/m² 5,1 °C 8,3 °C 3,2 km/h (1 Bft)
30.04.2018 09:13 8,3 °C 81 % 1003,3 hPa 0,0 mm 1,0 km/h (0 Bft) W 277 ° 0 min 0,000 mm 1,1 UV-I 176 W/m² 5,2 °C 8,3 °C 3,2 km/h (1 Bft)
30.04.2018 09:14 8,2 °C 80 % 1003,3 hPa 0,0 mm 0,1 km/h (0 Bft) W 277 ° 0 min 0,000 mm 1,1 UV-I 174 W/m² 5,0 °C 8,2 °C 1,6 km/h (1 Bft)
30.04.2018 09:15 8,2 °C 80 % 1003,3 hPa 0,0 mm 0,5 km/h (0 Bft) W 277 ° 0 min 0,000 mm 1,1 UV-I 176 W/m² 5,0 °C 8,2 °C 1,6 km/h (1 Bft)
30.04.2018 09:16 8,3 °C 82 % 1003,3 hPa 0,0 mm 0,0 km/h (0 Bft) W 277 ° 0 min 0,000 mm 1,2 UV-I 179 W/m² 5,4 °C 8,3 °C 0,0 km/h (0 Bft)
30.04.2018 09:17 8,3 °C 81 % 1003,3 hPa 0,0 mm 1,1 km/h (1 Bft) W 277 ° 0 min 0,000 mm 1,2 UV-I 183 W/m² 5,2 °C 8,3 °C 3,2 km/h (1 Bft)
30.04.2018 09:18 8,4 °C 81 % 1003,4 hPa 0,0 mm 0,7 km/h (0 Bft) W 277 ° 0 min 0,000 mm 1,3 UV-I 199 W/m² 5,3 °C 8,4 °C 3,2 km/h (1 Bft)
30.04.2018 09:19 8,4 °C 80 % 1003,3 hPa 0,0 mm 0,0 km/h (0 Bft) W 277 ° 0 min 0,000 mm 1,3 UV-I 209 W/m² 5,2 °C 8,4 °C 0,0 km/h (0 Bft)
30.04.2018 09:20 8,3 °C 79 % 1003,3 hPa 0,0 mm 0,0 km/h (0 Bft) W 277 ° 0 min 0,000 mm 1,4 UV-I 218 W/m² 4,9 °C 8,3 °C 0,0 km/h (0 Bft)
30.04.2018 09:21 8,3 °C 79 % 1003,4 hPa 0,0 mm 0,0 km/h (0 Bft) W 277 ° 0 min 0,000 mm 1,5 UV-I 229 W/m² 4,9 °C 8,3 °C 0,0 km/h (0 Bft)
30.04.2018 09:22 8,3 °C 79 % 1003,3 hPa 0,0 mm 0,0 km/h (0 Bft) W 277 ° 0 min 0,000 mm 1,5 UV-I 239 W/m² 4,9 °C 8,3 °C 0,0 km/h (0 Bft)
30.04.2018 09:23 8,3 °C 79 % 1003,3 hPa 0,0 mm 1,6 km/h (1 Bft) W 279 ° 0 min 0,000 mm 1,5 UV-I 248 W/m² 4,9 °C 8,3 °C 3,2 km/h (1 Bft)
30.04.2018 09:24 8,3 °C 79 % 1003,3 hPa 0,0 mm 0,1 km/h (0 Bft) W 279 ° 0 min 0,000 mm 1,6 UV-I 260 W/m² 4,9 °C 8,3 °C 1,6 km/h (1 Bft)
30.04.2018 09:25 8,3 °C 79 % 1003,3 hPa 0,0 mm 0,0 km/h (0 Bft) W 279 ° 0 min 0,000 mm 1,6 UV-I 264 W/m² 4,9 °C 8,3 °C 0,0 km/h (0 Bft)
30.04.2018 09:26 8,4 °C 79 % 1003,3 hPa 0,0 mm 0,0 km/h (0 Bft) W 279 ° 0 min 0,000 mm 1,6 UV-I 271 W/m² 5,0 °C 8,4 °C 0,0 km/h (0 Bft)
30.04.2018 09:27 8,3 °C 78 % 1003,3 hPa 0,0 mm 0,5 km/h (0 Bft) W 279 ° 0 min 0,000 mm 1,7 UV-I 283 W/m² 4,7 °C 8,3 °C 3,2 km/h (1 Bft)
30.04.2018 09:28 8,4 °C 79 % 1003,3 hPa 0,0 mm 4,1 km/h (1 Bft) NW 325 ° 1 min 0,000 mm 1,7 UV-I 295 W/m² 5,0 °C 8,4 °C 8,0 km/h (2 Bft)
30.04.2018 09:29 8,5 °C 80 % 1003,3 hPa 0,0 mm 4,8 km/h (1 Bft) W-NW 299 ° 0 min 0,000 mm 1,7 UV-I 283 W/m² 5,3 °C 8,1 °C 8,0 km/h (2 Bft)
30.04.2018 09:30 8,6 °C 79 % 1003,3 hPa 0,0 mm 3,1 km/h (1 Bft) W-NW 299 ° 0 min 0,000 mm 1,7 UV-I 276 W/m² 5,2 °C 8,6 °C 6,4 km/h (2 Bft)
30.04.2018 09:31 8,6 °C 77 % 1003,3 hPa 0,0 mm 0,8 km/h (0 Bft) W-NW 299 ° 0 min 0,000 mm 1,7 UV-I 271 W/m² 4,8 °C 8,6 °C 3,2 km/h (1 Bft)
30.04.2018 09:32 8,6 °C 78 % 1003,3 hPa 0,0 mm 1,4 km/h (1 Bft) W-NW 299 ° 0 min 0,000 mm 1,7 UV-I 272 W/m² 5,0 °C 8,6 °C 3,2 km/h (1 Bft)
30.04.2018 09:33 8,6 °C 79 % 1003,3 hPa 0,0 mm 1,9 km/h (1 Bft) W-NW 299 ° 0 min 0,000 mm 1,7 UV-I 274 W/m² 5,2 °C 8,6 °C 4,8 km/h (1 Bft)
30.04.2018 09:34 8,6 °C 78 % 1003,3 hPa 0,0 mm 0,1 km/h (0 Bft) W-NW 299 ° 0 min 0,000 mm 1,7 UV-I 276 W/m² 5,0 °C 8,6 °C 1,6 km/h (1 Bft)
30.04.2018 09:35 8,6 °C 76 % 1003,3 hPa 0,0 mm 0,1 km/h (0 Bft) W-NW 299 ° 0 min 0,000 mm 1,7 UV-I 283 W/m² 4,6 °C 8,6 °C 1,6 km/h (1 Bft)
30.04.2018 09:36 8,6 °C 77 % 1003,3 hPa 0,0 mm 1,0 km/h (0 Bft) W-NW 299 ° 1 min 0,000 mm 1,7 UV-I 294 W/m² 4,8 °C 8,6 °C 3,2 km/h (1 Bft)
30.04.2018 09:37 8,7 °C 79 % 1003,3 hPa 0,0 mm 2,5 km/h (1 Bft) W-NW 300 ° 1 min 0,000 mm 1,8 UV-I 313 W/m² 5,3 °C 8,7 °C 3,2 km/h (1 Bft)
30.04.2018 09:38 8,8 °C 80 % 1003,3 hPa 0,0 mm 2,9 km/h (1 Bft) W-NW 300 ° 1 min 0,000 mm 1,8 UV-I 308 W/m² 5,5 °C 8,8 °C 4,8 km/h (1 Bft)
30.04.2018 09:39 8,9 °C 79 % 1003,3 hPa 0,0 mm 2,7 km/h (1 Bft) NW 322 ° 1 min 0,000 mm 1,8 UV-I 299 W/m² 5,5 °C 8,9 °C 8,0 km/h (2 Bft)
30.04.2018 09:40 8,9 °C 79 % 1003,3 hPa 0,0 mm 5,2 km/h (1 Bft) NW 326 ° 0 min 0,000 mm 1,7 UV-I 278 W/m² 5,5 °C 8,4 °C 6,4 km/h (2 Bft)
30.04.2018 09:41 9,0 °C 79 % 1003,3 hPa 0,0 mm 3,8 km/h (1 Bft) W-NW 291 ° 0 min 0,000 mm 1,6 UV-I 260 W/m² 5,6 °C 9,0 °C 6,4 km/h (2 Bft)
30.04.2018 09:42 9,1 °C 78 % 1003,3 hPa 0,0 mm 1,4 km/h (1 Bft) NW 308 ° 0 min 0,000 mm 1,6 UV-I 260 W/m² 5,5 °C 9,1 °C 4,8 km/h (1 Bft)
30.04.2018 09:43 9,1 °C 78 % 1003,3 hPa 0,0 mm 2,6 km/h (1 Bft) W-SW 254 ° 0 min 0,000 mm 1,6 UV-I 258 W/m² 5,5 °C 9,1 °C 4,8 km/h (1 Bft)
30.04.2018 09:44 9,2 °C 79 % 1003,3 hPa 0,0 mm 3,2 km/h (1 Bft) W-SW 256 ° 0 min 0,000 mm 1,6 UV-I 253 W/m² 5,8 °C 9,2 °C 6,4 km/h (2 Bft)
30.04.2018 09:45 9,3 °C 81 % 1003,3 hPa 0,0 mm 3,0 km/h (1 Bft) NW 304 ° 0 min 0,000 mm 1,6 UV-I 251 W/m² 6,2 °C 9,3 °C 4,8 km/h (1 Bft)
30.04.2018 09:46 9,3 °C 80 % 1003,3 hPa 0,0 mm 0,3 km/h (0 Bft) NW 304 ° 0 min 0,000 mm 1,6 UV-I 255 W/m² 6,0 °C 9,3 °C 1,6 km/h (1 Bft)
30.04.2018 09:47 9,2 °C 78 % 1003,3 hPa 0,0 mm 1,0 km/h (0 Bft) NW 317 ° 1 min 0,000 mm 1,8 UV-I 299 W/m² 5,6 °C 9,2 °C 3,2 km/h (1 Bft)
30.04.2018 09:48 9,2 °C 77 % 1003,3 hPa 0,0 mm 2,7 km/h (1 Bft) NW 317 ° 1 min 0,000 mm 2,0 UV-I 311 W/m² 5,4 °C 9,2 °C 4,8 km/h (1 Bft)
30.04.2018 09:49 9,3 °C 79 % 1003,3 hPa 0,0 mm 1,9 km/h (1 Bft) NW 317 ° 1 min 0,000 mm 2,0 UV-I 309 W/m² 5,8 °C 9,3 °C 3,2 km/h (1 Bft)
30.04.2018 09:50 9,3 °C 81 % 1003,4 hPa 0,0 mm 2,0 km/h (1 Bft) NW 317 ° 1 min 0,000 mm 2,0 UV-I 302 W/m² 6,2 °C 9,3 °C 4,8 km/h (1 Bft)
30.04.2018 09:51 9,3 °C 78 % 1003,4 hPa 0,0 mm 4,0 km/h (1 Bft) NW 317 ° 1 min 0,000 mm 2,0 UV-I 299 W/m² 5,7 °C 9,3 °C 4,8 km/h (1 Bft)
30.04.2018 09:52 9,3 °C 77 % 1003,4 hPa 0,0 mm 0,8 km/h (0 Bft) NW 317 ° 1 min 0,000 mm 2,1 UV-I 306 W/m² 5,5 °C 9,3 °C 3,2 km/h (1 Bft)
30.04.2018 09:53 9,2 °C 78 % 1003,4 hPa 0,0 mm 2,3 km/h (1 Bft) NW 317 ° 1 min 0,000 mm 2,2 UV-I 336 W/m² 5,6 °C 9,2 °C 3,2 km/h (1 Bft)
30.04.2018 09:54 9,2 °C 77 % 1003,3 hPa 0,0 mm 1,2 km/h (1 Bft) NW 317 ° 1 min 0,000 mm 2,1 UV-I 316 W/m² 5,4 °C 9,2 °C 3,2 km/h (1 Bft)
30.04.2018 09:55 9,1 °C 76 % 1003,3 hPa 0,0 mm 2,1 km/h (1 Bft) NW 317 ° 1 min 0,000 mm 2,1 UV-I 301 W/m² 5,1 °C 9,1 °C 3,2 km/h (1 Bft)
30.04.2018 09:56 9,1 °C 77 % 1003,3 hPa 0,0 mm 4,9 km/h (1 Bft) N 355 ° 1 min 0,000 mm 2,2 UV-I 304 W/m² 5,3 °C 8,8 °C 6,4 km/h (2 Bft)
30.04.2018 09:57 9,2 °C 78 % 1003,4 hPa 0,0 mm 2,3 km/h (1 Bft) N 355 ° 1 min 0,000 mm 2,8 UV-I 304 W/m² 5,6 °C 9,2 °C 4,8 km/h (1 Bft)
30.04.2018 09:58 9,2 °C 78 % 1003,4 hPa 0,0 mm 2,2 km/h (1 Bft) N 355 ° 1 min 0,000 mm 2,8 UV-I 513 W/m² 5,6 °C 9,2 °C 4,8 km/h (1 Bft)
30.04.2018 09:59 9,3 °C 78 % 1003,4 hPa 0,0 mm 2,5 km/h (1 Bft) N 355 ° 1 min 0,000 mm 2,5 UV-I 345 W/m² 5,7 °C 9,3 °C 4,8 km/h (1 Bft)
30.04.2018 10:00 9,3 °C 77 % 1003,4 hPa 0,0 mm 2,2 km/h (1 Bft) N 360 ° 1 min 0,000 mm 2,4 UV-I 441 W/m² 5,5 °C 9,3 °C 4,8 km/h (1 Bft)
30.04.2018 10:01 9,4 °C 79 % 1003,4 hPa 0,0 mm 5,3 km/h (1 Bft) N 5 ° 1 min 0,127 mm 4,0 UV-I 441 W/m² 5,9 °C 9,0 °C 6,4 km/h (2 Bft)
30.04.2018 10:02 9,4 °C 75 % 1003,4 hPa 0,0 mm 4,5 km/h (1 Bft) N 5 ° 1 min 0,000 mm 4,0 UV-I 795 W/m² 5,2 °C 9,4 °C 6,4 km/h (2 Bft)
30.04.2018 10:03 9,4 °C 77 % 1003,5 hPa 0,0 mm 2,4 km/h (1 Bft) N 5 ° 1 min 0,000 mm 4,1 UV-I 721 W/m² 5,6 °C 9,4 °C 3,2 km/h (1 Bft)
30.04.2018 10:04 9,6 °C 77 % 1003,5 hPa 0,0 mm 1,6 km/h (1 Bft) N 5 ° 1 min 0,000 mm 4,0 UV-I 721 W/m² 5,8 °C 9,6 °C 3,2 km/h (1 Bft)
30.04.2018 10:05 9,6 °C 76 % 1003,5 hPa 0,0 mm 1,0 km/h (0 Bft) N 355 ° 1 min 0,000 mm 3,9 UV-I 724 W/m² 5,6 °C 9,6 °C 4,8 km/h (1 Bft)
30.04.2018 10:06 9,7 °C 77 % 1003,5 hPa 0,0 mm 0,0 km/h (0 Bft) N 355 ° 1 min 0,000 mm 3,5 UV-I 689 W/m² 5,9 °C 9,7 °C 0,0 km/h (0 Bft)
30.04.2018 10:07 9,7 °C 74 % 1003,5 hPa 0,0 mm 0,8 km/h (0 Bft) N-NO 22 ° 1 min 0,000 mm 3,0 UV-I 689 W/m² 5,3 °C 9,7 °C 1,6 km/h (1 Bft)
30.04.2018 10:08 9,7 °C 73 % 1003,6 hPa 0,0 mm 0,8 km/h (0 Bft) N-NO 22 ° 1 min 0,000 mm 2,5 UV-I 346 W/m² 5,1 °C 9,7 °C 3,2 km/h (1 Bft)
30.04.2018 10:09 9,6 °C 73 % 1003,5 hPa 0,0 mm 0,7 km/h (0 Bft) N-NO 22 ° 1 min 0,000 mm 2,7 UV-I 339 W/m² 5,0 °C 9,6 °C 1,6 km/h (1 Bft)
30.04.2018 10:10 9,4 °C 76 % 1003,6 hPa 0,0 mm 2,7 km/h (1 Bft) S-SO 147 ° 1 min 0,000 mm 2,5 UV-I 346 W/m² 5,4 °C 9,4 °C 4,8 km/h (1 Bft)
30.04.2018 10:11 9,4 °C 77 % 1003,6 hPa 0,0 mm 2,0 km/h (1 Bft) S-SO 147 ° 1 min 0,000 mm 3,6 UV-I 346 W/m² 5,6 °C 9,4 °C 3,2 km/h (1 Bft)
30.04.2018 10:12 9,6 °C 74 % 1003,5 hPa 0,0 mm 0,2 km/h (0 Bft) S-SO 147 ° 1 min 0,000 mm 4,0 UV-I 682 W/m² 5,2 °C 9,6 °C 1,6 km/h (1 Bft)
30.04.2018 10:13 9,6 °C 73 % 1003,6 hPa 0,0 mm 0,0 km/h (0 Bft) S-SO 147 ° 1 min 0,000 mm 4,0 UV-I 721 W/m² 5,0 °C 9,6 °C 0,0 km/h (0 Bft)
30.04.2018 10:14 9,8 °C 75 % 1003,5 hPa 0,0 mm 0,0 km/h (0 Bft) S-SO 147 ° 1 min 0,000 mm 4,0 UV-I 715 W/m² 5,6 °C 9,8 °C 0,0 km/h (0 Bft)
30.04.2018 10:15 9,9 °C 75 % 1003,5 hPa 0,0 mm 0,0 km/h (0 Bft) S-SO 147 ° 1 min 0,000 mm 4,1 UV-I 689 W/m² 5,7 °C 9,9 °C 0,0 km/h (0 Bft)
30.04.2018 10:16 10,0 °C 74 % 1003,5 hPa 0,0 mm 2,1 km/h (1 Bft) O-NO 69 ° 1 min 0,000 mm 4,2 UV-I 677 W/m² 5,6 °C 10,0 °C 3,2 km/h (1 Bft)
30.04.2018 10:17 10,2 °C 76 % 1003,5 hPa 0,0 mm 3,2 km/h (1 Bft) N-NO 26 ° 1 min 0,000 mm 3,3 UV-I 677 W/m² 6,2 °C 10,2 °C 4,8 km/h (1 Bft)
30.04.2018 10:18 10,3 °C 75 % 1003,5 hPa 0,0 mm 2,5 km/h (1 Bft) N-NO 26 ° 1 min 0,000 mm 3,7 UV-I 554 W/m² 6,1 °C 10,3 °C 4,8 km/h (1 Bft)
30.04.2018 10:19 10,4 °C 75 % 1003,5 hPa 0,0 mm 1,3 km/h (1 Bft) N-NO 26 ° 1 min 0,000 mm 4,0 UV-I 554 W/m² 6,2 °C 10,4 °C 3,2 km/h (1 Bft)
30.04.2018 10:20 10,3 °C 74 % 1003,5 hPa 0,0 mm 1,3 km/h (1 Bft) N-NO 26 ° 1 min 0,000 mm 3,0 UV-I 554 W/m² 5,9 °C 10,3 °C 3,2 km/h (1 Bft)
30.04.2018 10:21 10,4 °C 74 % 1003,5 hPa 0,0 mm 2,9 km/h (1 Bft) N 355 ° 1 min 0,000 mm 4,4 UV-I 554 W/m² 6,0 °C 10,4 °C 4,8 km/h (1 Bft)
30.04.2018 10:22 10,5 °C 75 % 1003,5 hPa 0,0 mm 3,0 km/h (1 Bft) N 355 ° 1 min 0,000 mm 4,4 UV-I 722 W/m² 6,3 °C 10,5 °C 4,8 km/h (1 Bft)
30.04.2018 10:23 10,7 °C 77 % 1003,6 hPa 0,0 mm 2,9 km/h (1 Bft) W 271 ° 1 min 0,000 mm 3,7 UV-I 722 W/m² 6,8 °C 10,7 °C 6,4 km/h (2 Bft)
30.04.2018 10:24 10,8 °C 78 % 1003,6 hPa 0,0 mm 4,9 km/h (1 Bft) W 269 ° 1 min 0,000 mm 3,3 UV-I 722 W/m² 7,1 °C 10,8 °C 6,4 km/h (2 Bft)
30.04.2018 10:25 10,7 °C 73 % 1003,5 hPa 0,0 mm 3,7 km/h (1 Bft) W 261 ° 1 min 0,000 mm 3,9 UV-I 722 W/m² 6,1 °C 10,7 °C 4,8 km/h (1 Bft)
30.04.2018 10:26 10,5 °C 72 % 1003,5 hPa 0,0 mm 0,3 km/h (0 Bft) W 261 ° 1 min 0,000 mm 2,4 UV-I 722 W/m² 5,7 °C 10,5 °C 1,6 km/h (1 Bft)
30.04.2018 10:27 10,3 °C 71 % 1003,6 hPa 0,0 mm 0,1 km/h (0 Bft) W 261 ° 1 min 0,000 mm 4,5 UV-I 722 W/m² 5,3 °C 10,3 °C 1,6 km/h (1 Bft)
30.04.2018 10:28 10,3 °C 72 % 1003,6 hPa 0,0 mm 3,8 km/h (1 Bft) O 100 ° 1 min 0,000 mm 4,5 UV-I 737 W/m² 5,5 °C 10,3 °C 4,8 km/h (1 Bft)
30.04.2018 10:29 10,3 °C 74 % 1003,5 hPa 0,0 mm 4,0 km/h (1 Bft) SO 126 ° 1 min 0,000 mm 2,2 UV-I 737 W/m² 5,9 °C 10,3 °C 6,4 km/h (2 Bft)
30.04.2018 10:30 10,2 °C 73 % 1003,6 hPa 0,0 mm 2,6 km/h (1 Bft) SO 126 ° 1 min 0,000 mm 3,5 UV-I 737 W/m² 5,6 °C 10,2 °C 3,2 km/h (1 Bft)
30.04.2018 10:31 10,1 °C 73 % 1003,5 hPa 0,0 mm 3,8 km/h (1 Bft) SO 126 ° 1 min 0,000 mm 4,6 UV-I 737 W/m² 5,5 °C 10,1 °C 4,8 km/h (1 Bft)
30.04.2018 10:32 10,1 °C 75 % 1003,5 hPa 0,0 mm 3,1 km/h (1 Bft) O 98 ° 1 min 0,000 mm 4,5 UV-I 670 W/m² 5,9 °C 10,1 °C 4,8 km/h (1 Bft)
30.04.2018 10:33 10,2 °C 74 % 1003,5 hPa 0,0 mm 3,7 km/h (1 Bft) O-NO 78 ° 1 min 0,000 mm 4,5 UV-I 670 W/m² 5,8 °C 10,2 °C 4,8 km/h (1 Bft)
30.04.2018 10:34 10,3 °C 74 % 1003,5 hPa 0,0 mm 2,7 km/h (1 Bft) O-NO 78 ° 1 min 0,000 mm 4,6 UV-I 749 W/m² 5,9 °C 10,3 °C 4,8 km/h (1 Bft)
30.04.2018 10:35 10,4 °C 73 % 1003,5 hPa 0,0 mm 1,4 km/h (1 Bft) O-NO 78 ° 1 min 0,000 mm 4,7 UV-I 772 W/m² 5,8 °C 10,4 °C 1,6 km/h (1 Bft)
30.04.2018 10:36 10,4 °C 72 % 1003,5 hPa 0,0 mm 1,7 km/h (1 Bft) O-NO 78 ° 1 min 0,000 mm 4,8 UV-I 788 W/m² 5,6 °C 10,4 °C 4,8 km/h (1 Bft)
30.04.2018 10:37 10,4 °C 75 % 1003,5 hPa 0,0 mm 3,1 km/h (1 Bft) W-NW 296 ° 1 min 0,000 mm 4,8 UV-I 807 W/m² 6,2 °C 10,4 °C 6,4 km/h (2 Bft)
30.04.2018 10:38 10,7 °C 74 % 1003,5 hPa 0,0 mm 5,2 km/h (1 Bft) W-NW 296 ° 1 min 0,000 mm 4,9 UV-I 824 W/m² 6,3 °C 10,7 °C 6,4 km/h (2 Bft)
30.04.2018 10:39 10,7 °C 71 % 1003,5 hPa 0,0 mm 5,5 km/h (1 Bft) W 269 ° 1 min 0,000 mm 4,9 UV-I 844 W/m² 5,7 °C 10,7 °C 9,7 km/h (2 Bft)
30.04.2018 10:40 10,8 °C 71 % 1003,5 hPa 0,0 mm 7,2 km/h (2 Bft) W 259 ° 1 min 0,000 mm 4,9 UV-I 752 W/m² 5,8 °C 10,8 °C 11,3 km/h (2 Bft)
30.04.2018 10:41 10,7 °C 71 % 1003,5 hPa 0,0 mm 5,2 km/h (1 Bft) W-NW 288 ° 1 min 0,000 mm 4,6 UV-I 712 W/m² 5,7 °C 10,7 °C 9,7 km/h (2 Bft)
30.04.2018 10:42 10,7 °C 70 % 1003,6 hPa 0,0 mm 3,3 km/h (1 Bft) W 265 ° 1 min 0,000 mm 5,0 UV-I 712 W/m² 5,5 °C 10,7 °C 4,8 km/h (1 Bft)
30.04.2018 10:43 10,6 °C 71 % 1003,5 hPa 0,0 mm 0,3 km/h (0 Bft) W 265 ° 1 min 0,000 mm 4,9 UV-I 835 W/m² 5,6 °C 10,6 °C 1,6 km/h (1 Bft)
30.04.2018 10:44 10,6 °C 70 % 1003,5 hPa 0,0 mm 0,2 km/h (0 Bft) W 265 ° 1 min 0,000 mm 5,0 UV-I 849 W/m² 5,4 °C 10,6 °C 1,6 km/h (1 Bft)
30.04.2018 10:45 10,5 °C 71 % 1003,5 hPa 0,0 mm 0,0 km/h (0 Bft) W 265 ° 1 min 0,000 mm 5,1 UV-I 868 W/m² 5,5 °C 10,5 °C 0,0 km/h (0 Bft)
30.04.2018 10:46 10,7 °C 75 % 1003,5 hPa 0,0 mm 0,5 km/h (0 Bft) W 264 ° 1 min 0,000 mm 3,3 UV-I 868 W/m² 6,5 °C 10,7 °C 1,6 km/h (1 Bft)
30.04.2018 10:47 10,7 °C 72 % 1003,5 hPa 0,0 mm 4,9 km/h (1 Bft) SW 215 ° 1 min 0,000 mm 4,3 UV-I 868 W/m² 5,9 °C 10,7 °C 6,4 km/h (2 Bft)
30.04.2018 10:48 10,7 °C 70 % 1003,6 hPa 0,0 mm 5,3 km/h (1 Bft) S-SW 200 ° 1 min 0,000 mm 5,2 UV-I 868 W/m² 5,5 °C 10,7 °C 6,4 km/h (2 Bft)
30.04.2018 10:49 10,7 °C 71 % 1003,6 hPa 0,0 mm 2,2 km/h (1 Bft) S-SW 200 ° 1 min 0,000 mm 5,2 UV-I 874 W/m² 5,7 °C 10,7 °C 3,2 km/h (1 Bft)
30.04.2018 10:50 10,8 °C 72 % 1003,6 hPa 0,0 mm 0,4 km/h (0 Bft) S-SW 200 ° 1 min 0,000 mm 5,3 UV-I 896 W/m² 6,0 °C 10,8 °C 1,6 km/h (1 Bft)
30.04.2018 10:51 11,1 °C 75 % 1003,6 hPa 0,0 mm 1,5 km/h (1 Bft) S 176 ° 1 min 0,000 mm 5,3 UV-I 867 W/m² 6,8 °C 11,1 °C 3,2 km/h (1 Bft)
30.04.2018 10:52 11,4 °C 75 % 1003,6 hPa 0,0 mm 3,7 km/h (1 Bft) NO 44 ° 1 min 0,000 mm 5,5 UV-I 856 W/m² 7,1 °C 11,4 °C 6,4 km/h (2 Bft)
30.04.2018 10:53 11,5 °C 69 % 1003,6 hPa 0,0 mm 5,0 km/h (1 Bft) S 175 ° 1 min 0,000 mm 5,6 UV-I 856 W/m² 6,0 °C 11,5 °C 9,7 km/h (2 Bft)
30.04.2018 10:54 11,4 °C 69 % 1003,6 hPa 0,0 mm 4,3 km/h (1 Bft) S-SO 165 ° 1 min 0,000 mm 5,9 UV-I 1039 W/m² 5,9 °C 11,4 °C 9,7 km/h (2 Bft)
30.04.2018 10:55 11,6 °C 74 % 1003,6 hPa 0,0 mm 1,7 km/h (1 Bft) O 86 ° 1 min 0,000 mm 6,0 UV-I 1042 W/m² 7,1 °C 11,6 °C 3,2 km/h (1 Bft)
30.04.2018 10:56 11,8 °C 72 % 1003,5 hPa 0,0 mm 3,3 km/h (1 Bft) NO 40 ° 1 min 0,000 mm 5,9 UV-I 1044 W/m² 6,9 °C 11,8 °C 6,4 km/h (2 Bft)
30.04.2018 10:57 11,8 °C 73 % 1003,5 hPa 0,0 mm 5,6 km/h (1 Bft) O-NO 59 ° 1 min 0,000 mm 5,8 UV-I 1005 W/m² 7,1 °C 11,8 °C 6,4 km/h (2 Bft)
30.04.2018 10:58 11,9 °C 71 % 1003,5 hPa 0,0 mm 4,3 km/h (1 Bft) NO 38 ° 1 min 0,000 mm 5,7 UV-I 946 W/m² 6,8 °C 11,9 °C 8,0 km/h (2 Bft)
30.04.2018 10:59 12,1 °C 70 % 1003,5 hPa 0,0 mm 4,4 km/h (1 Bft) O-NO 61 ° 1 min 0,000 mm 5,6 UV-I 944 W/m² 6,8 °C 12,1 °C 6,4 km/h (2 Bft)
30.04.2018 11:00 12,3 °C 70 % 1003,5 hPa 0,0 mm 5,0 km/h (1 Bft) O-NO 70 ° 1 min 0,000 mm 3,7 UV-I 944 W/m² 7,0 °C 12,3 °C 6,4 km/h (2 Bft)
30.04.2018 11:01 12,1 °C 69 % 1003,5 hPa 0,0 mm 4,8 km/h (1 Bft) O-NO 67 ° 1 min 0,330 mm 2,7 UV-I 944 W/m² 6,6 °C 12,1 °C 6,4 km/h (2 Bft)
30.04.2018 11:02 11,9 °C 68 % 1003,5 hPa 0,0 mm 2,9 km/h (1 Bft) W-SW 244 ° 0 min 0,000 mm 2,6 UV-I 232 W/m² 6,2 °C 11,9 °C 4,8 km/h (1 Bft)
30.04.2018 11:03 11,7 °C 68 % 1003,5 hPa 0,0 mm 4,2 km/h (1 Bft) SW 231 ° 0 min 0,000 mm 2,6 UV-I 214 W/m² 6,0 °C 11,7 °C 4,8 km/h (1 Bft)
30.04.2018 11:04 11,4 °C 69 % 1003,5 hPa 0,0 mm 1,9 km/h (1 Bft) SW 231 ° 0 min 0,000 mm 2,6 UV-I 211 W/m² 5,9 °C 11,4 °C 4,8 km/h (1 Bft)
30.04.2018 11:05 11,2 °C 70 % 1003,4 hPa 0,0 mm 2,5 km/h (1 Bft) SW 231 ° 0 min 0,000 mm 2,7 UV-I 227 W/m² 5,9 °C 11,2 °C 3,2 km/h (1 Bft)
30.04.2018 11:06 11,1 °C 70 % 1003,5 hPa 0,0 mm 1,7 km/h (1 Bft) SW 231 ° 0 min 0,000 mm 2,7 UV-I 239 W/m² 5,8 °C 11,1 °C 3,2 km/h (1 Bft)
30.04.2018 11:07 10,9 °C 69 % 1003,5 hPa 0,0 mm 0,5 km/h (0 Bft) SW 231 ° 0 min 0,000 mm 2,7 UV-I 236 W/m² 5,4 °C 10,9 °C 1,6 km/h (1 Bft)
30.04.2018 11:08 10,8 °C 70 % 1003,5 hPa 0,0 mm 0,0 km/h (0 Bft) SW 231 ° 0 min 0,000 mm 3,5 UV-I 236 W/m² 5,6 °C 10,8 °C 0,0 km/h (0 Bft)
30.04.2018 11:09 10,8 °C 71 % 1003,5 hPa 0,0 mm 0,1 km/h (0 Bft) SW 231 ° 1 min 0,000 mm 3,0 UV-I 374 W/m² 5,8 °C 10,8 °C 1,6 km/h (1 Bft)
30.04.2018 11:10 10,8 °C 72 % 1003,5 hPa 0,0 mm 0,1 km/h (0 Bft) SW 231 ° 1 min 0,000 mm 4,4 UV-I 374 W/m² 6,0 °C 10,8 °C 1,6 km/h (1 Bft)
30.04.2018 11:11 11,0 °C 75 % 1003,6 hPa 0,0 mm 1,3 km/h (1 Bft) N-NW 336 ° 1 min 0,000 mm 3,1 UV-I 374 W/m² 6,7 °C 11,0 °C 3,2 km/h (1 Bft)
30.04.2018 11:12 11,3 °C 71 % 1003,6 hPa 0,0 mm 1,8 km/h (1 Bft) N 11 ° 1 min 0,000 mm 3,1 UV-I 355 W/m² 6,2 °C 11,3 °C 4,8 km/h (1 Bft)
30.04.2018 11:13 11,5 °C 70 % 1003,5 hPa 0,0 mm 2,1 km/h (1 Bft) N 10 ° 1 min 0,000 mm 3,1 UV-I 352 W/m² 6,2 °C 11,5 °C 3,2 km/h (1 Bft)
30.04.2018 11:14 11,6 °C 72 % 1003,6 hPa 0,0 mm 2,2 km/h (1 Bft) W-NW 290 ° 1 min 0,000 mm 3,0 UV-I 343 W/m² 6,7 °C 11,6 °C 3,2 km/h (1 Bft)
30.04.2018 11:15 11,6 °C 71 % 1003,6 hPa 0,0 mm 2,9 km/h (1 Bft) NO 49 ° 1 min 0,000 mm 2,9 UV-I 316 W/m² 6,5 °C 11,6 °C 8,0 km/h (2 Bft)
30.04.2018 11:16 11,6 °C 71 % 1003,6 hPa 0,0 mm 5,5 km/h (1 Bft) O 82 ° 1 min 0,000 mm 2,7 UV-I 304 W/m² 6,5 °C 11,6 °C 8,0 km/h (2 Bft)
30.04.2018 11:17 11,4 °C 69 % 1003,6 hPa 0,0 mm 5,4 km/h (1 Bft) O-SO 106 ° 1 min 0,000 mm 2,7 UV-I 297 W/m² 5,9 °C 11,4 °C 9,7 km/h (2 Bft)
30.04.2018 11:18 11,3 °C 69 % 1003,6 hPa 0,0 mm 3,7 km/h (1 Bft) O 82 ° 1 min 0,000 mm 2,7 UV-I 295 W/m² 5,8 °C 11,3 °C 6,4 km/h (2 Bft)
30.04.2018 11:19 11,2 °C 70 % 1003,6 hPa 0,0 mm 4,5 km/h (1 Bft) O 88 ° 1 min 0,000 mm 2,7 UV-I 295 W/m² 5,9 °C 11,2 °C 8,0 km/h (2 Bft)
30.04.2018 11:20 11,1 °C 69 % 1003,6 hPa 0,0 mm 3,9 km/h (1 Bft) O-NO 58 ° 1 min 0,000 mm 2,7 UV-I 295 W/m² 5,6 °C 11,1 °C 4,8 km/h (1 Bft)
30.04.2018 11:21 11,1 °C 70 % 1003,6 hPa 0,0 mm 4,2 km/h (1 Bft) O 86 ° 0 min 0,000 mm 2,7 UV-I 276 W/m² 5,8 °C 11,1 °C 8,0 km/h (2 Bft)
30.04.2018 11:22 11,0 °C 71 % 1003,6 hPa 0,0 mm 6,6 km/h (2 Bft) O 79 ° 0 min 0,000 mm 2,6 UV-I 272 W/m² 5,9 °C 11,0 °C 9,7 km/h (2 Bft)
30.04.2018 11:23 11,0 °C 71 % 1003,6 hPa 0,0 mm 5,5 km/h (1 Bft) O 84 ° 0 min 0,000 mm 2,7 UV-I 285 W/m² 5,9 °C 11,0 °C 8,0 km/h (2 Bft)
30.04.2018 11:24 11,0 °C 69 % 1003,6 hPa 0,0 mm 6,9 km/h (2 Bft) O-SO 106 ° 0 min 0,000 mm 2,7 UV-I 281 W/m² 5,5 °C 11,0 °C 9,7 km/h (2 Bft)
30.04.2018 11:25 10,9 °C 70 % 1003,6 hPa 0,0 mm 3,3 km/h (1 Bft) O-SO 106 ° 0 min 0,000 mm 2,8 UV-I 288 W/m² 5,6 °C 10,9 °C 4,8 km/h (1 Bft)
30.04.2018 11:26 11,0 °C 71 % 1003,6 hPa 0,0 mm 3,4 km/h (1 Bft) N 10 ° 0 min 0,000 mm 2,7 UV-I 288 W/m² 5,9 °C 11,0 °C 8,0 km/h (2 Bft)
30.04.2018 11:27 11,2 °C 70 % 1003,6 hPa 0,0 mm 4,5 km/h (1 Bft) N 5 ° 1 min 0,000 mm 2,7 UV-I 301 W/m² 5,9 °C 11,2 °C 6,4 km/h (2 Bft)
30.04.2018 11:28 11,3 °C 71 % 1003,6 hPa 0,0 mm 2,7 km/h (1 Bft) N 5 ° 1 min 0,000 mm 3,0 UV-I 334 W/m² 6,2 °C 11,3 °C 4,8 km/h (1 Bft)
30.04.2018 11:29 11,3 °C 69 % 1003,6 hPa 0,0 mm 1,7 km/h (1 Bft) N 5 ° 1 min 0,000 mm 2,9 UV-I 327 W/m² 5,8 °C 11,3 °C 4,8 km/h (1 Bft)
30.04.2018 11:30 11,2 °C 69 % 1003,6 hPa 0,0 mm 0,1 km/h (0 Bft) N 5 ° 1 min 0,000 mm 2,8 UV-I 306 W/m² 5,7 °C 11,2 °C 1,6 km/h (1 Bft)
30.04.2018 11:31 11,2 °C 69 % 1003,6 hPa 0,0 mm 1,3 km/h (1 Bft) N 5 ° 1 min 0,000 mm 2,8 UV-I 299 W/m² 5,7 °C 11,2 °C 3,2 km/h (1 Bft)
30.04.2018 11:32 11,2 °C 68 % 1003,5 hPa 0,0 mm 1,0 km/h (0 Bft) N 5 ° 0 min 0,000 mm 2,7 UV-I 265 W/m² 5,5 °C 11,2 °C 3,2 km/h (1 Bft)
30.04.2018 11:33 11,2 °C 69 % 1003,5 hPa 0,0 mm 1,7 km/h (1 Bft) N 5 ° 0 min 0,000 mm 2,7 UV-I 272 W/m² 5,7 °C 11,2 °C 3,2 km/h (1 Bft)
30.04.2018 11:34 11,3 °C 69 % 1003,5 hPa 0,0 mm 0,7 km/h (0 Bft) N 5 ° 0 min 0,000 mm 2,6 UV-I 271 W/m² 5,8 °C 11,3 °C 3,2 km/h (1 Bft)
30.04.2018 11:35 11,3 °C 70 % 1003,5 hPa 0,0 mm 0,3 km/h (0 Bft) N 5 ° 0 min 0,000 mm 2,7 UV-I 278 W/m² 6,0 °C 11,3 °C 1,6 km/h (1 Bft)
30.04.2018 11:36 11,3 °C 69 % 1003,5 hPa 0,0 mm 2,5 km/h (1 Bft) NO 39 ° 0 min 0,000 mm 2,7 UV-I 285 W/m² 5,8 °C 11,3 °C 4,8 km/h (1 Bft)
30.04.2018 11:37 11,3 °C 70 % 1003,5 hPa 0,0 mm 1,1 km/h (1 Bft) NO 40 ° 1 min 0,000 mm 2,8 UV-I 297 W/m² 6,0 °C 11,3 °C 3,2 km/h (1 Bft)
30.04.2018 11:38 11,3 °C 70 % 1003,4 hPa 0,0 mm 0,4 km/h (0 Bft) NO 40 ° 1 min 0,000 mm 2,8 UV-I 304 W/m² 6,0 °C 11,3 °C 1,6 km/h (1 Bft)
30.04.2018 11:39 11,3 °C 72 % 1003,4 hPa 0,0 mm 3,2 km/h (1 Bft) NO 40 ° 0 min 0,000 mm 2,7 UV-I 285 W/m² 6,4 °C 11,3 °C 4,8 km/h (1 Bft)
30.04.2018 11:40 11,3 °C 70 % 1003,4 hPa 0,0 mm 3,3 km/h (1 Bft) NO 53 ° 0 min 0,000 mm 2,6 UV-I 272 W/m² 6,0 °C 11,3 °C 4,8 km/h (1 Bft)
30.04.2018 11:41 11,3 °C 73 % 1003,4 hPa 0,0 mm 1,7 km/h (1 Bft) NO 53 ° 0 min 0,000 mm 2,6 UV-I 276 W/m² 6,6 °C 11,3 °C 3,2 km/h (1 Bft)
30.04.2018 11:42 11,3 °C 68 % 1003,4 hPa 0,0 mm 0,0 km/h (0 Bft) NO 53 ° 0 min 0,000 mm 2,6 UV-I 281 W/m² 5,6 °C 11,3 °C 0,0 km/h (0 Bft)
30.04.2018 11:43 11,3 °C 73 % 1003,4 hPa 0,0 mm 0,0 km/h (0 Bft) NO 53 ° 1 min 0,000 mm 2,6 UV-I 292 W/m² 6,6 °C 11,3 °C 0,0 km/h (0 Bft)
30.04.2018 11:44 11,4 °C 70 % 1003,4 hPa 0,0 mm 2,7 km/h (1 Bft) N-NO 24 ° 0 min 0,000 mm 2,6 UV-I 278 W/m² 6,1 °C 11,4 °C 6,4 km/h (2 Bft)
30.04.2018 11:45 11,6 °C 69 % 1003,4 hPa 0,0 mm 5,3 km/h (1 Bft) N-NO 24 ° 0 min 0,000 mm 2,5 UV-I 271 W/m² 6,1 °C 11,6 °C 6,4 km/h (2 Bft)
30.04.2018 11:46 11,7 °C 69 % 1003,4 hPa 0,0 mm 1,7 km/h (1 Bft) N-NO 24 ° 0 min 0,000 mm 2,4 UV-I 267 W/m² 6,2 °C 11,7 °C 4,8 km/h (1 Bft)
30.04.2018 11:47 11,7 °C 70 % 1003,4 hPa 0,0 mm 2,1 km/h (1 Bft) N-NO 20 ° 0 min 0,000 mm 2,4 UV-I 260 W/m² 6,4 °C 11,7 °C 4,8 km/h (1 Bft)
30.04.2018 11:48 11,7 °C 69 % 1003,5 hPa 0,0 mm 3,4 km/h (1 Bft) N-NO 25 ° 0 min 0,000 mm 2,3 UV-I 250 W/m² 6,2 °C 11,7 °C 6,4 km/h (2 Bft)
30.04.2018 11:49 11,8 °C 69 % 1003,4 hPa 0,0 mm 4,1 km/h (1 Bft) N-NO 25 ° 0 min 0,000 mm 2,3 UV-I 243 W/m² 6,3 °C 11,8 °C 6,4 km/h (2 Bft)
30.04.2018 11:50 11,7 °C 70 % 1003,4 hPa 0,0 mm 3,9 km/h (1 Bft) N-NO 19 ° 0 min 0,000 mm 2,2 UV-I 236 W/m² 6,4 °C 11,7 °C 4,8 km/h (1 Bft)
30.04.2018 11:51 11,8 °C 70 % 1003,4 hPa 0,0 mm 0,6 km/h (0 Bft) N-NO 19 ° 0 min 0,000 mm 2,2 UV-I 230 W/m² 6,5 °C 11,8 °C 1,6 km/h (1 Bft)
30.04.2018 11:52 11,7 °C 69 % 1003,4 hPa 0,0 mm 0,5 km/h (0 Bft) N-NO 19 ° 0 min 0,000 mm 2,3 UV-I 243 W/m² 6,2 °C 11,7 °C 3,2 km/h (1 Bft)
30.04.2018 11:53 11,6 °C 69 % 1003,4 hPa 0,0 mm 1,8 km/h (1 Bft) N-NO 19 ° 0 min 0,000 mm 2,2 UV-I 236 W/m² 6,1 °C 11,6 °C 3,2 km/h (1 Bft)
30.04.2018 11:54 11,7 °C 69 % 1003,4 hPa 0,0 mm 3,0 km/h (1 Bft) N-NO 28 ° 0 min 0,000 mm 2,2 UV-I 227 W/m² 6,2 °C 11,7 °C 4,8 km/h (1 Bft)
30.04.2018 11:55 11,7 °C 69 % 1003,4 hPa 0,0 mm 3,2 km/h (1 Bft) N-NO 26 ° 0 min 0,000 mm 2,3 UV-I 227 W/m² 6,2 °C 11,7 °C 4,8 km/h (1 Bft)
30.04.2018 11:56 11,8 °C 70 % 1003,3 hPa 0,0 mm 3,5 km/h (1 Bft) N 11 ° 0 min 0,000 mm 2,4 UV-I 258 W/m² 6,5 °C 11,8 °C 4,8 km/h (1 Bft)
30.04.2018 11:57 11,8 °C 70 % 1003,4 hPa 0,0 mm 3,1 km/h (1 Bft) N 11 ° 0 min 0,000 mm 2,6 UV-I 267 W/m² 6,5 °C 11,8 °C 6,4 km/h (2 Bft)
30.04.2018 11:58 11,8 °C 69 % 1003,4 hPa 0,0 mm 4,5 km/h (1 Bft) N-NO 26 ° 0 min 0,000 mm 2,5 UV-I 239 W/m² 6,3 °C 11,8 °C 8,0 km/h (2 Bft)
30.04.2018 11:59 11,7 °C 67 % 1003,4 hPa 0,0 mm 1,8 km/h (1 Bft) N-NO 26 ° 0 min 0,000 mm 2,5 UV-I 234 W/m² 5,8 °C 11,7 °C 3,2 km/h (1 Bft)
30.04.2018 12:00 11,7 °C 69 % 1003,4 hPa 0,0 mm 0,3 km/h (0 Bft) N-NO 26 ° 0 min 0,000 mm 2,5 UV-I 221 W/m² 6,2 °C 11,7 °C 3,2 km/h (1 Bft)
30.04.2018 12:01 11,6 °C 69 % 1003,4 hPa 0,0 mm 1,5 km/h (1 Bft) N-NO 25 ° 0 min 0,152 mm 2,5 UV-I 206 W/m² 6,1 °C 11,6 °C 3,2 km/h (1 Bft)
30.04.2018 12:02 11,6 °C 68 % 1003,4 hPa 0,0 mm 0,0 km/h (0 Bft) N-NO 25 ° 0 min 0,000 mm 2,5 UV-I 257 W/m² 5,9 °C 11,6 °C 0,0 km/h (0 Bft)
30.04.2018 12:03 11,5 °C 68 % 1003,4 hPa 0,0 mm 0,0 km/h (0 Bft) N-NO 25 ° 1 min 0,000 mm 3,9 UV-I 339 W/m² 5,8 °C 11,5 °C 0,0 km/h (0 Bft)
30.04.2018 12:04 11,6 °C 70 % 1003,4 hPa 0,0 mm 0,9 km/h (0 Bft) N-NO 33 ° 1 min 0,000 mm 5,9 UV-I 339 W/m² 6,3 °C 11,6 °C 3,2 km/h (1 Bft)
30.04.2018 12:05 11,9 °C 71 % 1003,4 hPa 0,0 mm 4,5 km/h (1 Bft) N-NO 24 ° 1 min 0,000 mm 5,4 UV-I 339 W/m² 6,8 °C 11,9 °C 4,8 km/h (1 Bft)
30.04.2018 12:06 12,2 °C 72 % 1003,4 hPa 0,0 mm 3,4 km/h (1 Bft) N-NO 24 ° 1 min 0,000 mm 5,0 UV-I 339 W/m² 7,3 °C 12,2 °C 4,8 km/h (1 Bft)
30.04.2018 12:07 12,3 °C 67 % 1003,4 hPa 0,0 mm 0,9 km/h (0 Bft) N-NO 24 ° 1 min 0,000 mm 5,9 UV-I 339 W/m² 6,4 °C 12,3 °C 1,6 km/h (1 Bft)
30.04.2018 12:08 12,4 °C 68 % 1003,4 hPa 0,0 mm 1,8 km/h (1 Bft) NO 53 ° 1 min 0,000 mm 5,9 UV-I 928 W/m² 6,7 °C 12,4 °C 4,8 km/h (1 Bft)
30.04.2018 12:09 12,5 °C 69 % 1003,4 hPa 0,0 mm 1,7 km/h (1 Bft) NO 53 ° 1 min 0,000 mm 6,1 UV-I 926 W/m² 7,0 °C 12,5 °C 4,8 km/h (1 Bft)
30.04.2018 12:10 12,6 °C 70 % 1003,4 hPa 0,0 mm 5,2 km/h (1 Bft) O-NO 70 ° 1 min 0,000 mm 6,2 UV-I 935 W/m² 7,3 °C 12,6 °C 6,4 km/h (2 Bft)
30.04.2018 12:11 12,7 °C 67 % 1003,5 hPa 0,0 mm 2,7 km/h (1 Bft) O-NO 70 ° 1 min 0,000 mm 6,3 UV-I 949 W/m² 6,7 °C 12,7 °C 4,8 km/h (1 Bft)
30.04.2018 12:12 12,7 °C 67 % 1003,4 hPa 0,0 mm 3,0 km/h (1 Bft) O-NO 70 ° 1 min 0,000 mm 6,3 UV-I 967 W/m² 6,7 °C 12,7 °C 4,8 km/h (1 Bft)
30.04.2018 12:13 12,8 °C 67 % 1003,4 hPa 0,2 mm 7,4 km/h (2 Bft) O 80 ° 1 min 0,000 mm 6,4 UV-I 1002 W/m² 6,8 °C 12,8 °C 11,3 km/h (2 Bft)
30.04.2018 12:14 13,0 °C 69 % 1003,4 hPa 0,0 mm 6,5 km/h (2 Bft) NO 53 ° 1 min 0,000 mm 6,5 UV-I 905 W/m² 7,4 °C 13,0 °C 9,7 km/h (2 Bft)
30.04.2018 12:15 12,9 °C 65 % 1003,4 hPa 0,0 mm 3,8 km/h (1 Bft) O-NO 59 ° 1 min 0,000 mm 6,5 UV-I 905 W/m² 6,5 °C 12,9 °C 6,4 km/h (2 Bft)
30.04.2018 12:16 12,9 °C 65 % 1003,4 hPa 0,0 mm 3,5 km/h (1 Bft) O-NO 61 ° 1 min 0,000 mm 6,5 UV-I 1013 W/m² 6,5 °C 12,9 °C 6,4 km/h (2 Bft)
30.04.2018 12:17 12,9 °C 67 % 1003,4 hPa 0,0 mm 2,9 km/h (1 Bft) N-NO 30 ° 1 min 0,000 mm 6,6 UV-I 1028 W/m² 6,9 °C 12,9 °C 4,8 km/h (1 Bft)
30.04.2018 12:18 12,9 °C 67 % 1003,4 hPa 0,0 mm 1,8 km/h (1 Bft) N-NO 28 ° 1 min 0,000 mm 6,7 UV-I 1053 W/m² 6,9 °C 12,9 °C 3,2 km/h (1 Bft)
30.04.2018 12:19 13,1 °C 67 % 1003,4 hPa 0,0 mm 1,3 km/h (1 Bft) N-NO 28 ° 1 min 0,000 mm 6,8 UV-I 1104 W/m² 7,1 °C 13,1 °C 3,2 km/h (1 Bft)
30.04.2018 12:20 13,2 °C 69 % 1003,3 hPa 0,0 mm 1,6 km/h (1 Bft) N 5 ° 1 min 0,000 mm 5,2 UV-I 1104 W/m² 7,6 °C 13,2 °C 4,8 km/h (1 Bft)
30.04.2018 12:21 13,3 °C 65 % 1003,3 hPa 0,0 mm 5,8 km/h (2 Bft) N-NO 24 ° 1 min 0,000 mm 6,7 UV-I 1104 W/m² 6,9 °C 13,3 °C 9,7 km/h (2 Bft)
30.04.2018 12:22 13,4 °C 70 % 1003,3 hPa 0,0 mm 6,6 km/h (2 Bft) N 355 ° 1 min 0,000 mm 3,7 UV-I 1104 W/m² 8,0 °C 13,4 °C 8,0 km/h (2 Bft)
30.04.2018 12:23 13,5 °C 66 % 1003,2 hPa 0,0 mm 9,7 km/h (2 Bft) N 360 ° 1 min 0,000 mm 3,4 UV-I 373 W/m² 7,3 °C 13,5 °C 16,1 km/h (3 Bft)
30.04.2018 12:24 13,5 °C 65 % 1003,2 hPa 0,0 mm 10,2 km/h (2 Bft) NW 309 ° 1 min 0,000 mm 3,4 UV-I 364 W/m² 7,1 °C 13,5 °C 14,5 km/h (3 Bft)
30.04.2018 12:25 13,3 °C 66 % 1003,2 hPa 0,0 mm 5,4 km/h (1 Bft) N-NW 344 ° 1 min 0,000 mm 3,4 UV-I 374 W/m² 7,1 °C 13,3 °C 8,0 km/h (2 Bft)
30.04.2018 12:26 13,3 °C 67 % 1003,2 hPa 0,0 mm 6,0 km/h (2 Bft) O-NO 59 ° 1 min 0,000 mm 3,5 UV-I 378 W/m² 7,3 °C 13,3 °C 8,0 km/h (2 Bft)
30.04.2018 12:27 13,2 °C 66 % 1003,3 hPa 0,0 mm 5,8 km/h (2 Bft) O 82 ° 1 min 0,000 mm 3,4 UV-I 360 W/m² 7,0 °C 13,2 °C 8,0 km/h (2 Bft)
30.04.2018 12:28 13,0 °C 66 % 1003,3 hPa 0,0 mm 6,1 km/h (2 Bft) O-NO 64 ° 1 min 0,000 mm 3,4 UV-I 355 W/m² 6,8 °C 13,0 °C 9,7 km/h (2 Bft)
30.04.2018 12:29 12,9 °C 67 % 1003,3 hPa 0,0 mm 7,8 km/h (2 Bft) O-NO 69 ° 1 min 0,000 mm 3,7 UV-I 397 W/m² 6,9 °C 12,9 °C 12,9 km/h (3 Bft)
30.04.2018 12:30 12,8 °C 66 % 1003,3 hPa 0,0 mm 5,3 km/h (1 Bft) O 101 ° 1 min 0,000 mm 5,0 UV-I 462 W/m² 6,6 °C 12,8 °C 6,4 km/h (2 Bft)
30.04.2018 12:31 12,6 °C 66 % 1003,3 hPa 0,0 mm 2,2 km/h (1 Bft) O 101 ° 1 min 0,000 mm 3,4 UV-I 385 W/m² 6,4 °C 12,6 °C 4,8 km/h (1 Bft)
30.04.2018 12:32 12,6 °C 67 % 1003,2 hPa 0,0 mm 1,5 km/h (1 Bft) O 101 ° 1 min 0,000 mm 3,8 UV-I 452 W/m² 6,6 °C 12,6 °C 3,2 km/h (1 Bft)
30.04.2018 12:33 12,7 °C 68 % 1003,2 hPa 0,0 mm 7,8 km/h (2 Bft) O-SO 108 ° 1 min 0,000 mm 4,1 UV-I 519 W/m² 6,9 °C 12,7 °C 12,9 km/h (3 Bft)
30.04.2018 12:34 12,8 °C 69 % 1003,3 hPa 0,0 mm 3,0 km/h (1 Bft) NO 36 ° 1 min 0,000 mm 3,4 UV-I 519 W/m² 7,3 °C 12,8 °C 9,7 km/h (2 Bft)
30.04.2018 12:35 12,7 °C 66 % 1003,2 hPa 0,0 mm 6,8 km/h (2 Bft) N-NO 31 ° 1 min 0,000 mm 3,3 UV-I 378 W/m² 6,5 °C 12,7 °C 12,9 km/h (3 Bft)
30.04.2018 12:36 12,7 °C 66 % 1003,2 hPa 0,0 mm 1,3 km/h (1 Bft) N-NO 31 ° 1 min 0,000 mm 3,5 UV-I 387 W/m² 6,5 °C 12,7 °C 4,8 km/h (1 Bft)
30.04.2018 12:37 12,7 °C 66 % 1003,2 hPa 0,0 mm 1,7 km/h (1 Bft) N-NO 31 ° 1 min 0,000 mm 3,6 UV-I 429 W/m² 6,5 °C 12,7 °C 3,2 km/h (1 Bft)
30.04.2018 12:38 12,7 °C 67 % 1003,2 hPa 0,0 mm 0,6 km/h (0 Bft) N-NO 31 ° 1 min 0,000 mm 6,8 UV-I 429 W/m² 6,7 °C 12,7 °C 1,6 km/h (1 Bft)
30.04.2018 12:39 12,8 °C 68 % 1003,2 hPa 0,0 mm 4,8 km/h (1 Bft) NW 316 ° 1 min 0,000 mm 6,8 UV-I 1164 W/m² 7,0 °C 12,8 °C 11,3 km/h (2 Bft)
30.04.2018 12:40 13,1 °C 70 % 1003,2 hPa 0,0 mm 6,7 km/h (2 Bft) NW 316 ° 1 min 0,000 mm 6,8 UV-I 1130 W/m² 7,8 °C 13,1 °C 8,0 km/h (2 Bft)
30.04.2018 12:41 13,4 °C 72 % 1003,2 hPa 0,0 mm 0,3 km/h (0 Bft) NW 318 ° 1 min 0,000 mm 3,8 UV-I 1130 W/m² 8,5 °C 13,4 °C 1,6 km/h (1 Bft)
30.04.2018 12:42 13,7 °C 67 % 1003,2 hPa 0,0 mm 9,9 km/h (2 Bft) N-NO 19 ° 1 min 0,000 mm 6,4 UV-I 1130 W/m² 7,7 °C 13,7 °C 14,5 km/h (3 Bft)
30.04.2018 12:43 13,6 °C 65 % 1003,2 hPa 0,0 mm 8,6 km/h (2 Bft) N-NO 15 ° 1 min 0,000 mm 3,6 UV-I 316 W/m² 7,1 °C 13,6 °C 14,5 km/h (3 Bft)
30.04.2018 12:44 13,4 °C 65 % 1003,2 hPa 0,0 mm 5,9 km/h (2 Bft) NW 325 ° 0 min 0,000 mm 3,0 UV-I 278 W/m² 7,0 °C 13,4 °C 8,0 km/h (2 Bft)
30.04.2018 12:45 13,2 °C 65 % 1003,1 hPa 0,0 mm 4,3 km/h (1 Bft) N-NW 348 ° 0 min 0,000 mm 2,9 UV-I 260 W/m² 6,8 °C 13,2 °C 6,4 km/h (2 Bft)
30.04.2018 12:46 13,1 °C 67 % 1003,2 hPa 0,0 mm 2,7 km/h (1 Bft) N-NW 346 ° 0 min 0,000 mm 2,8 UV-I 248 W/m² 7,1 °C 13,1 °C 4,8 km/h (1 Bft)
30.04.2018 12:47 13,1 °C 68 % 1003,2 hPa 0,0 mm 5,4 km/h (1 Bft) NW 324 ° 0 min 0,000 mm 2,8 UV-I 244 W/m² 7,3 °C 13,1 °C 8,0 km/h (2 Bft)
30.04.2018 12:48 13,1 °C 68 % 1003,2 hPa 0,0 mm 5,2 km/h (1 Bft) NW 323 ° 0 min 0,000 mm 3,0 UV-I 265 W/m² 7,3 °C 13,1 °C 8,0 km/h (2 Bft)
30.04.2018 12:49 13,0 °C 67 % 1003,2 hPa 0,0 mm 3,1 km/h (1 Bft) NW 325 ° 0 min 0,000 mm 3,0 UV-I 274 W/m² 7,0 °C 13,0 °C 6,4 km/h (2 Bft)
30.04.2018 12:50 12,9 °C 69 % 1003,2 hPa 0,0 mm 4,9 km/h (1 Bft) N-NW 341 ° 1 min 0,000 mm 3,1 UV-I 290 W/m² 7,4 °C 12,9 °C 8,0 km/h (2 Bft)
30.04.2018 12:51 13,1 °C 69 % 1003,2 hPa 0,0 mm 7,6 km/h (2 Bft) NW 316 ° 1 min 0,000 mm 3,2 UV-I 304 W/m² 7,5 °C 13,1 °C 12,9 km/h (3 Bft)
30.04.2018 12:52 13,0 °C 66 % 1003,2 hPa 0,0 mm 5,4 km/h (1 Bft) N-NW 331 ° 1 min 0,000 mm 3,2 UV-I 309 W/m² 6,8 °C 13,0 °C 8,0 km/h (2 Bft)
30.04.2018 12:53 12,9 °C 69 % 1003,2 hPa 0,0 mm 2,2 km/h (1 Bft) N-NW 338 ° 0 min 0,000 mm 2,7 UV-I 225 W/m² 7,4 °C 12,9 °C 4,8 km/h (1 Bft)
30.04.2018 12:54 12,9 °C 68 % 1003,2 hPa 0,0 mm 5,9 km/h (2 Bft) N-NW 339 ° 0 min 0,000 mm 2,8 UV-I 278 W/m² 7,1 °C 12,9 °C 9,7 km/h (2 Bft)
30.04.2018 12:55 12,9 °C 66 % 1003,2 hPa 0,0 mm 6,4 km/h (2 Bft) N-NW 338 ° 0 min 0,000 mm 3,1 UV-I 278 W/m² 6,7 °C 12,9 °C 9,7 km/h (2 Bft)
30.04.2018 12:56 12,9 °C 66 % 1003,2 hPa 0,0 mm 2,1 km/h (1 Bft) N-NO 22 ° 0 min 0,000 mm 6,8 UV-I 278 W/m² 6,7 °C 12,9 °C 4,8 km/h (1 Bft)
30.04.2018 12:57 13,1 °C 71 % 1003,2 hPa 0,0 mm 7,9 km/h (2 Bft) N-NO 16 ° 1 min 0,000 mm 6,4 UV-I 1051 W/m² 8,0 °C 13,1 °C 12,9 km/h (3 Bft)
30.04.2018 12:58 13,3 °C 67 % 1003,2 hPa 0,0 mm 3,4 km/h (1 Bft) N 360 ° 1 min 0,000 mm 6,8 UV-I 1051 W/m² 7,3 °C 13,3 °C 6,4 km/h (2 Bft)
30.04.2018 12:59 13,6 °C 67 % 1003,1 hPa 0,0 mm 4,4 km/h (1 Bft) N 360 ° 1 min 0,000 mm 6,7 UV-I 1069 W/m² 7,6 °C 13,6 °C 6,4 km/h (2 Bft)
30.04.2018 13:00 13,7 °C 66 % 1003,1 hPa 0,0 mm 8,8 km/h (2 Bft) N-NO 13 ° 1 min 0,000 mm 6,7 UV-I 1027 W/m² 7,5 °C 13,7 °C 12,9 km/h (3 Bft)
30.04.2018 13:01 13,8 °C 66 % 1003,1 hPa 0,0 mm 5,0 km/h (1 Bft) N-NW 331 ° 1 min 0,331 mm 6,7 UV-I 1025 W/m² 7,6 °C 13,8 °C 6,4 km/h (2 Bft)
30.04.2018 13:02 14,0 °C 67 % 1003,1 hPa 0,0 mm 5,3 km/h (1 Bft) NO 55 ° 1 min 0,000 mm 6,8 UV-I 1028 W/m² 8,0 °C 14,0 °C 8,0 km/h (2 Bft)
30.04.2018 13:03 14,0 °C 66 % 1003,1 hPa 0,0 mm 4,3 km/h (1 Bft) NO 53 ° 1 min 0,000 mm 6,8 UV-I 1028 W/m² 7,7 °C 14,0 °C 6,4 km/h (2 Bft)
30.04.2018 13:04 14,1 °C 65 % 1003,1 hPa 0,0 mm 3,9 km/h (1 Bft) O-NO 67 ° 1 min 0,000 mm 6,8 UV-I 1027 W/m² 7,6 °C 14,1 °C 6,4 km/h (2 Bft)
30.04.2018 13:05 14,1 °C 65 % 1003,1 hPa 0,0 mm 7,0 km/h (2 Bft) O 92 ° 1 min 0,000 mm 6,8 UV-I 1027 W/m² 7,6 °C 14,1 °C 11,3 km/h (2 Bft)
30.04.2018 13:06 14,0 °C 67 % 1003,1 hPa 0,0 mm 12,0 km/h (2 Bft) O 87 ° 1 min 0,000 mm 6,8 UV-I 1039 W/m² 8,0 °C 14,0 °C 14,5 km/h (3 Bft)
30.04.2018 13:07 13,9 °C 65 % 1003,1 hPa 0,0 mm 6,4 km/h (2 Bft) NO 50 ° 1 min 0,000 mm 5,6 UV-I 1039 W/m² 7,4 °C 13,9 °C 11,3 km/h (2 Bft)
30.04.2018 13:08 13,9 °C 65 % 1003,1 hPa 0,0 mm 4,3 km/h (1 Bft) O-NO 78 ° 1 min 0,000 mm 6,2 UV-I 1039 W/m² 7,4 °C 13,9 °C 11,3 km/h (2 Bft)
30.04.2018 13:09 14,0 °C 66 % 1003,1 hPa 0,0 mm 6,4 km/h (2 Bft) N 11 ° 1 min 0,000 mm 7,0 UV-I 1039 W/m² 7,7 °C 14,0 °C 8,0 km/h (2 Bft)
30.04.2018 13:10 14,2 °C 69 % 1003,1 hPa 0,0 mm 7,1 km/h (2 Bft) N 11 ° 1 min 0,000 mm 7,0 UV-I 1025 W/m² 8,6 °C 14,2 °C 12,9 km/h (3 Bft)
30.04.2018 13:11 14,4 °C 65 % 1003,1 hPa 0,0 mm 5,4 km/h (1 Bft) O-NO 77 ° 1 min 0,000 mm 6,9 UV-I 1048 W/m² 7,9 °C 14,4 °C 8,0 km/h (2 Bft)
30.04.2018 13:12 14,7 °C 69 % 1003,1 hPa 0,0 mm 8,4 km/h (2 Bft) O-NO 73 ° 1 min 0,000 mm 6,9 UV-I 1035 W/m² 9,1 °C 14,7 °C 12,9 km/h (3 Bft)
30.04.2018 13:13 14,6 °C 67 % 1003,1 hPa 0,0 mm 4,8 km/h (1 Bft) O 81 ° 1 min 0,000 mm 6,9 UV-I 1039 W/m² 8,5 °C 14,6 °C 6,4 km/h (2 Bft)
30.04.2018 13:14 14,3 °C 67 % 1003,0 hPa 0,0 mm 2,0 km/h (1 Bft) SO 146 ° 1 min 0,000 mm 6,9 UV-I 1046 W/m² 8,3 °C 14,3 °C 4,8 km/h (1 Bft)
30.04.2018 13:15 14,2 °C 64 % 1003,0 hPa 0,0 mm 3,2 km/h (1 Bft) O-NO 69 ° 1 min 0,000 mm 6,9 UV-I 1044 W/m² 7,5 °C 14,2 °C 6,4 km/h (2 Bft)
30.04.2018 13:16 14,1 °C 68 % 1003,0 hPa 0,0 mm 3,6 km/h (1 Bft) N 5 ° 1 min 0,000 mm 6,8 UV-I 1027 W/m² 8,3 °C 14,1 °C 12,9 km/h (3 Bft)
30.04.2018 13:17 14,2 °C 68 % 1003,0 hPa 0,0 mm 5,4 km/h (1 Bft) N-NO 27 ° 1 min 0,000 mm 6,8 UV-I 1013 W/m² 8,4 °C 14,2 °C 9,7 km/h (2 Bft)
30.04.2018 13:18 14,1 °C 64 % 1003,0 hPa 0,0 mm 4,2 km/h (1 Bft) NO 53 ° 1 min 0,000 mm 6,7 UV-I 1014 W/m² 7,4 °C 14,1 °C 8,0 km/h (2 Bft)
30.04.2018 13:19 14,0 °C 66 % 1003,0 hPa 0,0 mm 2,3 km/h (1 Bft) O-NO 65 ° 1 min 0,000 mm 5,0 UV-I 1014 W/m² 7,7 °C 14,0 °C 6,4 km/h (2 Bft)
30.04.2018 13:20 13,9 °C 64 % 1003,0 hPa 0,0 mm 4,5 km/h (1 Bft) O-SO 122 ° 1 min 0,000 mm 6,8 UV-I 1014 W/m² 7,2 °C 13,9 °C 6,4 km/h (2 Bft)
30.04.2018 13:21 13,8 °C 67 % 1003,0 hPa 0,0 mm 4,0 km/h (1 Bft) SO 138 ° 1 min 0,000 mm 6,9 UV-I 1035 W/m² 7,8 °C 13,8 °C 4,8 km/h (1 Bft)
30.04.2018 13:22 13,8 °C 66 % 1003,0 hPa 0,0 mm 3,2 km/h (1 Bft) S-SO 150 ° 1 min 0,000 mm 6,7 UV-I 1034 W/m² 7,6 °C 13,8 °C 4,8 km/h (1 Bft)
30.04.2018 13:23 13,9 °C 69 % 1002,9 hPa 0,0 mm 1,7 km/h (1 Bft) S-SO 150 ° 1 min 0,000 mm 6,9 UV-I 1039 W/m² 8,3 °C 13,9 °C 3,2 km/h (1 Bft)
30.04.2018 13:24 14,1 °C 68 % 1003,0 hPa 0,0 mm 1,0 km/h (0 Bft) S-SO 150 ° 1 min 0,000 mm 6,9 UV-I 1023 W/m² 8,3 °C 14,1 °C 3,2 km/h (1 Bft)
30.04.2018 13:25 13,9 °C 64 % 1003,0 hPa 0,0 mm 1,9 km/h (1 Bft) NO 39 ° 1 min 0,000 mm 7,0 UV-I 1030 W/m² 7,2 °C 13,9 °C 4,8 km/h (1 Bft)
30.04.2018 13:26 14,0 °C 67 % 1003,0 hPa 0,0 mm 3,5 km/h (1 Bft) N 5 ° 1 min 0,000 mm 7,0 UV-I 1044 W/m² 8,0 °C 14,0 °C 6,4 km/h (2 Bft)
30.04.2018 13:27 14,3 °C 72 % 1003,0 hPa 0,0 mm 5,7 km/h (1 Bft) NO 39 ° 1 min 0,000 mm 7,1 UV-I 1069 W/m² 9,3 °C 14,3 °C 8,0 km/h (2 Bft)
30.04.2018 13:28 14,7 °C 65 % 1003,0 hPa 0,0 mm 8,1 km/h (2 Bft) N-NO 26 ° 1 min 0,000 mm 7,1 UV-I 1071 W/m² 8,2 °C 14,7 °C 12,9 km/h (3 Bft)
30.04.2018 13:29 14,7 °C 63 % 1003,1 hPa 0,0 mm 4,3 km/h (1 Bft) O 83 ° 1 min 0,000 mm 6,9 UV-I 1065 W/m² 7,7 °C 14,7 °C 11,3 km/h (2 Bft)
30.04.2018 13:30 14,7 °C 64 % 1003,1 hPa 0,0 mm 8,6 km/h (2 Bft) O-NO 74 ° 1 min 0,000 mm 6,9 UV-I 1106 W/m² 8,0 °C 14,7 °C 12,9 km/h (3 Bft)
30.04.2018 13:31 14,6 °C 63 % 1003,0 hPa 0,0 mm 5,6 km/h (1 Bft) O-NO 74 ° 1 min 0,000 mm 3,8 UV-I 1106 W/m² 7,6 °C 14,6 °C 11,3 km/h (2 Bft)
30.04.2018 13:32 14,3 °C 62 % 1003,0 hPa 0,0 mm 5,1 km/h (1 Bft) NO 46 ° 1 min 0,000 mm 3,0 UV-I 1106 W/m² 7,1 °C 14,3 °C 8,0 km/h (2 Bft)
30.04.2018 13:33 14,3 °C 65 % 1003,1 hPa 0,0 mm 5,8 km/h (2 Bft) N-NO 16 ° 0 min 0,000 mm 2,9 UV-I 267 W/m² 7,8 °C 14,3 °C 9,7 km/h (2 Bft)
30.04.2018 13:34 14,3 °C 63 % 1003,1 hPa 0,0 mm 10,4 km/h (2 Bft) N-NO 30 ° 0 min 0,000 mm 2,8 UV-I 267 W/m² 7,4 °C 14,3 °C 16,1 km/h (3 Bft)
30.04.2018 13:35 14,3 °C 64 % 1003,2 hPa 0,0 mm 10,1 km/h (2 Bft) N 360 ° 1 min 0,000 mm 2,8 UV-I 316 W/m² 7,6 °C 14,3 °C 17,7 km/h (3 Bft)
30.04.2018 13:36 14,2 °C 64 % 1003,2 hPa 0,0 mm 4,0 km/h (1 Bft) NO 40 ° 1 min 0,000 mm 2,9 UV-I 334 W/m² 7,5 °C 14,2 °C 12,9 km/h (3 Bft)
30.04.2018 13:37 14,1 °C 63 % 1003,1 hPa 0,0 mm 3,0 km/h (1 Bft) N-NW 338 ° 1 min 0,000 mm 2,9 UV-I 350 W/m² 7,2 °C 14,1 °C 6,4 km/h (2 Bft)
30.04.2018 13:38 14,0 °C 65 % 1003,1 hPa 0,0 mm 4,4 km/h (1 Bft) NO 34 ° 1 min 0,000 mm 2,9 UV-I 353 W/m² 7,5 °C 14,0 °C 8,0 km/h (2 Bft)
30.04.2018 13:39 14,1 °C 66 % 1003,3 hPa 0,0 mm 11,4 km/h (2 Bft) N-NW 348 ° 1 min 0,000 mm 2,9 UV-I 346 W/m² 7,8 °C 14,1 °C 17,7 km/h (3 Bft)
30.04.2018 13:40 14,1 °C 65 % 1003,3 hPa 0,0 mm 9,9 km/h (2 Bft) N-NO 17 ° 1 min 0,000 mm 2,8 UV-I 339 W/m² 7,6 °C 14,1 °C 17,7 km/h (3 Bft)
30.04.2018 13:41 14,1 °C 65 % 1003,3 hPa 0,0 mm 10,3 km/h (2 Bft) O-NO 76 ° 1 min 0,000 mm 2,9 UV-I 341 W/m² 7,6 °C 14,1 °C 17,7 km/h (3 Bft)
30.04.2018 13:42 14,1 °C 65 % 1003,3 hPa 0,0 mm 4,4 km/h (1 Bft) NO 42 ° 1 min 0,000 mm 2,9 UV-I 346 W/m² 7,6 °C 14,1 °C 6,4 km/h (2 Bft)
30.04.2018 13:43 14,0 °C 65 % 1003,3 hPa 0,0 mm 6,4 km/h (2 Bft) N-NW 344 ° 1 min 0,000 mm 3,4 UV-I 367 W/m² 7,5 °C 14,0 °C 11,3 km/h (2 Bft)
30.04.2018 13:44 14,0 °C 66 % 1003,3 hPa 0,0 mm 4,6 km/h (1 Bft) NO 51 ° 1 min 0,000 mm 3,6 UV-I 367 W/m² 7,7 °C 14,0 °C 12,9 km/h (3 Bft)
30.04.2018 13:45 13,9 °C 64 % 1003,3 hPa 0,0 mm 6,7 km/h (2 Bft) O-NO 59 ° 1 min 0,000 mm 4,4 UV-I 452 W/m² 7,2 °C 13,9 °C 11,3 km/h (2 Bft)
30.04.2018 13:46 14,1 °C 68 % 1003,3 hPa 0,0 mm 6,0 km/h (2 Bft) O-NO 57 ° 1 min 0,000 mm 4,4 UV-I 452 W/m² 8,3 °C 14,1 °C 11,3 km/h (2 Bft)
30.04.2018 13:47 14,1 °C 65 % 1003,4 hPa 0,0 mm 8,1 km/h (2 Bft) NO 45 ° 1 min 0,000 mm 3,1 UV-I 408 W/m² 7,6 °C 14,1 °C 12,9 km/h (3 Bft)
30.04.2018 13:48 13,9 °C 66 % 1003,4 hPa 0,0 mm 6,2 km/h (2 Bft) O-SO 108 ° 1 min 0,000 mm 2,9 UV-I 408 W/m² 7,7 °C 13,9 °C 11,3 km/h (2 Bft)
30.04.2018 13:49 13,8 °C 65 % 1003,4 hPa 0,0 mm 5,5 km/h (1 Bft) N-NO 24 ° 1 min 0,000 mm 2,9 UV-I 306 W/m² 7,3 °C 13,8 °C 11,3 km/h (2 Bft)
30.04.2018 13:50 13,8 °C 65 % 1003,4 hPa 0,0 mm 7,2 km/h (2 Bft) N 360 ° 1 min 0,000 mm 2,9 UV-I 304 W/m² 7,3 °C 13,8 °C 12,9 km/h (3 Bft)
30.04.2018 13:51 13,9 °C 66 % 1003,4 hPa 0,0 mm 7,4 km/h (2 Bft) N 11 ° 1 min 0,000 mm 3,1 UV-I 350 W/m² 7,7 °C 13,9 °C 14,5 km/h (3 Bft)
30.04.2018 13:52 13,9 °C 65 % 1003,4 hPa 0,0 mm 5,8 km/h (2 Bft) N-NO 31 ° 1 min 0,000 mm 3,1 UV-I 343 W/m² 7,4 °C 13,9 °C 11,3 km/h (2 Bft)
30.04.2018 13:53 13,9 °C 65 % 1003,4 hPa 0,0 mm 5,5 km/h (1 Bft) N-NO 30 ° 1 min 0,000 mm 3,4 UV-I 378 W/m² 7,4 °C 13,9 °C 8,0 km/h (2 Bft)
30.04.2018 13:54 14,0 °C 65 % 1003,5 hPa 0,0 mm 5,6 km/h (1 Bft) N-NW 340 ° 1 min 0,000 mm 2,9 UV-I 378 W/m² 7,5 °C 14,0 °C 8,0 km/h (2 Bft)
30.04.2018 13:55 14,0 °C 66 % 1003,4 hPa 0,0 mm 3,0 km/h (1 Bft) O-SO 106 ° 0 min 0,000 mm 2,6 UV-I 283 W/m² 7,7 °C 14,0 °C 4,8 km/h (1 Bft)
30.04.2018 13:56 13,9 °C 65 % 1003,5 hPa 0,0 mm 4,6 km/h (1 Bft) O-NO 75 ° 0 min 0,000 mm 2,6 UV-I 283 W/m² 7,4 °C 13,9 °C 6,4 km/h (2 Bft)
30.04.2018 13:57 13,8 °C 63 % 1003,5 hPa 0,0 mm 3,1 km/h (1 Bft) NO 55 ° 0 min 0,000 mm 2,7 UV-I 283 W/m² 6,9 °C 13,8 °C 6,4 km/h (2 Bft)
30.04.2018 13:58 13,7 °C 66 % 1003,5 hPa 0,0 mm 5,4 km/h (1 Bft) O-NO 65 ° 0 min 0,000 mm 2,8 UV-I 288 W/m² 7,5 °C 13,7 °C 6,4 km/h (2 Bft)
30.04.2018 13:59 13,6 °C 65 % 1003,5 hPa 0,0 mm 4,1 km/h (1 Bft) NO 34 ° 1 min 0,000 mm 3,0 UV-I 336 W/m² 7,1 °C 13,6 °C 6,4 km/h (2 Bft)
30.04.2018 14:00 13,7 °C 67 % 1003,5 hPa 0,0 mm 6,7 km/h (2 Bft) NO 38 ° 1 min 0,000 mm 3,5 UV-I 336 W/m² 7,7 °C 13,7 °C 9,7 km/h (2 Bft)
30.04.2018 14:01 13,7 °C 63 % 1003,5 hPa 0,0 mm 2,9 km/h (1 Bft) NO 38 ° 1 min 0,381 mm 4,0 UV-I 336 W/m² 6,8 °C 13,7 °C 6,4 km/h (2 Bft)
30.04.2018 14:02 13,8 °C 66 % 1003,4 hPa 0,0 mm 4,4 km/h (1 Bft) N-NO 17 ° 1 min 0,000 mm 6,6 UV-I 336 W/m² 7,6 °C 13,8 °C 8,0 km/h (2 Bft)
30.04.2018 14:03 14,1 °C 68 % 1003,4 hPa 0,0 mm 0,3 km/h (0 Bft) N-NO 21 ° 1 min 0,000 mm 6,8 UV-I 336 W/m² 8,3 °C 14,1 °C 3,2 km/h (1 Bft)
30.04.2018 14:04 14,2 °C 66 % 1003,4 hPa 0,0 mm 5,2 km/h (1 Bft) O 83 ° 1 min 0,000 mm 6,8 UV-I 1139 W/m² 7,9 °C 14,2 °C 6,4 km/h (2 Bft)
30.04.2018 14:05 14,2 °C 65 % 1003,4 hPa 0,0 mm 6,1 km/h (2 Bft) O-NO 57 ° 1 min 0,000 mm 6,7 UV-I 1129 W/m² 7,7 °C 14,2 °C 8,0 km/h (2 Bft)
30.04.2018 14:06 14,3 °C 66 % 1003,5 hPa 0,0 mm 2,9 km/h (1 Bft) NO 55 ° 1 min 0,000 mm 3,2 UV-I 1129 W/m² 8,0 °C 14,3 °C 8,0 km/h (2 Bft)
30.04.2018 14:07 14,3 °C 63 % 1003,5 hPa 0,0 mm 2,5 km/h (1 Bft) NO 55 ° 1 min 0,000 mm 4,3 UV-I 452 W/m² 7,4 °C 14,3 °C 4,8 km/h (1 Bft)
30.04.2018 14:08 14,4 °C 66 % 1003,5 hPa 0,0 mm 7,2 km/h (2 Bft) N 355 ° 1 min 0,000 mm 4,0 UV-I 452 W/m² 8,1 °C 14,4 °C 12,9 km/h (3 Bft)
30.04.2018 14:09 14,6 °C 65 % 1003,6 hPa 0,0 mm 7,8 km/h (2 Bft) N-NW 339 ° 1 min 0,000 mm 3,8 UV-I 452 W/m² 8,1 °C 14,6 °C 14,5 km/h (3 Bft)
30.04.2018 14:10 14,6 °C 65 % 1003,6 hPa 0,0 mm 11,1 km/h (2 Bft) W-NW 300 ° 1 min 0,000 mm 3,1 UV-I 445 W/m² 8,1 °C 14,6 °C 17,7 km/h (3 Bft)
30.04.2018 14:11 14,4 °C 64 % 1003,5 hPa 0,0 mm 5,9 km/h (2 Bft) N-NW 328 ° 1 min 0,000 mm 2,8 UV-I 387 W/m² 7,7 °C 14,4 °C 11,3 km/h (2 Bft)
30.04.2018 14:12 14,2 °C 65 % 1003,5 hPa 0,0 mm 8,2 km/h (2 Bft) N-NW 329 ° 1 min 0,000 mm 2,6 UV-I 346 W/m² 7,7 °C 14,2 °C 12,9 km/h (3 Bft)
30.04.2018 14:13 14,1 °C 64 % 1003,5 hPa 0,0 mm 8,3 km/h (2 Bft) N 355 ° 1 min 0,000 mm 2,5 UV-I 329 W/m² 7,4 °C 14,1 °C 12,9 km/h (3 Bft)
30.04.2018 14:14 14,0 °C 64 % 1003,6 hPa 0,0 mm 8,7 km/h (2 Bft) N-NW 346 ° 1 min 0,000 mm 2,5 UV-I 304 W/m² 7,3 °C 14,0 °C 12,9 km/h (3 Bft)
30.04.2018 14:15 13,9 °C 64 % 1003,6 hPa 0,0 mm 7,9 km/h (2 Bft) N-NO 17 ° 0 min 0,000 mm 2,4 UV-I 287 W/m² 7,2 °C 13,9 °C 14,5 km/h (3 Bft)
30.04.2018 14:16 13,9 °C 66 % 1003,6 hPa 0,0 mm 6,9 km/h (2 Bft) NO 48 ° 0 min 0,000 mm 2,3 UV-I 265 W/m² 7,7 °C 13,9 °C 8,0 km/h (2 Bft)
30.04.2018 14:17 13,8 °C 64 % 1003,6 hPa 0,0 mm 3,8 km/h (1 Bft) NO 43 ° 0 min 0,000 mm 2,4 UV-I 269 W/m² 7,1 °C 13,8 °C 6,4 km/h (2 Bft)
30.04.2018 14:18 13,7 °C 64 % 1003,6 hPa 0,0 mm 3,9 km/h (1 Bft) NO 38 ° 0 min 0,000 mm 2,6 UV-I 269 W/m² 7,0 °C 13,7 °C 8,0 km/h (2 Bft)
30.04.2018 14:19 13,7 °C 65 % 1003,6 hPa 0,0 mm 4,8 km/h (1 Bft) NO 46 ° 1 min 0,000 mm 2,9 UV-I 304 W/m² 7,2 °C 13,7 °C 6,4 km/h (2 Bft)
30.04.2018 14:20 13,6 °C 65 % 1003,6 hPa 0,0 mm 3,1 km/h (1 Bft) NO 51 ° 1 min 0,000 mm 3,4 UV-I 353 W/m² 7,1 °C 13,6 °C 6,4 km/h (2 Bft)
30.04.2018 14:21 13,6 °C 66 % 1003,6 hPa 0,0 mm 5,6 km/h (1 Bft) N-NO 30 ° 1 min 0,000 mm 3,4 UV-I 380 W/m² 7,4 °C 13,6 °C 8,0 km/h (2 Bft)
30.04.2018 14:22 13,6 °C 66 % 1003,6 hPa 0,0 mm 5,3 km/h (1 Bft) N-NW 338 ° 1 min 0,000 mm 3,4 UV-I 339 W/m² 7,4 °C 13,6 °C 6,4 km/h (2 Bft)
30.04.2018 14:23 13,7 °C 66 % 1003,6 hPa 0,0 mm 6,0 km/h (2 Bft) NW 315 ° 1 min 0,000 mm 3,5 UV-I 318 W/m² 7,5 °C 13,7 °C 8,0 km/h (2 Bft)
30.04.2018 14:24 13,7 °C 66 % 1003,5 hPa 0,0 mm 4,7 km/h (1 Bft) N-NW 331 ° 1 min 0,000 mm 3,7 UV-I 388 W/m² 7,5 °C 13,7 °C 6,4 km/h (2 Bft)
30.04.2018 14:25 13,7 °C 66 % 1003,5 hPa 0,0 mm 6,4 km/h (2 Bft) N 350 ° 1 min 0,000 mm 5,5 UV-I 388 W/m² 7,5 °C 13,7 °C 9,7 km/h (2 Bft)
30.04.2018 14:26 13,8 °C 67 % 1003,6 hPa 0,0 mm 6,3 km/h (2 Bft) N 350 ° 1 min 0,000 mm 5,9 UV-I 388 W/m² 7,8 °C 13,8 °C 8,0 km/h (2 Bft)
30.04.2018 14:27 13,9 °C 67 % 1003,5 hPa 0,0 mm 4,0 km/h (1 Bft) NW 317 ° 1 min 0,000 mm 5,9 UV-I 898 W/m² 7,9 °C 13,9 °C 6,4 km/h (2 Bft)
30.04.2018 14:28 13,9 °C 65 % 1003,5 hPa 0,0 mm 5,8 km/h (2 Bft) N-NW 335 ° 1 min 0,000 mm 5,9 UV-I 865 W/m² 7,4 °C 13,9 °C 8,0 km/h (2 Bft)
30.04.2018 14:29 13,9 °C 66 % 1003,5 hPa 0,0 mm 5,6 km/h (1 Bft) N 355 ° 1 min 0,000 mm 5,8 UV-I 861 W/m² 7,7 °C 13,9 °C 9,7 km/h (2 Bft)
30.04.2018 14:30 14,0 °C 66 % 1003,5 hPa 0,0 mm 6,3 km/h (2 Bft) N 360 ° 1 min 0,000 mm 5,8 UV-I 856 W/m² 7,7 °C 14,0 °C 8,0 km/h (2 Bft)
30.04.2018 14:31 14,1 °C 65 % 1003,5 hPa 0,0 mm 4,2 km/h (1 Bft) N-NW 346 ° 1 min 0,000 mm 5,8 UV-I 854 W/m² 7,6 °C 14,1 °C 6,4 km/h (2 Bft)
30.04.2018 14:32 14,2 °C 64 % 1003,5 hPa 0,0 mm 3,0 km/h (1 Bft) N-NW 346 ° 1 min 0,000 mm 5,9 UV-I 849 W/m² 7,5 °C 14,2 °C 4,8 km/h (1 Bft)
30.04.2018 14:33 14,2 °C 63 % 1003,4 hPa 0,0 mm 0,1 km/h (0 Bft) N-NW 346 ° 1 min 0,000 mm 5,9 UV-I 849 W/m² 7,3 °C 14,2 °C 1,6 km/h (1 Bft)
30.04.2018 14:34 14,3 °C 67 % 1003,4 hPa 0,0 mm 2,5 km/h (1 Bft) N 360 ° 1 min 0,000 mm 5,9 UV-I 851 W/m² 8,3 °C 14,3 °C 3,2 km/h (1 Bft)
30.04.2018 14:35 14,4 °C 69 % 1003,4 hPa 0,0 mm 3,6 km/h (1 Bft) NO 36 ° 1 min 0,000 mm 5,8 UV-I 849 W/m² 8,8 °C 14,4 °C 6,4 km/h (2 Bft)
30.04.2018 14:36 14,4 °C 67 % 1003,5 hPa 0,0 mm 8,0 km/h (2 Bft) NO 35 ° 1 min 0,000 mm 5,8 UV-I 849 W/m² 8,4 °C 14,4 °C 14,5 km/h (3 Bft)
30.04.2018 14:37 14,3 °C 62 % 1003,5 hPa 0,0 mm 2,7 km/h (1 Bft) O 87 ° 1 min 0,000 mm 5,8 UV-I 858 W/m² 7,1 °C 14,3 °C 8,0 km/h (2 Bft)
30.04.2018 14:38 14,4 °C 64 % 1003,5 hPa 0,0 mm 4,2 km/h (1 Bft) O 90 ° 1 min 0,000 mm 5,5 UV-I 863 W/m² 7,7 °C 14,4 °C 6,4 km/h (2 Bft)
30.04.2018 14:39 14,4 °C 64 % 1003,5 hPa 0,0 mm 3,8 km/h (1 Bft) SO 131 ° 1 min 0,000 mm 5,9 UV-I 877 W/m² 7,7 °C 14,4 °C 4,8 km/h (1 Bft)
30.04.2018 14:40 14,4 °C 63 % 1003,4 hPa 0,0 mm 0,7 km/h (0 Bft) SO 131 ° 1 min 0,000 mm 5,9 UV-I 976 W/m² 7,4 °C 14,4 °C 1,6 km/h (1 Bft)
30.04.2018 14:41 14,5 °C 66 % 1003,4 hPa 0,0 mm 7,2 km/h (2 Bft) N-NW 348 ° 1 min 0,000 mm 6,2 UV-I 1011 W/m² 8,2 °C 14,5 °C 12,9 km/h (3 Bft)
30.04.2018 14:42 14,7 °C 65 % 1003,4 hPa 0,0 mm 10,9 km/h (2 Bft) N 355 ° 1 min 0,000 mm 6,3 UV-I 1046 W/m² 8,2 °C 14,7 °C 16,1 km/h (3 Bft)
30.04.2018 14:43 14,7 °C 62 % 1003,5 hPa 0,0 mm 3,9 km/h (1 Bft) NW 323 ° 1 min 0,000 mm 5,4 UV-I 1076 W/m² 7,5 °C 14,7 °C 6,4 km/h (2 Bft)
30.04.2018 14:44 14,7 °C 65 % 1003,5 hPa 0,0 mm 5,8 km/h (2 Bft) N-NO 22 ° 1 min 0,000 mm 4,0 UV-I 1076 W/m² 8,2 °C 14,7 °C 11,3 km/h (2 Bft)
30.04.2018 14:45 14,7 °C 64 % 1003,5 hPa 0,0 mm 7,9 km/h (2 Bft) N 360 ° 1 min 0,000 mm 3,4 UV-I 1076 W/m² 8,0 °C 14,7 °C 16,1 km/h (3 Bft)
30.04.2018 14:46 14,7 °C 65 % 1003,5 hPa 0,0 mm 9,3 km/h (2 Bft) N-NW 336 ° 1 min 0,000 mm 3,0 UV-I 338 W/m² 8,2 °C 14,7 °C 14,5 km/h (3 Bft)
30.04.2018 14:47 14,6 °C 64 % 1003,5 hPa 0,0 mm 7,2 km/h (2 Bft) N 9 ° 1 min 0,000 mm 2,9 UV-I 348 W/m² 7,9 °C 14,6 °C 14,5 km/h (3 Bft)
30.04.2018 14:48 14,6 °C 65 % 1003,6 hPa 0,0 mm 8,4 km/h (2 Bft) N-NO 29 ° 1 min 0,000 mm 2,8 UV-I 352 W/m² 8,1 °C 14,6 °C 16,1 km/h (3 Bft)
30.04.2018 14:49 14,4 °C 64 % 1003,6 hPa 0,0 mm 5,9 km/h (2 Bft) N 355 ° 1 min 0,000 mm 2,7 UV-I 338 W/m² 7,7 °C 14,4 °C 12,9 km/h (3 Bft)
30.04.2018 14:50 14,3 °C 64 % 1003,6 hPa 0,0 mm 7,6 km/h (2 Bft) NW 325 ° 1 min 0,000 mm 2,6 UV-I 311 W/m² 7,6 °C 14,3 °C 16,1 km/h (3 Bft)
30.04.2018 14:51 14,2 °C 66 % 1003,5 hPa 0,0 mm 7,5 km/h (2 Bft) N-NW 336 ° 0 min 0,000 mm 2,5 UV-I 272 W/m² 7,9 °C 14,2 °C 12,9 km/h (3 Bft)
30.04.2018 14:52 14,2 °C 66 % 1003,4 hPa 0,0 mm 3,2 km/h (1 Bft) NW 315 ° 1 min 0,000 mm 2,6 UV-I 302 W/m² 7,9 °C 14,2 °C 8,0 km/h (2 Bft)
30.04.2018 14:53 14,2 °C 66 % 1003,5 hPa 0,0 mm 3,1 km/h (1 Bft) N-NW 332 ° 1 min 0,000 mm 2,8 UV-I 302 W/m² 7,9 °C 14,2 °C 9,7 km/h (2 Bft)
30.04.2018 14:54 14,3 °C 67 % 1003,5 hPa 0,0 mm 5,1 km/h (1 Bft) N-NO 26 ° 1 min 0,000 mm 5,4 UV-I 302 W/m² 8,3 °C 14,3 °C 6,4 km/h (2 Bft)
30.04.2018 14:55 14,6 °C 67 % 1003,5 hPa 0,0 mm 8,9 km/h (2 Bft) NO 44 ° 1 min 0,000 mm 5,6 UV-I 302 W/m² 8,5 °C 14,6 °C 12,9 km/h (3 Bft)
30.04.2018 14:56 14,7 °C 63 % 1003,5 hPa 0,0 mm 6,1 km/h (2 Bft) N 360 ° 1 min 0,000 mm 5,5 UV-I 946 W/m² 7,7 °C 14,7 °C 11,3 km/h (2 Bft)
30.04.2018 14:57 14,7 °C 64 % 1003,5 hPa 0,0 mm 4,6 km/h (1 Bft) N-NO 25 ° 1 min 0,000 mm 5,2 UV-I 946 W/m² 8,0 °C 14,7 °C 6,4 km/h (2 Bft)
30.04.2018 14:58 14,7 °C 65 % 1003,5 hPa 0,0 mm 5,7 km/h (1 Bft) N-NO 14 ° 1 min 0,000 mm 5,2 UV-I 828 W/m² 8,2 °C 14,7 °C 8,0 km/h (2 Bft)
30.04.2018 14:59 14,8 °C 68 % 1003,4 hPa 0,0 mm 4,6 km/h (1 Bft) N-NO 13 ° 1 min 0,000 mm 5,4 UV-I 849 W/m² 9,0 °C 14,8 °C 6,4 km/h (2 Bft)
30.04.2018 15:00 15,0 °C 66 % 1003,4 hPa 0,0 mm 6,3 km/h (2 Bft) N 5 ° 1 min 0,000 mm 5,4 UV-I 854 W/m² 8,7 °C 15,0 °C 8,0 km/h (2 Bft)
30.04.2018 15:01 15,1 °C 63 % 1003,5 hPa 0,0 mm 4,0 km/h (1 Bft) N-NO 13 ° 1 min 0,355 mm 5,5 UV-I 860 W/m² 8,1 °C 15,1 °C 8,0 km/h (2 Bft)
30.04.2018 15:02 14,9 °C 61 % 1003,5 hPa 0,0 mm 4,4 km/h (1 Bft) N-NO 28 ° 1 min 0,000 mm 5,5 UV-I 847 W/m² 7,4 °C 14,9 °C 8,0 km/h (2 Bft)
30.04.2018 15:03 14,9 °C 66 % 1003,4 hPa 0,0 mm 1,3 km/h (1 Bft) N-NO 28 ° 1 min 0,000 mm 5,4 UV-I 842 W/m² 8,6 °C 14,9 °C 3,2 km/h (1 Bft)
30.04.2018 15:04 14,9 °C 64 % 1003,5 hPa 0,0 mm 0,9 km/h (0 Bft) NO 41 ° 1 min 0,000 mm 5,5 UV-I 844 W/m² 8,2 °C 14,9 °C 3,2 km/h (1 Bft)
30.04.2018 15:05 15,0 °C 64 % 1003,5 hPa 0,0 mm 1,2 km/h (1 Bft) O-NO 61 ° 1 min 0,000 mm 5,4 UV-I 846 W/m² 8,2 °C 15,0 °C 3,2 km/h (1 Bft)
30.04.2018 15:06 14,9 °C 63 % 1003,4 hPa 0,0 mm 2,8 km/h (1 Bft) O-NO 75 ° 1 min 0,000 mm 5,4 UV-I 840 W/m² 7,9 °C 14,9 °C 11,3 km/h (2 Bft)
30.04.2018 15:07 15,0 °C 66 % 1003,5 hPa 0,0 mm 4,6 km/h (1 Bft) O-NO 66 ° 1 min 0,000 mm 5,4 UV-I 835 W/m² 8,7 °C 15,0 °C 8,0 km/h (2 Bft)
30.04.2018 15:08 15,1 °C 65 % 1003,4 hPa 0,0 mm 7,5 km/h (2 Bft) NO 46 ° 1 min 0,000 mm 4,8 UV-I 809 W/m² 8,6 °C 15,1 °C 14,5 km/h (3 Bft)
30.04.2018 15:09 15,1 °C 64 % 1003,5 hPa 0,0 mm 6,0 km/h (2 Bft) NO 36 ° 1 min 0,000 mm 5,3 UV-I 823 W/m² 8,3 °C 15,1 °C 11,3 km/h (2 Bft)
30.04.2018 15:10 14,9 °C 63 % 1003,4 hPa 0,0 mm 7,4 km/h (2 Bft) NO 44 ° 1 min 0,000 mm 5,3 UV-I 838 W/m² 7,9 °C 14,9 °C 9,7 km/h (2 Bft)
30.04.2018 15:11 14,9 °C 63 % 1003,4 hPa 0,0 mm 10,0 km/h (2 Bft) N-NW 338 ° 1 min 0,000 mm 5,3 UV-I 840 W/m² 7,9 °C 14,9 °C 14,5 km/h (3 Bft)
30.04.2018 15:12 15,1 °C 62 % 1003,4 hPa 0,0 mm 5,8 km/h (2 Bft) N-NO 19 ° 1 min 0,000 mm 5,4 UV-I 840 W/m² 7,9 °C 15,1 °C 9,7 km/h (2 Bft)
30.04.2018 15:13 15,3 °C 68 % 1003,5 hPa 0,0 mm 4,5 km/h (1 Bft) N 11 ° 1 min 0,000 mm 5,4 UV-I 870 W/m² 9,4 °C 15,3 °C 6,4 km/h (2 Bft)
30.04.2018 15:14 15,3 °C 63 % 1003,5 hPa 0,0 mm 4,7 km/h (1 Bft) N 355 ° 1 min 0,000 mm 5,4 UV-I 896 W/m² 8,3 °C 15,3 °C 6,4 km/h (2 Bft)
30.04.2018 15:15 15,4 °C 63 % 1003,4 hPa 0,0 mm 3,5 km/h (1 Bft) N-NW 338 ° 1 min 0,000 mm 5,6 UV-I 972 W/m² 8,4 °C 15,4 °C 6,4 km/h (2 Bft)
30.04.2018 15:16 15,3 °C 61 % 1003,4 hPa 0,0 mm 8,0 km/h (2 Bft) N 9 ° 1 min 0,000 mm 3,0 UV-I 972 W/m² 7,8 °C 15,3 °C 11,3 km/h (2 Bft)
30.04.2018 15:17 15,2 °C 60 % 1003,4 hPa 0,0 mm 6,4 km/h (2 Bft) N-NO 13 ° 1 min 0,000 mm 2,9 UV-I 292 W/m² 7,5 °C 15,2 °C 8,0 km/h (2 Bft)
30.04.2018 15:18 15,1 °C 61 % 1003,4 hPa 0,0 mm 5,8 km/h (2 Bft) N 10 ° 1 min 0,000 mm 3,1 UV-I 294 W/m² 7,6 °C 15,1 °C 9,7 km/h (2 Bft)
30.04.2018 15:19 14,9 °C 62 % 1003,4 hPa 0,0 mm 0,7 km/h (0 Bft) N 5 ° 1 min 0,000 mm 5,6 UV-I 294 W/m² 7,7 °C 14,9 °C 3,2 km/h (1 Bft)
30.04.2018 15:20 15,1 °C 67 % 1003,4 hPa 0,0 mm 4,0 km/h (1 Bft) N 11 ° 1 min 0,000 mm 5,4 UV-I 940 W/m² 9,0 °C 15,1 °C 8,0 km/h (2 Bft)
30.04.2018 15:21 15,3 °C 65 % 1003,4 hPa 0,0 mm 5,8 km/h (2 Bft) NO 44 ° 1 min 0,000 mm 4,8 UV-I 940 W/m² 8,8 °C 15,3 °C 9,7 km/h (2 Bft)
30.04.2018 15:22 15,3 °C 64 % 1003,4 hPa 0,0 mm 2,2 km/h (1 Bft) NW 313 ° 1 min 0,000 mm 3,0 UV-I 940 W/m² 8,5 °C 15,3 °C 6,4 km/h (2 Bft)
30.04.2018 15:23 15,1 °C 63 % 1003,5 hPa 0,0 mm 1,3 km/h (1 Bft) NW 313 ° 1 min 0,000 mm 4,3 UV-I 940 W/m² 8,1 °C 15,1 °C 3,2 km/h (1 Bft)
30.04.2018 15:24 14,9 °C 64 % 1003,4 hPa 0,0 mm 1,4 km/h (1 Bft) N-NW 340 ° 1 min 0,000 mm 3,1 UV-I 940 W/m² 8,2 °C 14,9 °C 6,4 km/h (2 Bft)
30.04.2018 15:25 14,8 °C 63 % 1003,5 hPa 0,0 mm 5,6 km/h (1 Bft) NW 320 ° 1 min 0,000 mm 4,0 UV-I 376 W/m² 7,8 °C 14,8 °C 12,9 km/h (3 Bft)
30.04.2018 15:26 14,8 °C 63 % 1003,5 hPa 0,0 mm 7,8 km/h (2 Bft) NW 315 ° 1 min 0,000 mm 2,8 UV-I 294 W/m² 7,8 °C 14,8 °C 11,3 km/h (2 Bft)
30.04.2018 15:27 14,8 °C 62 % 1003,4 hPa 0,0 mm 6,3 km/h (2 Bft) N-NW 337 ° 0 min 0,000 mm 2,6 UV-I 202 W/m² 7,6 °C 14,8 °C 12,9 km/h (3 Bft)
30.04.2018 15:28 14,7 °C 62 % 1003,5 hPa 0,0 mm 5,1 km/h (1 Bft) N-NW 341 ° 0 min 0,000 mm 2,4 UV-I 188 W/m² 7,5 °C 14,7 °C 6,4 km/h (2 Bft)
30.04.2018 15:29 14,6 °C 63 % 1003,5 hPa 0,0 mm 4,7 km/h (1 Bft) N-NW 339 ° 0 min 0,000 mm 2,4 UV-I 190 W/m² 7,6 °C 14,6 °C 6,4 km/h (2 Bft)
30.04.2018 15:30 14,6 °C 65 % 1003,4 hPa 0,0 mm 3,7 km/h (1 Bft) NW 314 ° 0 min 0,000 mm 2,5 UV-I 239 W/m² 8,1 °C 14,6 °C 4,8 km/h (1 Bft)
30.04.2018 15:31 14,6 °C 67 % 1003,4 hPa 0,0 mm 2,6 km/h (1 Bft) N 355 ° 0 min 0,000 mm 2,6 UV-I 229 W/m² 8,5 °C 14,6 °C 4,8 km/h (1 Bft)
30.04.2018 15:32 14,6 °C 64 % 1003,4 hPa 0,0 mm 5,2 km/h (1 Bft) O-NO 59 ° 0 min 0,000 mm 2,7 UV-I 234 W/m² 7,9 °C 14,6 °C 11,3 km/h (2 Bft)
30.04.2018 15:33 14,5 °C 64 % 1003,4 hPa 0,0 mm 7,2 km/h (2 Bft) O-NO 66 ° 0 min 0,000 mm 2,6 UV-I 165 W/m² 7,8 °C 14,5 °C 14,5 km/h (3 Bft)
30.04.2018 15:34 14,4 °C 63 % 1003,3 hPa 0,0 mm 3,2 km/h (1 Bft) O 90 ° 0 min 0,000 mm 2,4 UV-I 151 W/m² 7,4 °C 14,4 °C 9,7 km/h (2 Bft)
30.04.2018 15:35 14,4 °C 64 % 1003,4 hPa 0,0 mm 6,5 km/h (2 Bft) O-NO 61 ° 0 min 0,000 mm 2,8 UV-I 202 W/m² 7,7 °C 14,4 °C 11,3 km/h (2 Bft)
30.04.2018 15:36 14,4 °C 65 % 1003,4 hPa 0,0 mm 5,1 km/h (1 Bft) O 95 ° 0 min 0,000 mm 4,8 UV-I 202 W/m² 7,9 °C 14,4 °C 6,4 km/h (2 Bft)
30.04.2018 15:37 14,4 °C 66 % 1003,4 hPa 0,0 mm 3,5 km/h (1 Bft) O-NO 62 ° 1 min 0,000 mm 3,1 UV-I 747 W/m² 8,1 °C 14,4 °C 4,8 km/h (1 Bft)
30.04.2018 15:38 14,6 °C 65 % 1003,4 hPa 0,0 mm 5,0 km/h (1 Bft) O 88 ° 1 min 0,000 mm 2,1 UV-I 747 W/m² 8,1 °C 14,6 °C 6,4 km/h (2 Bft)
30.04.2018 15:39 14,6 °C 64 % 1003,4 hPa 0,0 mm 4,3 km/h (1 Bft) O 90 ° 1 min 0,000 mm 3,9 UV-I 747 W/m² 7,9 °C 14,6 °C 6,4 km/h (2 Bft)
30.04.2018 15:40 14,6 °C 64 % 1003,4 hPa 0,0 mm 5,1 km/h (1 Bft) O-NO 78 ° 1 min 0,000 mm 2,5 UV-I 747 W/m² 7,9 °C 14,6 °C 9,7 km/h (2 Bft)
30.04.2018 15:41 14,5 °C 62 % 1003,4 hPa 0,0 mm 0,8 km/h (0 Bft) O-NO 78 ° 1 min 0,000 mm 2,3 UV-I 747 W/m² 7,3 °C 14,5 °C 3,2 km/h (1 Bft)
30.04.2018 15:42 14,5 °C 68 % 1003,4 hPa 0,0 mm 2,1 km/h (1 Bft) O-NO 69 ° 1 min 0,000 mm 2,1 UV-I 747 W/m² 8,7 °C 14,5 °C 4,8 km/h (1 Bft)
30.04.2018 15:43 14,6 °C 66 % 1003,3 hPa 0,0 mm 4,2 km/h (1 Bft) O-NO 70 ° 0 min 0,000 mm 2,0 UV-I 162 W/m² 8,3 °C 14,6 °C 6,4 km/h (2 Bft)
30.04.2018 15:44 14,4 °C 64 % 1003,4 hPa 0,0 mm 4,2 km/h (1 Bft) O 80 ° 0 min 0,000 mm 2,0 UV-I 167 W/m² 7,7 °C 14,4 °C 6,4 km/h (2 Bft)
30.04.2018 15:45 14,4 °C 64 % 1003,4 hPa 0,0 mm 2,2 km/h (1 Bft) O 84 ° 0 min 0,000 mm 1,9 UV-I 149 W/m² 7,7 °C 14,4 °C 3,2 km/h (1 Bft)
30.04.2018 15:46 14,3 °C 63 % 1003,3 hPa 0,0 mm 0,5 km/h (0 Bft) O 84 ° 0 min 0,000 mm 1,8 UV-I 135 W/m² 7,4 °C 14,3 °C 1,6 km/h (1 Bft)
30.04.2018 15:47 14,2 °C 65 % 1003,3 hPa 0,0 mm 0,7 km/h (0 Bft) O-NO 59 ° 0 min 0,000 mm 1,7 UV-I 134 W/m² 7,7 °C 14,2 °C 4,8 km/h (1 Bft)
30.04.2018 15:48 14,2 °C 64 % 1003,4 hPa 0,0 mm 5,8 km/h (2 Bft) NO 43 ° 0 min 0,000 mm 1,6 UV-I 121 W/m² 7,5 °C 14,2 °C 9,7 km/h (2 Bft)
30.04.2018 15:49 14,3 °C 65 % 1003,4 hPa 0,0 mm 5,7 km/h (1 Bft) O 92 ° 0 min 0,000 mm 1,6 UV-I 123 W/m² 7,8 °C 14,3 °C 9,7 km/h (2 Bft)
30.04.2018 15:50 14,3 °C 66 % 1003,4 hPa 0,0 mm 3,7 km/h (1 Bft) O-SO 104 ° 0 min 0,000 mm 1,7 UV-I 169 W/m² 8,0 °C 14,3 °C 4,8 km/h (1 Bft)
30.04.2018 15:51 14,2 °C 63 % 1003,4 hPa 0,0 mm 2,0 km/h (1 Bft) O-SO 107 ° 0 min 0,000 mm 2,6 UV-I 262 W/m² 7,3 °C 14,2 °C 3,2 km/h (1 Bft)
30.04.2018 15:52 14,2 °C 63 % 1003,3 hPa 0,0 mm 0,0 km/h (0 Bft) O-SO 107 ° 0 min 0,000 mm 2,6 UV-I 262 W/m² 7,3 °C 14,2 °C 0,0 km/h (0 Bft)
30.04.2018 15:53 14,3 °C 65 % 1003,4 hPa 0,0 mm 0,5 km/h (0 Bft) O-SO 107 ° 0 min 0,000 mm 2,9 UV-I 262 W/m² 7,8 °C 14,3 °C 1,6 km/h (1 Bft)
30.04.2018 15:54 14,4 °C 65 % 1003,4 hPa 0,0 mm 2,0 km/h (1 Bft) NO 44 ° 0 min 0,000 mm 3,1 UV-I 262 W/m² 7,9 °C 14,4 °C 4,8 km/h (1 Bft)
30.04.2018 15:55 14,6 °C 66 % 1003,4 hPa 0,0 mm 5,0 km/h (1 Bft) N 11 ° 0 min 0,000 mm 2,2 UV-I 262 W/m² 8,3 °C 14,6 °C 8,0 km/h (2 Bft)
30.04.2018 15:56 14,7 °C 63 % 1003,4 hPa 0,0 mm 3,6 km/h (1 Bft) N 355 ° 0 min 0,000 mm 1,9 UV-I 155 W/m² 7,7 °C 14,7 °C 6,4 km/h (2 Bft)
30.04.2018 15:57 14,8 °C 63 % 1003,3 hPa 0,0 mm 1,9 km/h (1 Bft) N 355 ° 0 min 0,000 mm 1,8 UV-I 141 W/m² 7,8 °C 14,8 °C 3,2 km/h (1 Bft)
30.04.2018 15:58 14,7 °C 63 % 1003,3 hPa 0,0 mm 2,9 km/h (1 Bft) N-NO 20 ° 0 min 0,000 mm 1,8 UV-I 141 W/m² 7,7 °C 14,7 °C 4,8 km/h (1 Bft)
30.04.2018 15:59 14,6 °C 64 % 1003,3 hPa 0,0 mm 3,0 km/h (1 Bft) N-NO 27 ° 0 min 0,000 mm 1,8 UV-I 144 W/m² 7,9 °C 14,6 °C 6,4 km/h (2 Bft)
30.04.2018 16:00 14,6 °C 64 % 1003,3 hPa 0,0 mm 0,8 km/h (0 Bft) N-NO 27 ° 0 min 0,000 mm 1,8 UV-I 163 W/m² 7,9 °C 14,6 °C 3,2 km/h (1 Bft)
30.04.2018 16:01 14,6 °C 64 % 1003,3 hPa 0,0 mm 3,2 km/h (1 Bft) N-NO 28 ° 0 min 0,254 mm 2,1 UV-I 236 W/m² 7,9 °C 14,6 °C 4,8 km/h (1 Bft)
30.04.2018 16:02 14,6 °C 64 % 1003,4 hPa 0,0 mm 4,2 km/h (1 Bft) N-NO 32 ° 0 min 0,000 mm 2,2 UV-I 250 W/m² 7,9 °C 14,6 °C 4,8 km/h (1 Bft)
30.04.2018 16:03 14,6 °C 65 % 1003,3 hPa 0,0 mm 1,8 km/h (1 Bft) N-NO 32 ° 0 min 0,000 mm 2,1 UV-I 206 W/m² 8,1 °C 14,6 °C 3,2 km/h (1 Bft)
30.04.2018 16:04 14,7 °C 65 % 1003,3 hPa 0,0 mm 3,0 km/h (1 Bft) N-NO 32 ° 1 min 0,000 mm 2,3 UV-I 294 W/m² 8,2 °C 14,7 °C 4,8 km/h (1 Bft)
30.04.2018 16:05 14,6 °C 63 % 1003,3 hPa 0,0 mm 3,4 km/h (1 Bft) N-NO 24 ° 1 min 0,000 mm 1,8 UV-I 294 W/m² 7,6 °C 14,6 °C 4,8 km/h (1 Bft)
30.04.2018 16:06 14,6 °C 63 % 1003,3 hPa 0,0 mm 3,0 km/h (1 Bft) N 355 ° 0 min 0,000 mm 1,8 UV-I 156 W/m² 7,6 °C 14,6 °C 4,8 km/h (1 Bft)
30.04.2018 16:07 14,6 °C 65 % 1003,3 hPa 0,0 mm 2,5 km/h (1 Bft) N 351 ° 0 min 0,000 mm 1,8 UV-I 167 W/m² 8,1 °C 14,6 °C 3,2 km/h (1 Bft)
30.04.2018 16:08 14,7 °C 64 % 1003,3 hPa 0,0 mm 2,3 km/h (1 Bft) N-NO 24 ° 0 min 0,000 mm 1,8 UV-I 167 W/m² 8,0 °C 14,7 °C 3,2 km/h (1 Bft)
30.04.2018 16:09 14,7 °C 65 % 1003,3 hPa 0,0 mm 0,2 km/h (0 Bft) N-NO 24 ° 0 min 0,000 mm 1,7 UV-I 149 W/m² 8,2 °C 14,7 °C 1,6 km/h (1 Bft)
30.04.2018 16:10 14,6 °C 64 % 1003,3 hPa 0,0 mm 0,1 km/h (0 Bft) N-NO 24 ° 0 min 0,000 mm 1,6 UV-I 137 W/m² 7,9 °C 14,6 °C 1,6 km/h (1 Bft)
30.04.2018 16:11 14,6 °C 62 % 1003,3 hPa 0,0 mm 1,5 km/h (1 Bft) N-NO 24 ° 0 min 0,000 mm 1,6 UV-I 132 W/m² 7,4 °C 14,6 °C 3,2 km/h (1 Bft)
30.04.2018 16:12 14,5 °C 63 % 1003,3 hPa 0,0 mm 0,3 km/h (0 Bft) N-NO 23 ° 0 min 0,000 mm 1,6 UV-I 130 W/m² 7,5 °C 14,5 °C 1,6 km/h (1 Bft)
30.04.2018 16:13 14,4 °C 64 % 1003,3 hPa 0,0 mm 0,8 km/h (0 Bft) N-NO 24 ° 0 min 0,000 mm 1,6 UV-I 130 W/m² 7,7 °C 14,4 °C 1,6 km/h (1 Bft)
30.04.2018 16:14 14,4 °C 63 % 1003,3 hPa 0,0 mm 0,0 km/h (0 Bft) N-NO 24 ° 0 min 0,000 mm 1,6 UV-I 134 W/m² 7,4 °C 14,4 °C 0,0 km/h (0 Bft)
30.04.2018 16:15 14,4 °C 63 % 1003,3 hPa 0,0 mm 0,0 km/h (0 Bft) N-NO 24 ° 0 min 0,000 mm 1,7 UV-I 128 W/m² 7,4 °C 14,4 °C 0,0 km/h (0 Bft)
30.04.2018 16:16 14,3 °C 64 % 1003,3 hPa 0,0 mm 0,3 km/h (0 Bft) N-NO 23 ° 0 min 0,000 mm 1,7 UV-I 125 W/m² 7,6 °C 14,3 °C 1,6 km/h (1 Bft)
30.04.2018 16:17 14,3 °C 67 % 1003,3 hPa 0,0 mm 0,0 km/h (0 Bft) N-NO 23 ° 0 min 0,000 mm 1,7 UV-I 125 W/m² 8,3 °C 14,3 °C 0,0 km/h (0 Bft)
30.04.2018 16:18 14,2 °C 68 % 1003,3 hPa 0,0 mm 0,0 km/h (0 Bft) N-NO 23 ° 0 min 0,000 mm 1,7 UV-I 123 W/m² 8,4 °C 14,2 °C 0,0 km/h (0 Bft)
30.04.2018 16:19 14,2 °C 69 % 1003,4 hPa 0,0 mm 0,0 km/h (0 Bft) N-NO 23 ° 0 min 0,000 mm 1,7 UV-I 120 W/m² 8,6 °C 14,2 °C 0,0 km/h (0 Bft)
30.04.2018 16:20 14,2 °C 66 % 1003,4 hPa 0,0 mm 0,0 km/h (0 Bft) N-NO 23 ° 0 min 0,000 mm 1,8 UV-I 123 W/m² 7,9 °C 14,2 °C 0,0 km/h (0 Bft)
30.04.2018 16:21 14,3 °C 66 % 1003,4 hPa 0,0 mm 0,0 km/h (0 Bft) N-NO 23 ° 0 min 0,000 mm 1,8 UV-I 125 W/m² 8,0 °C 14,3 °C 0,0 km/h (0 Bft)
30.04.2018 16:22 14,3 °C 66 % 1003,3 hPa 0,0 mm 2,5 km/h (1 Bft) N-NO 23 ° 0 min 0,000 mm 1,8 UV-I 125 W/m² 8,0 °C 14,3 °C 4,8 km/h (1 Bft)
30.04.2018 16:23 14,2 °C 68 % 1003,3 hPa 0,0 mm 2,3 km/h (1 Bft) N-NO 23 ° 0 min 0,000 mm 1,9 UV-I 127 W/m² 8,4 °C 14,2 °C 3,2 km/h (1 Bft)
30.04.2018 16:24 14,2 °C 65 % 1003,3 hPa 0,0 mm 2,5 km/h (1 Bft) N-NO 31 ° 0 min 0,000 mm 1,9 UV-I 181 W/m² 7,7 °C 14,2 °C 4,8 km/h (1 Bft)
30.04.2018 16:25 14,3 °C 66 % 1003,3 hPa 0,0 mm 4,0 km/h (1 Bft) NO 47 ° 0 min 0,000 mm 2,0 UV-I 155 W/m² 8,0 °C 14,3 °C 4,8 km/h (1 Bft)
30.04.2018 16:26 14,4 °C 64 % 1003,3 hPa 0,0 mm 4,6 km/h (1 Bft) NO 42 ° 0 min 0,000 mm 2,0 UV-I 91 W/m² 7,7 °C 14,4 °C 6,4 km/h (2 Bft)
30.04.2018 16:27 14,6 °C 63 % 1003,3 hPa 0,0 mm 0,5 km/h (0 Bft) NO 42 ° 0 min 0,000 mm 1,8 UV-I 105 W/m² 7,6 °C 14,6 °C 3,2 km/h (1 Bft)
30.04.2018 16:28 14,7 °C 64 % 1003,3 hPa 0,0 mm 0,1 km/h (0 Bft) NO 42 ° 0 min 0,000 mm 1,8 UV-I 128 W/m² 8,0 °C 14,7 °C 1,6 km/h (1 Bft)
30.04.2018 16:29 14,7 °C 63 % 1003,3 hPa 0,0 mm 3,2 km/h (1 Bft) NO 42 ° 0 min 0,000 mm 1,8 UV-I 134 W/m² 7,7 °C 14,7 °C 4,8 km/h (1 Bft)
30.04.2018 16:30 14,8 °C 63 % 1003,3 hPa 0,0 mm 0,7 km/h (0 Bft) NO 43 ° 0 min 0,000 mm 1,7 UV-I 109 W/m² 7,8 °C 14,8 °C 4,8 km/h (1 Bft)
30.04.2018 16:31 14,8 °C 63 % 1003,3 hPa 0,0 mm 7,0 km/h (2 Bft) O-NO 77 ° 0 min 0,000 mm 1,6 UV-I 102 W/m² 7,8 °C 14,8 °C 9,7 km/h (2 Bft)
30.04.2018 16:32 14,8 °C 63 % 1003,3 hPa 0,0 mm 3,2 km/h (1 Bft) O-NO 77 ° 0 min 0,000 mm 1,6 UV-I 107 W/m² 7,8 °C 14,8 °C 6,4 km/h (2 Bft)
30.04.2018 16:33 14,8 °C 64 % 1003,3 hPa 0,0 mm 4,3 km/h (1 Bft) O-NO 62 ° 0 min 0,000 mm 1,6 UV-I 105 W/m² 8,1 °C 14,8 °C 6,4 km/h (2 Bft)
30.04.2018 16:34 14,7 °C 65 % 1003,3 hPa 0,0 mm 1,7 km/h (1 Bft) O-NO 62 ° 0 min 0,000 mm 1,5 UV-I 100 W/m² 8,2 °C 14,7 °C 4,8 km/h (1 Bft)
30.04.2018 16:35 14,7 °C 62 % 1003,4 hPa 0,0 mm 2,6 km/h (1 Bft) O 96 ° 0 min 0,000 mm 1,6 UV-I 113 W/m² 7,5 °C 14,7 °C 4,8 km/h (1 Bft)
30.04.2018 16:36 14,6 °C 62 % 1003,4 hPa 0,0 mm 3,3 km/h (1 Bft) O 99 ° 0 min 0,000 mm 1,6 UV-I 118 W/m² 7,4 °C 14,6 °C 4,8 km/h (1 Bft)
30.04.2018 16:37 14,6 °C 63 % 1003,3 hPa 0,0 mm 2,0 km/h (1 Bft) O 99 ° 0 min 0,000 mm 1,6 UV-I 121 W/m² 7,6 °C 14,6 °C 3,2 km/h (1 Bft)
30.04.2018 16:38 14,5 °C 62 % 1003,3 hPa 0,0 mm 2,2 km/h (1 Bft) O 99 ° 0 min 0,000 mm 1,6 UV-I 125 W/m² 7,3 °C 14,5 °C 3,2 km/h (1 Bft)
30.04.2018 16:39 14,5 °C 62 % 1003,3 hPa 0,0 mm 2,3 km/h (1 Bft) O 99 ° 0 min 0,000 mm 1,6 UV-I 130 W/m² 7,3 °C 14,5 °C 3,2 km/h (1 Bft)
30.04.2018 16:40 14,4 °C 62 % 1003,3 hPa 0,0 mm 0,0 km/h (0 Bft) O 99 ° 0 min 0,000 mm 1,6 UV-I 132 W/m² 7,2 °C 14,4 °C 0,0 km/h (0 Bft)
30.04.2018 16:41 14,4 °C 63 % 1003,4 hPa 0,0 mm 0,0 km/h (0 Bft) O 99 ° 0 min 0,000 mm 1,6 UV-I 132 W/m² 7,4 °C 14,4 °C 0,0 km/h (0 Bft)
30.04.2018 16:42 14,5 °C 64 % 1003,3 hPa 0,0 mm 0,0 km/h (0 Bft) O 99 ° 0 min 0,000 mm 1,6 UV-I 125 W/m² 7,8 °C 14,5 °C 0,0 km/h (0 Bft)
30.04.2018 16:43 14,5 °C 65 % 1003,4 hPa 0,0 mm 1,5 km/h (1 Bft) O 99 ° 0 min 0,000 mm 1,5 UV-I 118 W/m² 8,0 °C 14,5 °C 3,2 km/h (1 Bft)
30.04.2018 16:44 14,5 °C 64 % 1003,4 hPa 0,0 mm 0,3 km/h (0 Bft) O 99 ° 0 min 0,000 mm 1,5 UV-I 123 W/m² 7,8 °C 14,5 °C 1,6 km/h (1 Bft)
30.04.2018 16:45 14,5 °C 64 % 1003,4 hPa 0,0 mm 0,5 km/h (0 Bft) O 99 ° 0 min 0,000 mm 1,5 UV-I 127 W/m² 7,8 °C 14,5 °C 1,6 km/h (1 Bft)
30.04.2018 16:46 14,6 °C 65 % 1003,4 hPa 0,0 mm 1,3 km/h (1 Bft) N 5 ° 0 min 0,000 mm 1,5 UV-I 127 W/m² 8,1 °C 14,6 °C 4,8 km/h (1 Bft)
30.04.2018 16:47 14,6 °C 64 % 1003,3 hPa 0,0 mm 4,1 km/h (1 Bft) N 355 ° 0 min 0,000 mm 1,5 UV-I 127 W/m² 7,9 °C 14,6 °C 6,4 km/h (2 Bft)
30.04.2018 16:48 14,7 °C 63 % 1003,3 hPa 0,0 mm 4,0 km/h (1 Bft) N-NO 12 ° 0 min 0,000 mm 1,5 UV-I 132 W/m² 7,7 °C 14,7 °C 6,4 km/h (2 Bft)
30.04.2018 16:49 14,7 °C 63 % 1003,3 hPa 0,0 mm 1,6 km/h (1 Bft) N 9 ° 0 min 0,000 mm 1,6 UV-I 158 W/m² 7,7 °C 14,7 °C 4,8 km/h (1 Bft)
30.04.2018 16:50 14,8 °C 62 % 1003,3 hPa 0,0 mm 0,2 km/h (0 Bft) N 9 ° 0 min 0,000 mm 1,6 UV-I 165 W/m² 7,6 °C 14,8 °C 1,6 km/h (1 Bft)
30.04.2018 16:51 14,8 °C 61 % 1003,3 hPa 0,0 mm 1,7 km/h (1 Bft) N 9 ° 0 min 0,000 mm 1,6 UV-I 178 W/m² 7,4 °C 14,8 °C 3,2 km/h (1 Bft)
30.04.2018 16:52 14,9 °C 60 % 1003,3 hPa 0,0 mm 1,1 km/h (1 Bft) N 9 ° 0 min 0,000 mm 1,6 UV-I 183 W/m² 7,2 °C 14,9 °C 3,2 km/h (1 Bft)
30.04.2018 16:53 14,9 °C 60 % 1003,3 hPa 0,0 mm 0,0 km/h (0 Bft) N 9 ° 0 min 0,000 mm 1,7 UV-I 192 W/m² 7,2 °C 14,9 °C 0,0 km/h (0 Bft)
30.04.2018 16:54 14,9 °C 60 % 1003,3 hPa 0,0 mm 0,0 km/h (0 Bft) N 9 ° 0 min 0,000 mm 1,8 UV-I 213 W/m² 7,2 °C 14,9 °C 0,0 km/h (0 Bft)
30.04.2018 16:55 14,9 °C 61 % 1003,3 hPa 0,0 mm 3,2 km/h (1 Bft) N-NO 19 ° 0 min 0,000 mm 1,8 UV-I 216 W/m² 7,4 °C 14,9 °C 6,4 km/h (2 Bft)
30.04.2018 16:56 15,1 °C 61 % 1003,3 hPa 0,0 mm 2,6 km/h (1 Bft) N-NO 19 ° 0 min 0,000 mm 1,8 UV-I 218 W/m² 7,6 °C 15,1 °C 4,8 km/h (1 Bft)
30.04.2018 16:57 15,1 °C 62 % 1003,2 hPa 0,0 mm 1,5 km/h (1 Bft) N-NO 19 ° 0 min 0,000 mm 1,7 UV-I 190 W/m² 7,9 °C 15,1 °C 3,2 km/h (1 Bft)
30.04.2018 16:58 15,1 °C 60 % 1003,3 hPa 0,0 mm 0,6 km/h (0 Bft) N-NO 19 ° 0 min 0,000 mm 1,7 UV-I 188 W/m² 7,4 °C 15,1 °C 1,6 km/h (1 Bft)
30.04.2018 16:59 15,1 °C 60 % 1003,2 hPa 0,0 mm 3,0 km/h (1 Bft) W-NW 296 ° 0 min 0,000 mm 1,7 UV-I 197 W/m² 7,4 °C 15,1 °C 4,8 km/h (1 Bft)
30.04.2018 17:00 15,1 °C 61 % 1003,2 hPa 0,0 mm 2,3 km/h (1 Bft) W-NW 287 ° 0 min 0,000 mm 1,7 UV-I 163 W/m² 7,6 °C 15,1 °C 3,2 km/h (1 Bft)
30.04.2018 17:01 15,1 °C 59 % 1003,2 hPa 0,0 mm 3,4 km/h (1 Bft) NW 310 ° 0 min 0,102 mm 1,7 UV-I 162 W/m² 7,1 °C 15,1 °C 4,8 km/h (1 Bft)
30.04.2018 17:02 15,1 °C 62 % 1003,1 hPa 0,0 mm 4,0 km/h (1 Bft) W-NW 292 ° 0 min 0,000 mm 1,7 UV-I 186 W/m² 7,9 °C 15,1 °C 4,8 km/h (1 Bft)
30.04.2018 17:03 15,2 °C 62 % 1003,1 hPa 0,0 mm 2,9 km/h (1 Bft) W-NW 292 ° 0 min 0,000 mm 1,8 UV-I 186 W/m² 8,0 °C 15,2 °C 4,8 km/h (1 Bft)
30.04.2018 17:04 15,3 °C 62 % 1003,1 hPa 0,0 mm 4,9 km/h (1 Bft) NW 317 ° 0 min 0,000 mm 1,7 UV-I 218 W/m² 8,1 °C 15,3 °C 6,4 km/h (2 Bft)
30.04.2018 17:05 15,3 °C 60 % 1003,1 hPa 0,0 mm 4,0 km/h (1 Bft) N 5 ° 0 min 0,000 mm 1,6 UV-I 209 W/m² 7,6 °C 15,3 °C 6,4 km/h (2 Bft)
30.04.2018 17:06 15,3 °C 59 % 1003,2 hPa 0,0 mm 3,9 km/h (1 Bft) N-NO 24 ° 0 min 0,000 mm 1,5 UV-I 151 W/m² 7,3 °C 15,3 °C 6,4 km/h (2 Bft)
30.04.2018 17:07 15,3 °C 58 % 1003,2 hPa 0,0 mm 0,3 km/h (0 Bft) N-NO 24 ° 0 min 0,000 mm 1,5 UV-I 155 W/m² 7,1 °C 15,3 °C 1,6 km/h (1 Bft)
30.04.2018 17:08 15,2 °C 58 % 1003,2 hPa 0,0 mm 0,0 km/h (0 Bft) N-NO 24 ° 0 min 0,000 mm 1,4 UV-I 163 W/m² 7,0 °C 15,2 °C 0,0 km/h (0 Bft)
30.04.2018 17:09 15,2 °C 59 % 1003,1 hPa 0,0 mm 3,8 km/h (1 Bft) O 87 ° 0 min 0,000 mm 1,5 UV-I 179 W/m² 7,2 °C 15,2 °C 6,4 km/h (2 Bft)
30.04.2018 17:10 15,2 °C 61 % 1003,2 hPa 0,0 mm 3,2 km/h (1 Bft) O-NO 63 ° 0 min 0,000 mm 1,5 UV-I 195 W/m² 7,7 °C 15,2 °C 4,8 km/h (1 Bft)
30.04.2018 17:11 15,3 °C 61 % 1003,2 hPa 0,0 mm 3,3 km/h (1 Bft) O-NO 61 ° 0 min 0,000 mm 1,5 UV-I 207 W/m² 7,8 °C 15,3 °C 8,0 km/h (2 Bft)
30.04.2018 17:12 15,5 °C 64 % 1003,2 hPa 0,0 mm 4,4 km/h (1 Bft) O-NO 77 ° 0 min 0,000 mm 1,5 UV-I 218 W/m² 8,7 °C 15,5 °C 6,4 km/h (2 Bft)
30.04.2018 17:13 15,6 °C 60 % 1003,2 hPa 0,0 mm 2,5 km/h (1 Bft) S-SO 153 ° 0 min 0,000 mm 1,5 UV-I 246 W/m² 7,9 °C 15,6 °C 4,8 km/h (1 Bft)
30.04.2018 17:14 15,6 °C 61 % 1003,2 hPa 0,0 mm 4,0 km/h (1 Bft) NO 34 ° 0 min 0,000 mm 1,6 UV-I 248 W/m² 8,1 °C 15,6 °C 9,7 km/h (2 Bft)
30.04.2018 17:15 15,7 °C 62 % 1003,2 hPa 0,0 mm 7,1 km/h (2 Bft) O-NO 69 ° 0 min 0,000 mm 1,5 UV-I 223 W/m² 8,4 °C 15,7 °C 12,9 km/h (3 Bft)
30.04.2018 17:16 15,6 °C 60 % 1003,3 hPa 0,0 mm 5,2 km/h (1 Bft) O-NO 71 ° 0 min 0,000 mm 1,5 UV-I 214 W/m² 7,9 °C 15,6 °C 6,4 km/h (2 Bft)
30.04.2018 17:17 15,6 °C 61 % 1003,3 hPa 0,0 mm 9,5 km/h (2 Bft) O-NO 58 ° 0 min 0,000 mm 1,4 UV-I 202 W/m² 8,1 °C 15,6 °C 14,5 km/h (3 Bft)
30.04.2018 17:18 15,6 °C 60 % 1003,3 hPa 0,0 mm 8,4 km/h (2 Bft) O-SO 102 ° 0 min 0,000 mm 1,3 UV-I 163 W/m² 7,9 °C 15,6 °C 11,3 km/h (2 Bft)
30.04.2018 17:19 15,5 °C 60 % 1003,3 hPa 0,0 mm 2,9 km/h (1 Bft) O-SO 103 ° 0 min 0,000 mm 1,1 UV-I 141 W/m² 7,8 °C 15,5 °C 9,7 km/h (2 Bft)
30.04.2018 17:20 15,4 °C 60 % 1003,3 hPa 0,0 mm 3,4 km/h (1 Bft) O 98 ° 0 min 0,000 mm 1,1 UV-I 134 W/m² 7,7 °C 15,4 °C 9,7 km/h (2 Bft)
30.04.2018 17:21 15,3 °C 61 % 1003,2 hPa 0,0 mm 2,8 km/h (1 Bft) O 97 ° 0 min 0,000 mm 1,1 UV-I 132 W/m² 7,8 °C 15,3 °C 6,4 km/h (2 Bft)
30.04.2018 17:22 15,3 °C 61 % 1003,2 hPa 0,0 mm 1,5 km/h (1 Bft) O 97 ° 0 min 0,000 mm 1,0 UV-I 135 W/m² 7,8 °C 15,3 °C 4,8 km/h (1 Bft)
30.04.2018 17:23 15,2 °C 62 % 1003,3 hPa 0,0 mm 8,0 km/h (2 Bft) O-NO 69 ° 0 min 0,000 mm 1,0 UV-I 135 W/m² 8,0 °C 15,2 °C 11,3 km/h (2 Bft)
30.04.2018 17:24 15,2 °C 61 % 1003,3 hPa 0,0 mm 5,6 km/h (1 Bft) O-NO 69 ° 0 min 0,000 mm 1,0 UV-I 141 W/m² 7,7 °C 15,2 °C 8,0 km/h (2 Bft)
30.04.2018 17:25 15,2 °C 62 % 1003,3 hPa 0,0 mm 3,1 km/h (1 Bft) O-NO 57 ° 0 min 0,000 mm 1,0 UV-I 139 W/m² 8,0 °C 15,2 °C 4,8 km/h (1 Bft)
30.04.2018 17:26 15,2 °C 62 % 1003,4 hPa 0,0 mm 3,0 km/h (1 Bft) O-NO 57 ° 0 min 0,000 mm 1,0 UV-I 141 W/m² 8,0 °C 15,2 °C 4,8 km/h (1 Bft)
30.04.2018 17:27 15,1 °C 63 % 1003,4 hPa 0,0 mm 3,8 km/h (1 Bft) O-SO 114 ° 0 min 0,000 mm 1,0 UV-I 139 W/m² 8,1 °C 15,1 °C 6,4 km/h (2 Bft)
30.04.2018 17:28 15,1 °C 62 % 1003,4 hPa 0,0 mm 0,9 km/h (0 Bft) O-NO 65 ° 0 min 0,000 mm 1,0 UV-I 137 W/m² 7,9 °C 15,1 °C 4,8 km/h (1 Bft)
30.04.2018 17:29 15,0 °C 62 % 1003,4 hPa 0,0 mm 6,0 km/h (2 Bft) O-NO 57 ° 0 min 0,000 mm 0,9 UV-I 134 W/m² 7,8 °C 15,0 °C 8,0 km/h (2 Bft)
30.04.2018 17:30 15,0 °C 63 % 1003,4 hPa 0,0 mm 5,1 km/h (1 Bft) O 84 ° 0 min 0,000 mm 0,9 UV-I 121 W/m² 8,0 °C 15,0 °C 8,0 km/h (2 Bft)
30.04.2018 17:31 15,0 °C 62 % 1003,4 hPa 0,0 mm 4,9 km/h (1 Bft) NO 53 ° 0 min 0,000 mm 0,9 UV-I 120 W/m² 7,8 °C 15,0 °C 6,4 km/h (2 Bft)
30.04.2018 17:32 15,0 °C 62 % 1003,4 hPa 0,0 mm 4,8 km/h (1 Bft) O-NO 59 ° 0 min 0,000 mm 0,9 UV-I 123 W/m² 7,8 °C 15,0 °C 6,4 km/h (2 Bft)
30.04.2018 17:33 15,0 °C 63 % 1003,4 hPa 0,0 mm 3,1 km/h (1 Bft) O-NO 75 ° 0 min 0,000 mm 0,9 UV-I 123 W/m² 8,0 °C 15,0 °C 4,8 km/h (1 Bft)
30.04.2018 17:34 14,9 °C 63 % 1003,4 hPa 0,0 mm 5,5 km/h (1 Bft) O 98 ° 0 min 0,000 mm 0,8 UV-I 127 W/m² 7,9 °C 14,9 °C 9,7 km/h (2 Bft)
30.04.2018 17:35 14,9 °C 64 % 1003,4 hPa 0,0 mm 4,2 km/h (1 Bft) O-SO 113 ° 0 min 0,000 mm 0,8 UV-I 127 W/m² 8,2 °C 14,9 °C 9,7 km/h (2 Bft)
30.04.2018 17:36 14,9 °C 64 % 1003,4 hPa 0,0 mm 0,0 km/h (0 Bft) O-SO 113 ° 0 min 0,000 mm 0,9 UV-I 134 W/m² 8,2 °C 14,9 °C 0,0 km/h (0 Bft)
30.04.2018 17:37 14,9 °C 64 % 1003,5 hPa 0,0 mm 1,9 km/h (1 Bft) O 92 ° 0 min 0,000 mm 0,9 UV-I 132 W/m² 8,2 °C 14,9 °C 4,8 km/h (1 Bft)
30.04.2018 17:38 14,9 °C 65 % 1003,5 hPa 0,0 mm 2,3 km/h (1 Bft) O-NO 61 ° 0 min 0,000 mm 0,9 UV-I 137 W/m² 8,4 °C 14,9 °C 4,8 km/h (1 Bft)
30.04.2018 17:39 14,9 °C 66 % 1003,5 hPa 0,0 mm 3,1 km/h (1 Bft) O-NO 62 ° 0 min 0,000 mm 0,9 UV-I 146 W/m² 8,6 °C 14,9 °C 4,8 km/h (1 Bft)
30.04.2018 17:40 14,9 °C 64 % 1003,5 hPa 0,0 mm 2,1 km/h (1 Bft) O-SO 103 ° 0 min 0,000 mm 1,0 UV-I 155 W/m² 8,2 °C 14,9 °C 4,8 km/h (1 Bft)
30.04.2018 17:41 14,9 °C 64 % 1003,5 hPa 0,0 mm 3,5 km/h (1 Bft) O 82 ° 0 min 0,000 mm 1,0 UV-I 160 W/m² 8,2 °C 14,9 °C 4,8 km/h (1 Bft)
30.04.2018 17:42 14,9 °C 65 % 1003,6 hPa 0,0 mm 2,4 km/h (1 Bft) O-SO 119 ° 0 min 0,000 mm 1,1 UV-I 171 W/m² 8,4 °C 14,9 °C 4,8 km/h (1 Bft)
30.04.2018 17:43 14,8 °C 64 % 1003,6 hPa 0,0 mm 0,4 km/h (0 Bft) O-SO 117 ° 0 min 0,000 mm 1,1 UV-I 171 W/m² 8,1 °C 14,8 °C 1,6 km/h (1 Bft)
30.04.2018 17:44 14,8 °C 64 % 1003,6 hPa 0,0 mm 0,7 km/h (0 Bft) O-SO 117 ° 0 min 0,000 mm 1,1 UV-I 171 W/m² 8,1 °C 14,8 °C 4,8 km/h (1 Bft)
30.04.2018 17:45 14,8 °C 65 % 1003,5 hPa 0,0 mm 1,5 km/h (1 Bft) O-SO 117 ° 0 min 0,000 mm 1,1 UV-I 158 W/m² 8,3 °C 14,8 °C 3,2 km/h (1 Bft)
30.04.2018 17:46 14,8 °C 65 % 1003,6 hPa 0,0 mm 2,2 km/h (1 Bft) O-SO 117 ° 0 min 0,000 mm 1,1 UV-I 142 W/m² 8,3 °C 14,8 °C 4,8 km/h (1 Bft)
30.04.2018 17:47 14,8 °C 66 % 1003,5 hPa 0,0 mm 1,6 km/h (1 Bft) O-SO 117 ° 0 min 0,000 mm 1,1 UV-I 158 W/m² 8,5 °C 14,8 °C 4,8 km/h (1 Bft)
30.04.2018 17:48 14,8 °C 63 % 1003,5 hPa 0,0 mm 3,7 km/h (1 Bft) O-NO 65 ° 0 min 0,000 mm 1,1 UV-I 162 W/m² 7,8 °C 14,8 °C 6,4 km/h (2 Bft)
30.04.2018 17:49 14,7 °C 63 % 1003,5 hPa 0,0 mm 4,2 km/h (1 Bft) O-NO 61 ° 0 min 0,000 mm 1,1 UV-I 155 W/m² 7,7 °C 14,7 °C 4,8 km/h (1 Bft)
30.04.2018 17:50 14,8 °C 64 % 1003,5 hPa 0,0 mm 4,3 km/h (1 Bft) O 96 ° 0 min 0,000 mm 1,1 UV-I 135 W/m² 8,1 °C 14,8 °C 4,8 km/h (1 Bft)
30.04.2018 17:51 14,7 °C 63 % 1003,5 hPa 0,0 mm 2,6 km/h (1 Bft) O 96 ° 0 min 0,000 mm 1,1 UV-I 127 W/m² 7,7 °C 14,7 °C 4,8 km/h (1 Bft)
30.04.2018 17:52 14,7 °C 63 % 1003,6 hPa 0,0 mm 3,2 km/h (1 Bft) O 96 ° 0 min 0,000 mm 1,1 UV-I 127 W/m² 7,7 °C 14,7 °C 4,8 km/h (1 Bft)
30.04.2018 17:53 14,7 °C 64 % 1003,5 hPa 0,0 mm 3,2 km/h (1 Bft) O 83 ° 0 min 0,000 mm 1,1 UV-I 130 W/m² 8,0 °C 14,7 °C 8,0 km/h (2 Bft)
30.04.2018 17:54 14,7 °C 65 % 1003,6 hPa 0,0 mm 1,3 km/h (1 Bft) O 82 ° 0 min 0,000 mm 1,1 UV-I 127 W/m² 8,2 °C 14,7 °C 4,8 km/h (1 Bft)
30.04.2018 17:55 14,7 °C 64 % 1003,6 hPa 0,0 mm 3,1 km/h (1 Bft) O-NO 63 ° 0 min 0,000 mm 1,0 UV-I 123 W/m² 8,0 °C 14,7 °C 6,4 km/h (2 Bft)
30.04.2018 17:56 14,7 °C 63 % 1003,6 hPa 0,0 mm 0,5 km/h (0 Bft) O-NO 63 ° 0 min 0,000 mm 1,0 UV-I 121 W/m² 7,7 °C 14,7 °C 1,6 km/h (1 Bft)
30.04.2018 17:57 14,6 °C 66 % 1003,6 hPa 0,0 mm 0,6 km/h (0 Bft) O-NO 63 ° 0 min 0,000 mm 1,0 UV-I 114 W/m² 8,3 °C 14,6 °C 3,2 km/h (1 Bft)
30.04.2018 17:58 14,6 °C 65 % 1003,6 hPa 0,0 mm 1,1 km/h (1 Bft) O-NO 63 ° 0 min 0,000 mm 1,0 UV-I 105 W/m² 8,1 °C 14,6 °C 4,8 km/h (1 Bft)
30.04.2018 17:59 14,6 °C 66 % 1003,6 hPa 0,0 mm 1,9 km/h (1 Bft) O-NO 63 ° 0 min 0,000 mm 1,0 UV-I 83 W/m² 8,3 °C 14,6 °C 3,2 km/h (1 Bft)
30.04.2018 18:00 14,6 °C 66 % 1003,6 hPa 0,0 mm 4,3 km/h (1 Bft) O-NO 63 ° 0 min 0,000 mm 0,9 UV-I 76 W/m² 8,3 °C 14,6 °C 6,4 km/h (2 Bft)
30.04.2018 18:01 14,5 °C 66 % 1003,7 hPa 0,0 mm 1,1 km/h (1 Bft) O-NO 63 ° 0 min 0,101 mm 0,9 UV-I 76 W/m² 8,2 °C 14,5 °C 3,2 km/h (1 Bft)
30.04.2018 18:02 14,4 °C 67 % 1003,6 hPa 0,0 mm 1,6 km/h (1 Bft) O-NO 63 ° 0 min 0,000 mm 0,8 UV-I 81 W/m² 8,4 °C 14,4 °C 3,2 km/h (1 Bft)
30.04.2018 18:03 14,4 °C 66 % 1003,6 hPa 0,0 mm 1,3 km/h (1 Bft) O-NO 63 ° 0 min 0,000 mm 0,8 UV-I 81 W/m² 8,1 °C 14,4 °C 3,2 km/h (1 Bft)
30.04.2018 18:05 14,4 °C 65 % 1003,6 hPa 0,0 mm 2,5 km/h (1 Bft) O-NO 64 ° 0 min 0,000 mm 0,8 UV-I 84 W/m² 7,9 °C 14,4 °C 4,8 km/h (1 Bft)
30.04.2018 18:06 14,4 °C 67 % 1003,6 hPa 0,0 mm 0,2 km/h (0 Bft) O-NO 64 ° 0 min 0,000 mm 0,7 UV-I 79 W/m² 8,4 °C 14,4 °C 1,6 km/h (1 Bft)
30.04.2018 18:07 14,4 °C 66 % 1003,5 hPa 0,0 mm 0,0 km/h (0 Bft) O-NO 64 ° 0 min 0,000 mm 0,7 UV-I 77 W/m² 8,1 °C 14,4 °C 0,0 km/h (0 Bft)
30.04.2018 18:08 14,4 °C 66 % 1003,6 hPa 0,0 mm 0,0 km/h (0 Bft) O-NO 64 ° 0 min 0,000 mm 0,6 UV-I 79 W/m² 8,1 °C 14,4 °C 0,0 km/h (0 Bft)
30.04.2018 18:09 14,3 °C 66 % 1003,6 hPa 0,0 mm 0,0 km/h (0 Bft) O-NO 64 ° 0 min 0,000 mm 0,6 UV-I 84 W/m² 8,0 °C 14,3 °C 0,0 km/h (0 Bft)
30.04.2018 18:10 14,3 °C 67 % 1003,6 hPa 0,0 mm 0,0 km/h (0 Bft) O-NO 64 ° 0 min 0,000 mm 0,6 UV-I 84 W/m² 8,3 °C 14,3 °C 0,0 km/h (0 Bft)
30.04.2018 18:11 14,3 °C 67 % 1003,6 hPa 0,0 mm 0,0 km/h (0 Bft) O-NO 64 ° 0 min 0,000 mm 0,6 UV-I 90 W/m² 8,3 °C 14,3 °C 0,0 km/h (0 Bft)
30.04.2018 18:12 14,2 °C 68 % 1003,6 hPa 0,0 mm 0,3 km/h (0 Bft) O-NO 64 ° 0 min 0,000 mm 0,6 UV-I 91 W/m² 8,4 °C 14,2 °C 1,6 km/h (1 Bft)
30.04.2018 18:13 14,2 °C 67 % 1003,6 hPa 0,0 mm 0,7 km/h (0 Bft) O-NO 64 ° 0 min 0,000 mm 0,6 UV-I 93 W/m² 8,2 °C 14,2 °C 1,6 km/h (1 Bft)
30.04.2018 18:14 14,2 °C 69 % 1003,6 hPa 0,0 mm 1,3 km/h (1 Bft) O-NO 64 ° 0 min 0,000 mm 0,6 UV-I 93 W/m² 8,6 °C 14,2 °C 4,8 km/h (1 Bft)
30.04.2018 18:15 14,2 °C 69 % 1003,6 hPa 0,0 mm 2,6 km/h (1 Bft) O-NO 64 ° 0 min 0,000 mm 0,6 UV-I 88 W/m² 8,6 °C 14,2 °C 3,2 km/h (1 Bft)
30.04.2018 18:16 14,2 °C 69 % 1003,6 hPa 0,0 mm 0,2 km/h (0 Bft) O-NO 64 ° 0 min 0,000 mm 0,6 UV-I 83 W/m² 8,6 °C 14,2 °C 1,6 km/h (1 Bft)
30.04.2018 18:17 14,2 °C 67 % 1003,6 hPa 0,0 mm 1,1 km/h (1 Bft) O-NO 64 ° 0 min 0,000 mm 0,5 UV-I 69 W/m² 8,2 °C 14,2 °C 3,2 km/h (1 Bft)
30.04.2018 18:18 14,2 °C 67 % 1003,7 hPa 0,0 mm 0,1 km/h (0 Bft) O-NO 64 ° 0 min 0,000 mm 0,5 UV-I 63 W/m² 8,2 °C 14,2 °C 1,6 km/h (1 Bft)
30.04.2018 18:19 14,2 °C 66 % 1003,7 hPa 0,0 mm 2,6 km/h (1 Bft) O-NO 64 ° 0 min 0,000 mm 0,5 UV-I 62 W/m² 7,9 °C 14,2 °C 4,8 km/h (1 Bft)
30.04.2018 18:20 14,2 °C 68 % 1003,8 hPa 0,0 mm 1,5 km/h (1 Bft) O-NO 65 ° 0 min 0,000 mm 0,5 UV-I 63 W/m² 8,4 °C 14,2 °C 3,2 km/h (1 Bft)
30.04.2018 18:21 14,2 °C 67 % 1003,8 hPa 0,0 mm 0,1 km/h (0 Bft) O-NO 64 ° 0 min 0,000 mm 0,5 UV-I 69 W/m² 8,2 °C 14,2 °C 1,6 km/h (1 Bft)
30.04.2018 18:22 14,2 °C 66 % 1003,8 hPa 0,0 mm 0,0 km/h (0 Bft) O-NO 65 ° 0 min 0,000 mm 0,5 UV-I 88 W/m² 7,9 °C 14,2 °C 0,0 km/h (0 Bft)
30.04.2018 18:23 14,2 °C 66 % 1003,8 hPa 0,0 mm 0,3 km/h (0 Bft) O-NO 64 ° 0 min 0,000 mm 0,6 UV-I 84 W/m² 7,9 °C 14,2 °C 1,6 km/h (1 Bft)
30.04.2018 18:24 14,2 °C 66 % 1003,8 hPa 0,0 mm 0,9 km/h (0 Bft) O-NO 64 ° 0 min 0,000 mm 0,6 UV-I 76 W/m² 7,9 °C 14,2 °C 3,2 km/h (1 Bft)
30.04.2018 18:25 14,2 °C 70 % 1003,8 hPa 0,0 mm 0,3 km/h (0 Bft) O-NO 65 ° 0 min 0,000 mm 0,6 UV-I 74 W/m² 8,8 °C 14,2 °C 1,6 km/h (1 Bft)
30.04.2018 18:26 14,1 °C 66 % 1003,7 hPa 0,0 mm 0,6 km/h (0 Bft) O-NO 65 ° 0 min 0,000 mm 0,6 UV-I 76 W/m² 7,8 °C 14,1 °C 3,2 km/h (1 Bft)
30.04.2018 18:27 14,1 °C 68 % 1003,7 hPa 0,0 mm 2,0 km/h (1 Bft) O-NO 65 ° 0 min 0,000 mm 0,6 UV-I 77 W/m² 8,3 °C 14,1 °C 3,2 km/h (1 Bft)
30.04.2018 18:28 14,1 °C 68 % 1003,8 hPa 0,0 mm 0,3 km/h (0 Bft) O-NO 65 ° 0 min 0,000 mm 0,6 UV-I 83 W/m² 8,3 °C 14,1 °C 1,6 km/h (1 Bft)
30.04.2018 18:29 14,1 °C 66 % 1003,7 hPa 0,0 mm 0,9 km/h (0 Bft) O-NO 65 ° 0 min 0,000 mm 0,6 UV-I 81 W/m² 7,8 °C 14,1 °C 3,2 km/h (1 Bft)
30.04.2018 18:30 14,1 °C 67 % 1003,7 hPa 0,0 mm 0,0 km/h (0 Bft) O-NO 65 ° 0 min 0,000 mm 0,6 UV-I 79 W/m² 8,1 °C 14,1 °C 0,0 km/h (0 Bft)
30.04.2018 18:31 14,1 °C 66 % 1003,7 hPa 0,0 mm 0,0 km/h (0 Bft) O-NO 64 ° 0 min 0,000 mm 0,6 UV-I 76 W/m² 7,8 °C 14,1 °C 0,0 km/h (0 Bft)
30.04.2018 18:32 14,1 °C 68 % 1003,8 hPa 0,0 mm 0,0 km/h (0 Bft) O-NO 65 ° 0 min 0,000 mm 0,6 UV-I 72 W/m² 8,3 °C 14,1 °C 0,0 km/h (0 Bft)
30.04.2018 18:33 14,1 °C 65 % 1003,7 hPa 0,0 mm 0,1 km/h (0 Bft) O-NO 65 ° 0 min 0,000 mm 0,6 UV-I 69 W/m² 7,6 °C 14,1 °C 1,6 km/h (1 Bft)
30.04.2018 18:34 14,1 °C 65 % 1003,8 hPa 0,0 mm 0,0 km/h (0 Bft) O-NO 65 ° 0 min 0,000 mm 0,6 UV-I 63 W/m² 7,6 °C 14,1 °C 0,0 km/h (0 Bft)
30.04.2018 18:35 14,1 °C 68 % 1003,8 hPa 0,0 mm 0,3 km/h (0 Bft) O-NO 65 ° 0 min 0,000 mm 0,5 UV-I 60 W/m² 8,3 °C 14,1 °C 1,6 km/h (1 Bft)
30.04.2018 18:36 13,9 °C 68 % 1003,9 hPa 0,0 mm 0,6 km/h (0 Bft) O-NO 65 ° 0 min 0,000 mm 0,5 UV-I 58 W/m² 8,1 °C 13,9 °C 3,2 km/h (1 Bft)
30.04.2018 18:37 13,9 °C 67 % 1003,8 hPa 0,0 mm 1,1 km/h (1 Bft) O-NO 64 ° 0 min 0,000 mm 0,5 UV-I 58 W/m² 7,9 °C 13,9 °C 3,2 km/h (1 Bft)
30.04.2018 18:38 13,8 °C 71 % 1003,9 hPa 0,0 mm 1,0 km/h (0 Bft) O-NO 64 ° 0 min 0,000 mm 0,5 UV-I 62 W/m² 8,6 °C 13,8 °C 1,6 km/h (1 Bft)
30.04.2018 18:39 13,7 °C 70 % 1003,8 hPa 0,0 mm 0,2 km/h (0 Bft) O-NO 64 ° 0 min 0,000 mm 0,5 UV-I 63 W/m² 8,3 °C 13,7 °C 1,6 km/h (1 Bft)
30.04.2018 18:40 13,7 °C 70 % 1003,8 hPa 0,0 mm 0,9 km/h (0 Bft) O-NO 65 ° 0 min 0,000 mm 0,5 UV-I 60 W/m² 8,3 °C 13,7 °C 3,2 km/h (1 Bft)
30.04.2018 18:41 13,6 °C 70 % 1003,8 hPa 0,0 mm 0,0 km/h (0 Bft) O-NO 65 ° 0 min 0,000 mm 0,5 UV-I 60 W/m² 8,2 °C 13,6 °C 0,0 km/h (0 Bft)
30.04.2018 18:42 13,6 °C 70 % 1003,8 hPa 0,0 mm 0,0 km/h (0 Bft) O-NO 65 ° 0 min 0,000 mm 0,0 UV-I 62 W/m² 8,2 °C 13,6 °C 0,0 km/h (0 Bft)
30.04.2018 18:43 13,6 °C 72 % 1003,8 hPa 0,0 mm 0,0 km/h (0 Bft) O-NO 64 ° 0 min 0,000 mm 0,0 UV-I 63 W/m² 8,6 °C 13,6 °C 0,0 km/h (0 Bft)
30.04.2018 18:44 13,5 °C 71 % 1003,8 hPa 0,0 mm 0,0 km/h (0 Bft) O-NO 65 ° 0 min 0,000 mm 0,5 UV-I 65 W/m² 8,3 °C 13,5 °C 0,0 km/h (0 Bft)
30.04.2018 18:45 13,6 °C 68 % 1003,8 hPa 0,0 mm 0,0 km/h (0 Bft) O-NO 64 ° 0 min 0,000 mm 0,5 UV-I 69 W/m² 7,8 °C 13,6 °C 0,0 km/h (0 Bft)
30.04.2018 18:46 13,6 °C 69 % 1003,8 hPa 0,0 mm 0,0 km/h (0 Bft) O-NO 64 ° 0 min 0,000 mm 0,5 UV-I 67 W/m² 8,0 °C 13,6 °C 0,0 km/h (0 Bft)
30.04.2018 18:47 13,7 °C 70 % 1003,8 hPa 0,0 mm 0,0 km/h (0 Bft) O-NO 65 ° 0 min 0,000 mm 0,0 UV-I 63 W/m² 8,3 °C 13,7 °C 0,0 km/h (0 Bft)
30.04.2018 18:48 13,7 °C 68 % 1003,9 hPa 0,0 mm 0,0 km/h (0 Bft) O-NO 65 ° 0 min 0,000 mm 0,0 UV-I 63 W/m² 7,9 °C 13,7 °C 0,0 km/h (0 Bft)
30.04.2018 18:49 13,7 °C 70 % 1003,8 hPa 0,0 mm 0,0 km/h (0 Bft) O-NO 65 ° 0 min 0,000 mm 0,0 UV-I 63 W/m² 8,3 °C 13,7 °C 0,0 km/h (0 Bft)
30.04.2018 18:50 13,7 °C 68 % 1003,8 hPa 0,0 mm 0,0 km/h (0 Bft) O-NO 64 ° 0 min 0,000 mm 0,0 UV-I 53 W/m² 7,9 °C 13,7 °C 0,0 km/h (0 Bft)
30.04.2018 18:51 13,6 °C 72 % 1003,9 hPa 0,0 mm 0,0 km/h (0 Bft) O-NO 65 ° 0 min 0,000 mm 0,0 UV-I 51 W/m² 8,6 °C 13,6 °C 0,0 km/h (0 Bft)
30.04.2018 18:52 13,6 °C 72 % 1003,9 hPa 0,0 mm 0,0 km/h (0 Bft) O-NO 64 ° 0 min 0,000 mm 0,0 UV-I 49 W/m² 8,6 °C 13,6 °C 0,0 km/h (0 Bft)
30.04.2018 18:53 13,5 °C 74 % 1003,9 hPa 0,0 mm 0,0 km/h (0 Bft) O-NO 64 ° 0 min 0,000 mm 0,0 UV-I 49 W/m² 9,0 °C 13,5 °C 0,0 km/h (0 Bft)
30.04.2018 18:54 13,4 °C 74 % 1003,9 hPa 0,0 mm 0,0 km/h (0 Bft) O-NO 65 ° 0 min 0,000 mm 0,0 UV-I 47 W/m² 8,9 °C 13,4 °C 0,0 km/h (0 Bft)
30.04.2018 18:55 13,4 °C 73 % 1004,0 hPa 0,0 mm 0,0 km/h (0 Bft) O-NO 64 ° 0 min 0,000 mm 0,0 UV-I 46 W/m² 8,7 °C 13,4 °C 0,0 km/h (0 Bft)
30.04.2018 18:56 13,4 °C 73 % 1003,9 hPa 0,0 mm 0,0 km/h (0 Bft) O-NO 64 ° 0 min 0,000 mm 0,0 UV-I 47 W/m² 8,7 °C 13,4 °C 0,0 km/h (0 Bft)
30.04.2018 18:57 13,3 °C 74 % 1003,9 hPa 0,0 mm 0,0 km/h (0 Bft) O-NO 64 ° 0 min 0,000 mm 0,0 UV-I 47 W/m² 8,8 °C 13,3 °C 0,0 km/h (0 Bft)
30.04.2018 18:58 13,3 °C 73 % 1003,8 hPa 0,0 mm 0,0 km/h (0 Bft) O-NO 64 ° 0 min 0,000 mm 0,0 UV-I 35 W/m² 8,6 °C 13,3 °C 0,0 km/h (0 Bft)
30.04.2018 18:59 13,3 °C 75 % 1003,8 hPa 0,0 mm 0,0 km/h (0 Bft) O-NO 64 ° 0 min 0,000 mm 0,0 UV-I 32 W/m² 9,0 °C 13,3 °C 0,0 km/h (0 Bft)
30.04.2018 19:00 13,2 °C 76 % 1003,9 hPa 0,0 mm 0,0 km/h (0 Bft) O-NO 65 ° 0 min 0,000 mm 0,0 UV-I 30 W/m² 9,1 °C 13,2 °C 0,0 km/h (0 Bft)
30.04.2018 19:01 13,2 °C 73 % 1003,9 hPa 0,0 mm 0,0 km/h (0 Bft) O-NO 64 ° 0 min 0,051 mm 0,0 UV-I 30 W/m² 8,5 °C 13,2 °C 0,0 km/h (0 Bft)
30.04.2018 19:02 13,2 °C 73 % 1003,9 hPa 0,0 mm 0,0 km/h (0 Bft) O-NO 64 ° 0 min 0,000 mm 0,0 UV-I 28 W/m² 8,5 °C 13,2 °C 0,0 km/h (0 Bft)
30.04.2018 19:03 13,2 °C 72 % 1003,9 hPa 0,0 mm 0,1 km/h (0 Bft) O-NO 65 ° 0 min 0,000 mm 0,0 UV-I 26 W/m² 8,3 °C 13,2 °C 1,6 km/h (1 Bft)
30.04.2018 19:04 13,2 °C 72 % 1003,9 hPa 0,0 mm 1,9 km/h (1 Bft) O-NO 64 ° 0 min 0,000 mm 0,0 UV-I 23 W/m² 8,3 °C 13,2 °C 3,2 km/h (1 Bft)
30.04.2018 19:05 13,2 °C 71 % 1004,0 hPa 0,0 mm 0,9 km/h (0 Bft) O-NO 64 ° 0 min 0,000 mm 0,0 UV-I 23 W/m² 8,1 °C 13,2 °C 3,2 km/h (1 Bft)
30.04.2018 19:06 13,2 °C 70 % 1004,1 hPa 0,0 mm 0,4 km/h (0 Bft) O-NO 65 ° 0 min 0,000 mm 0,0 UV-I 18 W/m² 7,9 °C 13,2 °C 3,2 km/h (1 Bft)
30.04.2018 19:07 13,3 °C 72 % 1004,1 hPa 0,0 mm 1,1 km/h (1 Bft) O-NO 65 ° 0 min 0,000 mm 0,0 UV-I 16 W/m² 8,4 °C 13,3 °C 1,6 km/h (1 Bft)
30.04.2018 19:08 13,2 °C 73 % 1004,1 hPa 0,0 mm 0,8 km/h (0 Bft) O-NO 65 ° 0 min 0,000 mm 0,0 UV-I 16 W/m² 8,5 °C 13,2 °C 1,6 km/h (1 Bft)
30.04.2018 19:09 13,2 °C 73 % 1004,1 hPa 0,0 mm 0,3 km/h (0 Bft) O-NO 65 ° 0 min 0,000 mm 0,0 UV-I 18 W/m² 8,5 °C 13,2 °C 1,6 km/h (1 Bft)
30.04.2018 19:10 13,2 °C 75 % 1004,1 hPa 0,0 mm 0,0 km/h (0 Bft) O-NO 65 ° 0 min 0,000 mm 0,0 UV-I 18 W/m² 8,9 °C 13,2 °C 0,0 km/h (0 Bft)
30.04.2018 19:11 13,1 °C 75 % 1004,0 hPa 0,0 mm 0,0 km/h (0 Bft) O-NO 65 ° 0 min 0,000 mm 0,0 UV-I 18 W/m² 8,8 °C 13,1 °C 0,0 km/h (0 Bft)
30.04.2018 19:12 12,9 °C 75 % 1004,0 hPa 0,0 mm 0,0 km/h (0 Bft) O-NO 65 ° 0 min 0,000 mm 0,0 UV-I 18 W/m² 8,6 °C 12,9 °C 0,0 km/h (0 Bft)
30.04.2018 19:13 12,9 °C 74 % 1004,0 hPa 0,0 mm 0,0 km/h (0 Bft) O-NO 65 ° 0 min 0,000 mm 0,0 UV-I 18 W/m² 8,4 °C 12,9 °C 0,0 km/h (0 Bft)
30.04.2018 19:14 12,9 °C 73 % 1004,0 hPa 0,0 mm 0,0 km/h (0 Bft) O-NO 65 ° 0 min 0,000 mm 0,0 UV-I 18 W/m² 8,2 °C 12,9 °C 0,0 km/h (0 Bft)
30.04.2018 19:15 12,9 °C 73 % 1004,0 hPa 0,0 mm 0,1 km/h (0 Bft) O-NO 65 ° 0 min 0,000 mm 0,0 UV-I 18 W/m² 8,2 °C 12,9 °C 1,6 km/h (1 Bft)
30.04.2018 19:16 12,8 °C 75 % 1004,0 hPa 0,0 mm 1,1 km/h (1 Bft) O-NO 65 ° 0 min 0,000 mm 0,0 UV-I 19 W/m² 8,5 °C 12,8 °C 1,6 km/h (1 Bft)
30.04.2018 19:17 12,8 °C 75 % 1004,1 hPa 0,0 mm 0,8 km/h (0 Bft) O-NO 65 ° 0 min 0,000 mm 0,0 UV-I 21 W/m² 8,5 °C 12,8 °C 3,2 km/h (1 Bft)
30.04.2018 19:18 12,8 °C 74 % 1004,1 hPa 0,0 mm 2,1 km/h (1 Bft) O-NO 65 ° 0 min 0,000 mm 0,0 UV-I 26 W/m² 8,3 °C 12,8 °C 3,2 km/h (1 Bft)
30.04.2018 19:19 12,8 °C 75 % 1004,1 hPa 0,0 mm 0,1 km/h (0 Bft) O-NO 65 ° 0 min 0,000 mm 0,0 UV-I 32 W/m² 8,5 °C 12,8 °C 1,6 km/h (1 Bft)
30.04.2018 19:20 12,8 °C 74 % 1004,1 hPa 0,0 mm 0,0 km/h (0 Bft) O-NO 65 ° 0 min 0,000 mm 0,0 UV-I 39 W/m² 8,3 °C 12,8 °C 0,0 km/h (0 Bft)
30.04.2018 19:21 12,8 °C 74 % 1004,1 hPa 0,0 mm 0,0 km/h (0 Bft) O-NO 65 ° 0 min 0,000 mm 0,0 UV-I 47 W/m² 8,3 °C 12,8 °C 0,0 km/h (0 Bft)
30.04.2018 19:22 12,7 °C 74 % 1004,1 hPa 0,0 mm 0,0 km/h (0 Bft) O-NO 65 ° 0 min 0,000 mm 0,0 UV-I 51 W/m² 8,2 °C 12,7 °C 0,0 km/h (0 Bft)
30.04.2018 19:23 12,7 °C 76 % 1004,1 hPa 0,0 mm 0,0 km/h (0 Bft) O-NO 65 ° 0 min 0,000 mm 0,0 UV-I 51 W/m² 8,6 °C 12,7 °C 0,0 km/h (0 Bft)
30.04.2018 19:24 12,6 °C 76 % 1004,2 hPa 0,0 mm 0,0 km/h (0 Bft) O-NO 65 ° 0 min 0,000 mm 0,0 UV-I 51 W/m² 8,5 °C 12,6 °C 0,0 km/h (0 Bft)
30.04.2018 19:25 12,6 °C 77 % 1004,2 hPa 0,0 mm 0,0 km/h (0 Bft) O-NO 65 ° 0 min 0,000 mm 0,0 UV-I 49 W/m² 8,7 °C 12,6 °C 0,0 km/h (0 Bft)
30.04.2018 19:26 12,6 °C 76 % 1004,2 hPa 0,0 mm 0,0 km/h (0 Bft) O-NO 65 ° 0 min 0,000 mm 0,0 UV-I 49 W/m² 8,5 °C 12,6 °C 0,0 km/h (0 Bft)
30.04.2018 19:27 12,6 °C 76 % 1004,2 hPa 0,0 mm 0,0 km/h (0 Bft) O-NO 65 ° 0 min 0,000 mm 0,0 UV-I 46 W/m² 8,5 °C 12,6 °C 0,0 km/h (0 Bft)
30.04.2018 19:28 12,6 °C 76 % 1004,2 hPa 0,0 mm 0,0 km/h (0 Bft) O-NO 65 ° 0 min 0,000 mm 0,0 UV-I 39 W/m² 8,5 °C 12,6 °C 0,0 km/h (0 Bft)
30.04.2018 19:29 12,6 °C 77 % 1004,3 hPa 0,0 mm 0,0 km/h (0 Bft) O-NO 65 ° 0 min 0,000 mm 0,0 UV-I 33 W/m² 8,7 °C 12,6 °C 0,0 km/h (0 Bft)
30.04.2018 19:30 12,6 °C 79 % 1004,3 hPa 0,0 mm 1,0 km/h (0 Bft) O-NO 65 ° 0 min 0,000 mm 0,0 UV-I 30 W/m² 9,1 °C 12,6 °C 3,2 km/h (1 Bft)
30.04.2018 19:31 12,5 °C 79 % 1004,3 hPa 0,0 mm 3,0 km/h (1 Bft) O-NO 65 ° 0 min 0,000 mm 0,0 UV-I 28 W/m² 9,0 °C 12,5 °C 3,2 km/h (1 Bft)
30.04.2018 19:32 12,5 °C 76 % 1004,3 hPa 0,0 mm 2,7 km/h (1 Bft) O-NO 66 ° 0 min 0,000 mm 0,0 UV-I 26 W/m² 8,4 °C 12,5 °C 4,8 km/h (1 Bft)
30.04.2018 19:33 12,6 °C 76 % 1004,4 hPa 0,0 mm 3,2 km/h (1 Bft) SO 144 ° 0 min 0,000 mm 0,0 UV-I 21 W/m² 8,5 °C 12,6 °C 4,8 km/h (1 Bft)
30.04.2018 19:34 12,6 °C 75 % 1004,4 hPa 0,0 mm 2,7 km/h (1 Bft) SO 144 ° 0 min 0,000 mm 0,0 UV-I 19 W/m² 8,3 °C 12,6 °C 3,2 km/h (1 Bft)
30.04.2018 19:35 12,6 °C 76 % 1004,4 hPa 0,0 mm 2,8 km/h (1 Bft) SO 144 ° 0 min 0,000 mm 0,0 UV-I 18 W/m² 8,5 °C 12,6 °C 4,8 km/h (1 Bft)
30.04.2018 19:36 12,6 °C 75 % 1004,5 hPa 0,0 mm 2,1 km/h (1 Bft) SO 144 ° 0 min 0,000 mm 0,0 UV-I 16 W/m² 8,3 °C 12,6 °C 3,2 km/h (1 Bft)
30.04.2018 19:37 12,6 °C 76 % 1004,5 hPa 0,0 mm 1,1 km/h (1 Bft) SO 144 ° 0 min 0,000 mm 0,0 UV-I 14 W/m² 8,5 °C 12,6 °C 3,2 km/h (1 Bft)
30.04.2018 19:38 12,6 °C 76 % 1004,4 hPa 0,0 mm 0,0 km/h (0 Bft) SO 144 ° 0 min 0,000 mm 0,0 UV-I 12 W/m² 8,5 °C 12,6 °C 0,0 km/h (0 Bft)
30.04.2018 19:39 12,6 °C 75 % 1004,5 hPa 0,0 mm 0,0 km/h (0 Bft) SO 144 ° 0 min 0,000 mm 0,0 UV-I 9 W/m² 8,3 °C 12,6 °C 0,0 km/h (0 Bft)
30.04.2018 19:40 12,7 °C 75 % 1004,5 hPa 0,0 mm 0,0 km/h (0 Bft) SO 144 ° 0 min 0,000 mm 0,0 UV-I 9 W/m² 8,4 °C 12,7 °C 0,0 km/h (0 Bft)
30.04.2018 19:41 12,7 °C 75 % 1004,6 hPa 0,0 mm 0,0 km/h (0 Bft) SO 144 ° 0 min 0,000 mm 0,0 UV-I 9 W/m² 8,4 °C 12,7 °C 0,0 km/h (0 Bft)
30.04.2018 19:42 12,7 °C 75 % 1004,6 hPa 0,0 mm 0,0 km/h (0 Bft) SO 144 ° 0 min 0,000 mm 0,0 UV-I 7 W/m² 8,4 °C 12,7 °C 0,0 km/h (0 Bft)
30.04.2018 19:43 12,7 °C 75 % 1004,6 hPa 0,0 mm 0,0 km/h (0 Bft) SO 144 ° 0 min 0,000 mm 0,0 UV-I 9 W/m² 8,4 °C 12,7 °C 0,0 km/h (0 Bft)
30.04.2018 19:44 12,7 °C 75 % 1004,6 hPa 0,0 mm 0,0 km/h (0 Bft) SO 144 ° 0 min 0,000 mm 0,0 UV-I 7 W/m² 8,4 °C 12,7 °C 0,0 km/h (0 Bft)
30.04.2018 19:45 12,8 °C 75 % 1004,6 hPa 0,0 mm 0,0 km/h (0 Bft) SO 144 ° 0 min 0,000 mm 0,0 UV-I 5 W/m² 8,5 °C 12,8 °C 0,0 km/h (0 Bft)
30.04.2018 19:46 12,8 °C 75 % 1004,7 hPa 0,0 mm 0,0 km/h (0 Bft) SO 144 ° 0 min 0,000 mm 0,0 UV-I 5 W/m² 8,5 °C 12,8 °C 0,0 km/h (0 Bft)
30.04.2018 19:47 12,8 °C 75 % 1004,7 hPa 0,0 mm 0,7 km/h (0 Bft) SO 144 ° 0 min 0,000 mm 0,0 UV-I 5 W/m² 8,5 °C 12,8 °C 3,2 km/h (1 Bft)
30.04.2018 19:48 12,7 °C 76 % 1004,7 hPa 0,0 mm 2,6 km/h (1 Bft) W 269 ° 0 min 0,000 mm 0,0 UV-I 0 W/m² 8,6 °C 12,7 °C 4,8 km/h (1 Bft)
30.04.2018 19:49 12,8 °C 76 % 1004,7 hPa 0,0 mm 3,4 km/h (1 Bft) W 281 ° 0 min 0,000 mm 0,0 UV-I 0 W/m² 8,7 °C 12,8 °C 4,8 km/h (1 Bft)
30.04.2018 19:50 12,7 °C 76 % 1004,8 hPa 0,0 mm 3,3 km/h (1 Bft) W-SW 256 ° 0 min 0,000 mm 0,0 UV-I 0 W/m² 8,6 °C 12,7 °C 8,0 km/h (2 Bft)
30.04.2018 19:51 12,7 °C 76 % 1004,8 hPa 0,0 mm 10,1 km/h (2 Bft) W-NW 286 ° 0 min 0,000 mm 0,0 UV-I 0 W/m² 8,6 °C 12,7 °C 14,5 km/h (3 Bft)
30.04.2018 19:52 12,8 °C 74 % 1004,8 hPa 0,0 mm 5,2 km/h (1 Bft) W 263 ° 0 min 0,000 mm 0,0 UV-I 0 W/m² 8,3 °C 12,8 °C 6,4 km/h (2 Bft)
30.04.2018 19:53 12,8 °C 72 % 1004,8 hPa 0,0 mm 5,2 km/h (1 Bft) W 267 ° 0 min 0,000 mm 0,0 UV-I 0 W/m² 7,9 °C 12,8 °C 9,7 km/h (2 Bft)
30.04.2018 19:54 12,8 °C 70 % 1004,8 hPa 0,0 mm 3,9 km/h (1 Bft) W 261 ° 0 min 0,000 mm 0,0 UV-I 0 W/m² 7,5 °C 12,8 °C 6,4 km/h (2 Bft)
30.04.2018 19:55 12,9 °C 70 % 1004,9 hPa 0,0 mm 3,4 km/h (1 Bft) W-NW 288 ° 0 min 0,000 mm 0,0 UV-I 0 W/m² 7,6 °C 12,9 °C 6,4 km/h (2 Bft)
30.04.2018 19:56 12,9 °C 70 % 1004,9 hPa 0,0 mm 10,2 km/h (2 Bft) W 265 ° 0 min 0,000 mm 0,0 UV-I 0 W/m² 7,6 °C 12,9 °C 16,1 km/h (3 Bft)
30.04.2018 19:57 12,9 °C 67 % 1004,9 hPa 0,0 mm 8,2 km/h (2 Bft) W-NW 295 ° 0 min 0,000 mm 0,0 UV-I 0 W/m² 6,9 °C 12,9 °C 12,9 km/h (3 Bft)
30.04.2018 19:58 13,0 °C 67 % 1005,0 hPa 0,0 mm 4,2 km/h (1 Bft) W-NW 288 ° 0 min 0,000 mm 0,0 UV-I 0 W/m² 7,0 °C 13,0 °C 4,8 km/h (1 Bft)
30.04.2018 19:59 13,0 °C 67 % 1005,0 hPa 0,0 mm 3,4 km/h (1 Bft) W-SW 248 ° 0 min 0,000 mm 0,0 UV-I 0 W/m² 7,0 °C 13,0 °C 6,4 km/h (2 Bft)
30.04.2018 20:00 12,9 °C 68 % 1005,0 hPa 0,0 mm 4,8 km/h (1 Bft) W 263 ° 0 min 0,000 mm 0,0 UV-I 0 W/m² 7,1 °C 12,9 °C 11,3 km/h (2 Bft)
30.04.2018 20:01 13,0 °C 68 % 1005,1 hPa 0,0 mm 5,8 km/h (2 Bft) W-NW 298 ° 0 min 0,026 mm 0,0 UV-I 0 W/m² 7,2 °C 13,0 °C 11,3 km/h (2 Bft)
30.04.2018 20:02 12,9 °C 68 % 1005,1 hPa 0,0 mm 3,2 km/h (1 Bft) W-NW 295 ° 0 min 0,000 mm 0,0 UV-I 0 W/m² 7,1 °C 12,9 °C 6,4 km/h (2 Bft)
30.04.2018 20:03 12,9 °C 68 % 1005,1 hPa 0,0 mm 4,4 km/h (1 Bft) W-NW 284 ° 0 min 0,000 mm 0,0 UV-I 0 W/m² 7,1 °C 12,9 °C 4,8 km/h (1 Bft)
30.04.2018 20:04 12,9 °C 68 % 1005,1 hPa 0,0 mm 9,8 km/h (2 Bft) W 263 ° 0 min 0,000 mm 0,0 UV-I 0 W/m² 7,1 °C 12,9 °C 12,9 km/h (3 Bft)
30.04.2018 20:05 12,9 °C 69 % 1005,2 hPa 0,0 mm 9,8 km/h (2 Bft) W-NW 298 ° 0 min 0,000 mm 0,0 UV-I 0 W/m² 7,4 °C 12,9 °C 16,1 km/h (3 Bft)
30.04.2018 20:06 12,8 °C 68 % 1005,2 hPa 0,0 mm 15,6 km/h (3 Bft) W-NW 288 ° 0 min 0,000 mm 0,0 UV-I 0 W/m² 7,0 °C 12,8 °C 17,7 km/h (3 Bft)
30.04.2018 20:07 12,8 °C 68 % 1005,4 hPa 0,0 mm 15,1 km/h (3 Bft) W-NW 290 ° 0 min 0,000 mm 0,0 UV-I 0 W/m² 7,0 °C 12,8 °C 19,3 km/h (3 Bft)
30.04.2018 20:08 12,7 °C 69 % 1005,5 hPa 0,0 mm 12,8 km/h (3 Bft) W 275 ° 0 min 0,000 mm 0,0 UV-I 0 W/m² 7,2 °C 12,7 °C 20,9 km/h (4 Bft)
30.04.2018 20:09 12,6 °C 69 % 1005,5 hPa 0,0 mm 9,1 km/h (2 Bft) W-NW 291 ° 0 min 0,000 mm 0,0 UV-I 0 W/m² 7,1 °C 12,6 °C 12,9 km/h (3 Bft)
30.04.2018 20:10 12,5 °C 70 % 1005,5 hPa 0,0 mm 7,7 km/h (2 Bft) W-SW 253 ° 0 min 0,000 mm 0,0 UV-I 0 W/m² 7,2 °C 12,5 °C 14,5 km/h (3 Bft)
30.04.2018 20:11 12,4 °C 70 % 1005,5 hPa 0,0 mm 6,0 km/h (2 Bft) SW 215 ° 0 min 0,000 mm 0,0 UV-I 0 W/m² 7,1 °C 12,4 °C 12,9 km/h (3 Bft)
30.04.2018 20:12 12,3 °C 70 % 1005,5 hPa 0,0 mm 6,2 km/h (2 Bft) W-NW 294 ° 0 min 0,000 mm 0,0 UV-I 0 W/m² 7,0 °C 12,3 °C 12,9 km/h (3 Bft)
30.04.2018 20:13 12,2 °C 70 % 1005,5 hPa 0,0 mm 11,0 km/h (2 Bft) W-NW 289 ° 0 min 0,000 mm 0,0 UV-I 0 W/m² 6,9 °C 12,2 °C 14,5 km/h (3 Bft)
30.04.2018 20:14 12,2 °C 70 % 1005,5 hPa 0,0 mm 7,2 km/h (2 Bft) W 279 ° 0 min 0,000 mm 0,0 UV-I 0 W/m² 6,9 °C 12,2 °C 14,5 km/h (3 Bft)
30.04.2018 20:15 12,2 °C 70 % 1005,4 hPa 0,0 mm 3,9 km/h (1 Bft) W 272 ° 0 min 0,000 mm 0,0 UV-I 0 W/m² 6,9 °C 12,2 °C 6,4 km/h (2 Bft)
30.04.2018 20:16 12,1 °C 70 % 1005,4 hPa 0,0 mm 5,4 km/h (1 Bft) W 267 ° 0 min 0,000 mm 0,0 UV-I 0 W/m² 6,8 °C 12,1 °C 9,7 km/h (2 Bft)
30.04.2018 20:17 12,0 °C 73 % 1005,5 hPa 0,0 mm 8,9 km/h (2 Bft) W 274 ° 0 min 0,000 mm 0,0 UV-I 0 W/m² 7,3 °C 12,0 °C 12,9 km/h (3 Bft)
30.04.2018 20:18 11,9 °C 71 % 1005,5 hPa 0,0 mm 9,4 km/h (2 Bft) W-NW 286 ° 0 min 0,000 mm 0,0 UV-I 0 W/m² 6,8 °C 11,9 °C 14,5 km/h (3 Bft)
30.04.2018 20:19 11,9 °C 72 % 1005,5 hPa 0,0 mm 7,9 km/h (2 Bft) W-SW 248 ° 0 min 0,000 mm 0,0 UV-I 0 W/m² 7,0 °C 11,9 °C 11,3 km/h (2 Bft)
30.04.2018 20:20 11,8 °C 72 % 1005,6 hPa 0,0 mm 5,8 km/h (2 Bft) W 267 ° 0 min 0,000 mm 0,0 UV-I 0 W/m² 6,9 °C 11,8 °C 12,9 km/h (3 Bft)
30.04.2018 20:21 11,8 °C 72 % 1005,6 hPa 0,0 mm 6,0 km/h (2 Bft) W-NW 289 ° 0 min 0,000 mm 0,0 UV-I 0 W/m² 6,9 °C 11,8 °C 11,3 km/h (2 Bft)
30.04.2018 20:22 11,8 °C 72 % 1005,7 hPa 0,0 mm 4,1 km/h (1 Bft) W-NW 286 ° 0 min 0,000 mm 0,0 UV-I 0 W/m² 6,9 °C 11,8 °C 11,3 km/h (2 Bft)
30.04.2018 20:23 11,7 °C 73 % 1005,6 hPa 0,0 mm 7,4 km/h (2 Bft) W-NW 292 ° 0 min 0,000 mm 0,0 UV-I 0 W/m² 7,0 °C 11,7 °C 11,3 km/h (2 Bft)
30.04.2018 20:24 11,7 °C 72 % 1005,6 hPa 0,0 mm 3,8 km/h (1 Bft) W 271 ° 0 min 0,000 mm 0,0 UV-I 0 W/m² 6,8 °C 11,7 °C 4,8 km/h (1 Bft)
30.04.2018 20:25 11,7 °C 73 % 1005,6 hPa 0,0 mm 3,4 km/h (1 Bft) W-NW 299 ° 0 min 0,000 mm 0,0 UV-I 0 W/m² 7,0 °C 11,7 °C 6,4 km/h (2 Bft)
30.04.2018 20:26 11,7 °C 73 % 1005,6 hPa 0,0 mm 4,1 km/h (1 Bft) W-NW 295 ° 0 min 0,000 mm 0,0 UV-I 0 W/m² 7,0 °C 11,7 °C 8,0 km/h (2 Bft)
30.04.2018 20:27 11,7 °C 71 % 1005,6 hPa 0,0 mm 3,9 km/h (1 Bft) W-NW 282 ° 0 min 0,000 mm 0,0 UV-I 0 W/m² 6,6 °C 11,7 °C 6,4 km/h (2 Bft)
30.04.2018 20:28 11,7 °C 72 % 1005,6 hPa 0,0 mm 1,9 km/h (1 Bft) W-NW 286 ° 0 min 0,000 mm 0,0 UV-I 0 W/m² 6,8 °C 11,7 °C 6,4 km/h (2 Bft)
30.04.2018 20:29 11,7 °C 74 % 1005,6 hPa 0,0 mm 4,4 km/h (1 Bft) W-SW 256 ° 0 min 0,000 mm 0,0 UV-I 0 W/m² 7,2 °C 11,7 °C 6,4 km/h (2 Bft)
30.04.2018 20:30 11,6 °C 72 % 1005,6 hPa 0,0 mm 4,4 km/h (1 Bft) W 271 ° 0 min 0,000 mm 0,0 UV-I 0 W/m² 6,7 °C 11,6 °C 6,4 km/h (2 Bft)
30.04.2018 20:31 11,6 °C 72 % 1005,7 hPa 0,0 mm 4,9 km/h (1 Bft) W-NW 291 ° 0 min 0,000 mm 0,0 UV-I 0 W/m² 6,7 °C 11,6 °C 11,3 km/h (2 Bft)
30.04.2018 20:32 11,6 °C 73 % 1005,7 hPa 0,0 mm 2,7 km/h (1 Bft) W-NW 282 ° 0 min 0,000 mm 0,0 UV-I 0 W/m² 6,9 °C 11,6 °C 4,8 km/h (1 Bft)
30.04.2018 20:33 11,6 °C 73 % 1005,7 hPa 0,0 mm 7,0 km/h (2 Bft) W 280 ° 0 min 0,000 mm 0,0 UV-I 0 W/m² 6,9 °C 11,6 °C 14,5 km/h (3 Bft)
30.04.2018 20:34 11,6 °C 72 % 1005,7 hPa 0,0 mm 6,8 km/h (2 Bft) W-NW 291 ° 0 min 0,000 mm 0,0 UV-I 0 W/m² 6,7 °C 11,6 °C 9,7 km/h (2 Bft)
30.04.2018 20:35 11,6 °C 72 % 1005,8 hPa 0,0 mm 7,2 km/h (2 Bft) W 276 ° 0 min 0,000 mm 0,0 UV-I 0 W/m² 6,7 °C 11,6 °C 11,3 km/h (2 Bft)
30.04.2018 20:36 11,6 °C 72 % 1005,8 hPa 0,0 mm 4,2 km/h (1 Bft) W 273 ° 0 min 0,000 mm 0,0 UV-I 0 W/m² 6,7 °C 11,6 °C 6,4 km/h (2 Bft)
30.04.2018 20:37 11,6 °C 72 % 1005,8 hPa 0,0 mm 6,4 km/h (2 Bft) W-SW 253 ° 0 min 0,000 mm 0,0 UV-I 0 W/m² 6,7 °C 11,6 °C 11,3 km/h (2 Bft)
30.04.2018 20:38 11,6 °C 72 % 1005,8 hPa 0,0 mm 6,9 km/h (2 Bft) W 277 ° 0 min 0,000 mm 0,0 UV-I 0 W/m² 6,7 °C 11,6 °C 11,3 km/h (2 Bft)
30.04.2018 20:39 11,6 °C 72 % 1005,9 hPa 0,0 mm 7,0 km/h (2 Bft) W-SW 257 ° 0 min 0,000 mm 0,0 UV-I 0 W/m² 6,7 °C 11,6 °C 11,3 km/h (2 Bft)
30.04.2018 20:40 11,6 °C 72 % 1005,9 hPa 0,0 mm 7,0 km/h (2 Bft) W 277 ° 0 min 0,000 mm 0,0 UV-I 0 W/m² 6,7 °C 11,6 °C 11,3 km/h (2 Bft)
30.04.2018 20:41 11,6 °C 70 % 1005,9 hPa 0,0 mm 5,9 km/h (2 Bft) W 275 ° 0 min 0,000 mm 0,0 UV-I 0 W/m² 6,3 °C 11,6 °C 11,3 km/h (2 Bft)
30.04.2018 20:42 11,6 °C 72 % 1005,9 hPa 0,0 mm 4,3 km/h (1 Bft) W-SW 250 ° 0 min 0,000 mm 0,0 UV-I 0 W/m² 6,7 °C 11,6 °C 8,0 km/h (2 Bft)
30.04.2018 20:43 11,6 °C 70 % 1005,9 hPa 0,0 mm 6,2 km/h (2 Bft) W 265 ° 0 min 0,000 mm 0,0 UV-I 0 W/m² 6,3 °C 11,6 °C 9,7 km/h (2 Bft)
30.04.2018 20:44 11,6 °C 70 % 1006,0 hPa 0,0 mm 8,5 km/h (2 Bft) W-SW 240 ° 0 min 0,000 mm 0,0 UV-I 0 W/m² 6,3 °C 11,6 °C 12,9 km/h (3 Bft)
30.04.2018 20:45 11,6 °C 70 % 1005,9 hPa 0,0 mm 6,7 km/h (2 Bft) W-NW 291 ° 0 min 0,000 mm 0,0 UV-I 0 W/m² 6,3 °C 11,6 °C 11,3 km/h (2 Bft)
30.04.2018 20:46 11,6 °C 69 % 1006,0 hPa 0,0 mm 5,8 km/h (2 Bft) W 263 ° 0 min 0,000 mm 0,0 UV-I 0 W/m² 6,1 °C 11,6 °C 9,7 km/h (2 Bft)
30.04.2018 20:47 11,7 °C 68 % 1006,0 hPa 0,0 mm 9,0 km/h (2 Bft) W 277 ° 0 min 0,000 mm 0,0 UV-I 0 W/m² 6,0 °C 11,7 °C 14,5 km/h (3 Bft)
30.04.2018 20:48 11,7 °C 69 % 1006,0 hPa 0,0 mm 7,0 km/h (2 Bft) NW 306 ° 0 min 0,000 mm 0,0 UV-I 0 W/m² 6,2 °C 11,7 °C 12,9 km/h (3 Bft)
30.04.2018 20:49 11,7 °C 68 % 1006,0 hPa 0,0 mm 4,4 km/h (1 Bft) NW 308 ° 0 min 0,000 mm 0,0 UV-I 0 W/m² 6,0 °C 11,7 °C 11,3 km/h (2 Bft)
30.04.2018 20:50 11,7 °C 69 % 1006,1 hPa 0,0 mm 5,8 km/h (2 Bft) W-NW 289 ° 0 min 0,000 mm 0,0 UV-I 0 W/m² 6,2 °C 11,7 °C 9,7 km/h (2 Bft)
30.04.2018 20:51 11,7 °C 69 % 1006,0 hPa 0,0 mm 5,0 km/h (1 Bft) W-NW 300 ° 0 min 0,000 mm 0,0 UV-I 0 W/m² 6,2 °C 11,7 °C 8,0 km/h (2 Bft)
30.04.2018 20:52 11,7 °C 69 % 1006,0 hPa 0,0 mm 4,4 km/h (1 Bft) W-SW 257 ° 0 min 0,000 mm 0,0 UV-I 0 W/m² 6,2 °C 11,7 °C 8,0 km/h (2 Bft)
30.04.2018 20:53 11,6 °C 69 % 1006,1 hPa 0,0 mm 7,1 km/h (2 Bft) W 272 ° 0 min 0,000 mm 0,0 UV-I 0 W/m² 6,1 °C 11,6 °C 12,9 km/h (3 Bft)
30.04.2018 20:54 11,6 °C 68 % 1006,1 hPa 0,0 mm 6,8 km/h (2 Bft) W-NW 292 ° 0 min 0,000 mm 0,0 UV-I 0 W/m² 5,9 °C 11,6 °C 11,3 km/h (2 Bft)
30.04.2018 20:55 11,6 °C 68 % 1006,1 hPa 0,0 mm 5,8 km/h (2 Bft) W 261 ° 0 min 0,000 mm 0,0 UV-I 0 W/m² 5,9 °C 11,6 °C 11,3 km/h (2 Bft)
30.04.2018 20:56 11,6 °C 69 % 1006,2 hPa 0,0 mm 3,1 km/h (1 Bft) W 259 ° 0 min 0,000 mm 0,0 UV-I 0 W/m² 6,1 °C 11,6 °C 4,8 km/h (1 Bft)
30.04.2018 20:57 11,5 °C 69 % 1006,2 hPa 0,0 mm 1,7 km/h (1 Bft) W-NW 284 ° 0 min 0,000 mm 0,0 UV-I 0 W/m² 6,0 °C 11,5 °C 6,4 km/h (2 Bft)
30.04.2018 20:58 11,4 °C 69 % 1006,3 hPa 0,0 mm 6,8 km/h (2 Bft) W 259 ° 0 min 0,000 mm 0,0 UV-I 0 W/m² 5,9 °C 11,4 °C 9,7 km/h (2 Bft)
30.04.2018 20:59 11,4 °C 70 % 1006,3 hPa 0,0 mm 12,8 km/h (3 Bft) W-SW 253 ° 0 min 0,000 mm 0,0 UV-I 0 W/m² 6,1 °C 11,4 °C 17,7 km/h (3 Bft)
30.04.2018 21:00 11,4 °C 68 % 1006,3 hPa 0,0 mm 6,8 km/h (2 Bft) W-NW 286 ° 0 min 0,000 mm 0,0 UV-I 0 W/m² 5,7 °C 11,4 °C 14,5 km/h (3 Bft)
30.04.2018 21:01 11,4 °C 69 % 1006,4 hPa 0,0 mm 4,0 km/h (1 Bft) W-SW 249 ° 0 min 0,025 mm 0,0 UV-I 0 W/m² 5,9 °C 11,4 °C 9,7 km/h (2 Bft)
30.04.2018 21:02 11,4 °C 69 % 1006,4 hPa 0,0 mm 5,7 km/h (1 Bft) W 269 ° 0 min 0,000 mm 0,0 UV-I 0 W/m² 5,9 °C 11,4 °C 11,3 km/h (2 Bft)
30.04.2018 21:03 11,4 °C 68 % 1006,4 hPa 0,0 mm 4,3 km/h (1 Bft) W 269 ° 0 min 0,000 mm 0,0 UV-I 0 W/m² 5,7 °C 11,4 °C 6,4 km/h (2 Bft)
30.04.2018 21:04 11,4 °C 68 % 1006,4 hPa 0,0 mm 3,4 km/h (1 Bft) W 279 ° 0 min 0,000 mm 0,0 UV-I 0 W/m² 5,7 °C 11,4 °C 4,8 km/h (1 Bft)
30.04.2018 21:05 11,4 °C 69 % 1006,4 hPa 0,0 mm 5,9 km/h (2 Bft) W-NW 288 ° 0 min 0,000 mm 0,0 UV-I 0 W/m² 5,9 °C 11,4 °C 12,9 km/h (3 Bft)
30.04.2018 21:06 11,4 °C 68 % 1006,4 hPa 0,0 mm 7,8 km/h (2 Bft) W-NW 295 ° 0 min 0,000 mm 0,0 UV-I 0 W/m² 5,7 °C 11,4 °C 12,9 km/h (3 Bft)
30.04.2018 21:07 11,5 °C 68 % 1006,4 hPa 0,0 mm 8,1 km/h (2 Bft) W-SW 255 ° 0 min 0,000 mm 0,0 UV-I 0 W/m² 5,8 °C 11,5 °C 11,3 km/h (2 Bft)
30.04.2018 21:08 11,5 °C 68 % 1006,4 hPa 0,0 mm 4,7 km/h (1 Bft) W 269 ° 0 min 0,000 mm 0,0 UV-I 0 W/m² 5,8 °C 11,5 °C 9,7 km/h (2 Bft)
30.04.2018 21:09 11,4 °C 67 % 1006,4 hPa 0,0 mm 4,1 km/h (1 Bft) W 279 ° 0 min 0,000 mm 0,0 UV-I 0 W/m² 5,5 °C 11,4 °C 12,9 km/h (3 Bft)
30.04.2018 21:10 11,5 °C 66 % 1006,5 hPa 0,0 mm 5,2 km/h (1 Bft) W-NW 290 ° 0 min 0,000 mm 0,0 UV-I 0 W/m² 5,4 °C 11,5 °C 11,3 km/h (2 Bft)
30.04.2018 21:11 11,4 °C 67 % 1006,5 hPa 0,0 mm 5,4 km/h (1 Bft) W 281 ° 0 min 0,000 mm 0,0 UV-I 0 W/m² 5,5 °C 11,4 °C 9,7 km/h (2 Bft)
30.04.2018 21:12 11,4 °C 68 % 1006,5 hPa 0,0 mm 3,4 km/h (1 Bft) W 263 ° 0 min 0,000 mm 0,0 UV-I 0 W/m² 5,7 °C 11,4 °C 4,8 km/h (1 Bft)
30.04.2018 21:13 11,3 °C 68 % 1006,6 hPa 0,0 mm 1,5 km/h (1 Bft) W 263 ° 0 min 0,000 mm 0,0 UV-I 0 W/m² 5,6 °C 11,3 °C 3,2 km/h (1 Bft)
30.04.2018 21:14 11,2 °C 69 % 1006,6 hPa 0,0 mm 3,1 km/h (1 Bft) W-NW 299 ° 0 min 0,000 mm 0,0 UV-I 0 W/m² 5,7 °C 11,2 °C 4,8 km/h (1 Bft)
30.04.2018 21:15 11,2 °C 69 % 1006,6 hPa 0,0 mm 4,4 km/h (1 Bft) W 271 ° 0 min 0,000 mm 0,0 UV-I 0 W/m² 5,7 °C 11,2 °C 6,4 km/h (2 Bft)
30.04.2018 21:16 11,1 °C 69 % 1006,7 hPa 0,0 mm 4,1 km/h (1 Bft) W 267 ° 0 min 0,000 mm 0,0 UV-I 0 W/m² 5,6 °C 11,1 °C 4,8 km/h (1 Bft)
30.04.2018 21:17 11,1 °C 69 % 1006,7 hPa 0,0 mm 3,8 km/h (1 Bft) W 279 ° 0 min 0,000 mm 0,0 UV-I 0 W/m² 5,6 °C 11,1 °C 6,4 km/h (2 Bft)
30.04.2018 21:18 11,0 °C 70 % 1006,8 hPa 0,0 mm 2,5 km/h (1 Bft) W 279 ° 0 min 0,000 mm 0,0 UV-I 0 W/m² 5,7 °C 11,0 °C 4,8 km/h (1 Bft)
30.04.2018 21:19 10,9 °C 70 % 1006,7 hPa 0,0 mm 5,3 km/h (1 Bft) W 259 ° 0 min 0,000 mm 0,0 UV-I 0 W/m² 5,6 °C 10,9 °C 6,4 km/h (2 Bft)
30.04.2018 21:20 10,9 °C 70 % 1006,7 hPa 0,0 mm 3,0 km/h (1 Bft) W 268 ° 0 min 0,000 mm 0,0 UV-I 0 W/m² 5,6 °C 10,9 °C 4,8 km/h (1 Bft)
30.04.2018 21:21 10,9 °C 69 % 1006,8 hPa 0,0 mm 3,4 km/h (1 Bft) W 261 ° 0 min 0,000 mm 0,0 UV-I 0 W/m² 5,4 °C 10,9 °C 4,8 km/h (1 Bft)
30.04.2018 21:22 11,0 °C 68 % 1006,8 hPa 0,0 mm 3,9 km/h (1 Bft) W-NW 286 ° 0 min 0,000 mm 0,0 UV-I 0 W/m² 5,3 °C 11,0 °C 6,4 km/h (2 Bft)
30.04.2018 21:23 11,0 °C 70 % 1006,8 hPa 0,0 mm 2,4 km/h (1 Bft) W-NW 286 ° 0 min 0,000 mm 0,0 UV-I 0 W/m² 5,7 °C 11,0 °C 4,8 km/h (1 Bft)
30.04.2018 21:24 11,0 °C 69 % 1006,8 hPa 0,0 mm 1,8 km/h (1 Bft) W-NW 286 ° 0 min 0,000 mm 0,0 UV-I 0 W/m² 5,5 °C 11,0 °C 3,2 km/h (1 Bft)
30.04.2018 21:25 10,9 °C 70 % 1006,8 hPa 0,0 mm 1,3 km/h (1 Bft) W-NW 286 ° 0 min 0,000 mm 0,0 UV-I 0 W/m² 5,6 °C 10,9 °C 3,2 km/h (1 Bft)
30.04.2018 21:26 10,9 °C 71 % 1006,8 hPa 0,0 mm 2,4 km/h (1 Bft) W-NW 286 ° 0 min 0,000 mm 0,0 UV-I 0 W/m² 5,9 °C 10,9 °C 4,8 km/h (1 Bft)
30.04.2018 21:27 10,9 °C 70 % 1006,8 hPa 0,0 mm 0,8 km/h (0 Bft) W-NW 286 ° 0 min 0,000 mm 0,0 UV-I 0 W/m² 5,6 °C 10,9 °C 3,2 km/h (1 Bft)
30.04.2018 21:28 10,9 °C 69 % 1006,8 hPa 0,0 mm 2,9 km/h (1 Bft) W-NW 286 ° 0 min 0,000 mm 0,0 UV-I 0 W/m² 5,4 °C 10,9 °C 4,8 km/h (1 Bft)
30.04.2018 21:29 10,9 °C 69 % 1006,8 hPa 0,0 mm 0,3 km/h (0 Bft) W-NW 286 ° 0 min 0,000 mm 0,0 UV-I 0 W/m² 5,4 °C 10,9 °C 1,6 km/h (1 Bft)
30.04.2018 21:30 10,9 °C 70 % 1006,8 hPa 0,0 mm 1,0 km/h (0 Bft) W-NW 286 ° 0 min 0,000 mm 0,0 UV-I 0 W/m² 5,6 °C 10,9 °C 4,8 km/h (1 Bft)
30.04.2018 21:31 10,9 °C 69 % 1006,9 hPa 0,0 mm 3,7 km/h (1 Bft) W 259 ° 0 min 0,000 mm 0,0 UV-I 0 W/m² 5,4 °C 10,9 °C 6,4 km/h (2 Bft)
30.04.2018 21:32 10,9 °C 69 % 1006,9 hPa 0,0 mm 1,7 km/h (1 Bft) W 259 ° 0 min 0,000 mm 0,0 UV-I 0 W/m² 5,4 °C 10,9 °C 3,2 km/h (1 Bft)
30.04.2018 21:33 10,9 °C 69 % 1006,9 hPa 0,0 mm 2,3 km/h (1 Bft) W 259 ° 0 min 0,000 mm 0,0 UV-I 0 W/m² 5,4 °C 10,9 °C 4,8 km/h (1 Bft)
30.04.2018 21:34 10,8 °C 69 % 1006,9 hPa 0,0 mm 0,1 km/h (0 Bft) W 259 ° 0 min 0,000 mm 0,0 UV-I 0 W/m² 5,3 °C 10,8 °C 1,6 km/h (1 Bft)
30.04.2018 21:35 10,8 °C 69 % 1007,0 hPa 0,0 mm 3,6 km/h (1 Bft) W-NW 298 ° 0 min 0,000 mm 0,0 UV-I 0 W/m² 5,3 °C 10,8 °C 6,4 km/h (2 Bft)
30.04.2018 21:36 10,9 °C 69 % 1007,0 hPa 0,0 mm 5,2 km/h (1 Bft) W 264 ° 0 min 0,000 mm 0,0 UV-I 0 W/m² 5,4 °C 10,9 °C 12,9 km/h (3 Bft)
30.04.2018 21:37 10,9 °C 68 % 1007,0 hPa 0,0 mm 4,6 km/h (1 Bft) W 280 ° 0 min 0,000 mm 0,0 UV-I 0 W/m² 5,2 °C 10,9 °C 9,7 km/h (2 Bft)
30.04.2018 21:38 11,0 °C 68 % 1007,0 hPa 0,0 mm 3,2 km/h (1 Bft) W-NW 298 ° 0 min 0,000 mm 0,0 UV-I 0 W/m² 5,3 °C 11,0 °C 4,8 km/h (1 Bft)
30.04.2018 21:39 10,9 °C 68 % 1007,0 hPa 0,0 mm 0,2 km/h (0 Bft) W-NW 298 ° 0 min 0,000 mm 0,0 UV-I 0 W/m² 5,2 °C 10,9 °C 1,6 km/h (1 Bft)
30.04.2018 21:40 10,9 °C 69 % 1007,0 hPa 0,0 mm 1,0 km/h (0 Bft) W 261 ° 0 min 0,000 mm 0,0 UV-I 0 W/m² 5,4 °C 10,9 °C 3,2 km/h (1 Bft)
30.04.2018 21:41 10,9 °C 68 % 1007,0 hPa 0,0 mm 1,3 km/h (1 Bft) W 261 ° 0 min 0,000 mm 0,0 UV-I 0 W/m² 5,2 °C 10,9 °C 3,2 km/h (1 Bft)
30.04.2018 21:42 10,9 °C 69 % 1007,0 hPa 0,0 mm 2,7 km/h (1 Bft) W 261 ° 0 min 0,000 mm 0,0 UV-I 0 W/m² 5,4 °C 10,9 °C 3,2 km/h (1 Bft)
30.04.2018 21:43 10,9 °C 69 % 1007,0 hPa 0,0 mm 1,7 km/h (1 Bft) W 261 ° 0 min 0,000 mm 0,0 UV-I 0 W/m² 5,4 °C 10,9 °C 3,2 km/h (1 Bft)
30.04.2018 21:44 10,9 °C 68 % 1007,0 hPa 0,0 mm 4,0 km/h (1 Bft) W-SW 254 ° 0 min 0,000 mm 0,0 UV-I 0 W/m² 5,2 °C 10,9 °C 6,4 km/h (2 Bft)
30.04.2018 21:45 11,0 °C 68 % 1007,0 hPa 0,0 mm 2,9 km/h (1 Bft) W-SW 251 ° 0 min 0,000 mm 0,0 UV-I 0 W/m² 5,3 °C 11,0 °C 4,8 km/h (1 Bft)
30.04.2018 21:46 10,9 °C 69 % 1007,0 hPa 0,0 mm 2,0 km/h (1 Bft) W-SW 251 ° 0 min 0,000 mm 0,0 UV-I 0 W/m² 5,4 °C 10,9 °C 3,2 km/h (1 Bft)
30.04.2018 21:47 10,9 °C 69 % 1007,0 hPa 0,0 mm 0,5 km/h (0 Bft) W-SW 251 ° 0 min 0,000 mm 0,0 UV-I 0 W/m² 5,4 °C 10,9 °C 1,6 km/h (1 Bft)
30.04.2018 21:48 10,9 °C 69 % 1007,0 hPa 0,0 mm 0,0 km/h (0 Bft) W-SW 251 ° 0 min 0,000 mm 0,0 UV-I 0 W/m² 5,4 °C 10,9 °C 0,0 km/h (0 Bft)
30.04.2018 21:49 10,8 °C 68 % 1007,0 hPa 0,0 mm 0,0 km/h (0 Bft) W-SW 251 ° 0 min 0,000 mm 0,0 UV-I 0 W/m² 5,1 °C 10,8 °C 0,0 km/h (0 Bft)
30.04.2018 21:50 10,8 °C 68 % 1007,0 hPa 0,0 mm 0,0 km/h (0 Bft) W-SW 251 ° 0 min 0,000 mm 0,0 UV-I 0 W/m² 5,1 °C 10,8 °C 0,0 km/h (0 Bft)
30.04.2018 21:51 10,8 °C 68 % 1007,0 hPa 0,0 mm 0,0 km/h (0 Bft) W-SW 251 ° 0 min 0,000 mm 0,0 UV-I 0 W/m² 5,1 °C 10,8 °C 0,0 km/h (0 Bft)
30.04.2018 21:52 10,8 °C 69 % 1007,0 hPa 0,0 mm 0,0 km/h (0 Bft) W-SW 251 ° 0 min 0,000 mm 0,0 UV-I 0 W/m² 5,3 °C 10,8 °C 0,0 km/h (0 Bft)
30.04.2018 21:53 10,8 °C 69 % 1007,0 hPa 0,0 mm 0,8 km/h (0 Bft) W-SW 251 ° 0 min 0,000 mm 0,0 UV-I 0 W/m² 5,3 °C 10,8 °C 3,2 km/h (1 Bft)
30.04.2018 21:54 10,8 °C 71 % 1007,0 hPa 0,0 mm 0,5 km/h (0 Bft) W-SW 251 ° 0 min 0,000 mm 0,0 UV-I 0 W/m² 5,8 °C 10,8 °C 1,6 km/h (1 Bft)
30.04.2018 21:55 10,7 °C 70 % 1007,1 hPa 0,0 mm 0,2 km/h (0 Bft) W-SW 251 ° 0 min 0,000 mm 0,0 UV-I 0 W/m² 5,5 °C 10,7 °C 1,6 km/h (1 Bft)
30.04.2018 21:56 10,7 °C 69 % 1007,1 hPa 0,0 mm 0,7 km/h (0 Bft) W-SW 251 ° 0 min 0,000 mm 0,0 UV-I 0 W/m² 5,2 °C 10,7 °C 1,6 km/h (1 Bft)
30.04.2018 21:57 10,7 °C 69 % 1007,1 hPa 0,0 mm 0,0 km/h (0 Bft) W-SW 251 ° 0 min 0,000 mm 0,0 UV-I 0 W/m² 5,2 °C 10,7 °C 0,0 km/h (0 Bft)
30.04.2018 21:58 10,7 °C 69 % 1007,2 hPa 0,0 mm 0,2 km/h (0 Bft) W-SW 251 ° 0 min 0,000 mm 0,0 UV-I 0 W/m² 5,2 °C 10,7 °C 1,6 km/h (1 Bft)
30.04.2018 21:59 10,7 °C 70 % 1007,2 hPa 0,0 mm 0,0 km/h (0 Bft) W-SW 251 ° 0 min 0,000 mm 0,0 UV-I 0 W/m² 5,5 °C 10,7 °C 0,0 km/h (0 Bft)
30.04.2018 22:00 10,8 °C 70 % 1007,2 hPa 0,0 mm 0,0 km/h (0 Bft) W-SW 251 ° 0 min 0,000 mm 0,0 UV-I 0 W/m² 5,6 °C 10,8 °C 0,0 km/h (0 Bft)
30.04.2018 22:01 10,8 °C 69 % 1007,2 hPa 0,0 mm 0,0 km/h (0 Bft) W-SW 251 ° 0 min 0,025 mm 0,0 UV-I 0 W/m² 5,3 °C 10,8 °C 0,0 km/h (0 Bft)
30.04.2018 22:02 10,8 °C 69 % 1007,2 hPa 0,0 mm 0,2 km/h (0 Bft) W 263 ° 0 min 0,000 mm 0,0 UV-I 0 W/m² 5,3 °C 10,8 °C 1,6 km/h (1 Bft)
30.04.2018 22:03 10,8 °C 69 % 1007,2 hPa 0,0 mm 1,9 km/h (1 Bft) W 263 ° 0 min 0,000 mm 0,0 UV-I 0 W/m² 5,3 °C 10,8 °C 4,8 km/h (1 Bft)
30.04.2018 22:04 10,8 °C 70 % 1007,2 hPa 0,0 mm 5,0 km/h (1 Bft) W-NW 285 ° 0 min 0,000 mm 0,0 UV-I 0 W/m² 5,6 °C 10,8 °C 9,7 km/h (2 Bft)
30.04.2018 22:05 10,7 °C 70 % 1007,2 hPa 0,0 mm 5,5 km/h (1 Bft) W 263 ° 0 min 0,000 mm 0,0 UV-I 0 W/m² 5,5 °C 10,7 °C 9,7 km/h (2 Bft)
30.04.2018 22:06 10,7 °C 69 % 1007,2 hPa 0,0 mm 2,5 km/h (1 Bft) W 267 ° 0 min 0,000 mm 0,0 UV-I 0 W/m² 5,2 °C 10,7 °C 4,8 km/h (1 Bft)
30.04.2018 22:07 10,7 °C 69 % 1007,2 hPa 0,0 mm 4,6 km/h (1 Bft) W 268 ° 0 min 0,000 mm 0,0 UV-I 0 W/m² 5,2 °C 10,7 °C 6,4 km/h (2 Bft)
30.04.2018 22:08 10,7 °C 69 % 1007,2 hPa 0,0 mm 3,1 km/h (1 Bft) W-SW 252 ° 0 min 0,000 mm 0,0 UV-I 0 W/m² 5,2 °C 10,7 °C 6,4 km/h (2 Bft)
30.04.2018 22:09 10,7 °C 69 % 1007,2 hPa 0,0 mm 0,5 km/h (0 Bft) W-SW 252 ° 0 min 0,000 mm 0,0 UV-I 0 W/m² 5,2 °C 10,7 °C 3,2 km/h (1 Bft)
30.04.2018 22:10 10,7 °C 69 % 1007,3 hPa 0,0 mm 2,3 km/h (1 Bft) W-SW 252 ° 0 min 0,000 mm 0,0 UV-I 0 W/m² 5,2 °C 10,7 °C 4,8 km/h (1 Bft)
30.04.2018 22:11 10,7 °C 69 % 1007,3 hPa 0,0 mm 2,4 km/h (1 Bft) W 279 ° 0 min 0,000 mm 0,0 UV-I 0 W/m² 5,2 °C 10,7 °C 4,8 km/h (1 Bft)
30.04.2018 22:12 10,7 °C 68 % 1007,3 hPa 0,0 mm 1,2 km/h (1 Bft) W 279 ° 0 min 0,000 mm 0,0 UV-I 0 W/m² 5,0 °C 10,7 °C 3,2 km/h (1 Bft)
30.04.2018 22:13 10,7 °C 68 % 1007,3 hPa 0,0 mm 0,9 km/h (0 Bft) W 279 ° 0 min 0,000 mm 0,0 UV-I 0 W/m² 5,0 °C 10,7 °C 3,2 km/h (1 Bft)
30.04.2018 22:14 10,7 °C 69 % 1007,3 hPa 0,0 mm 1,7 km/h (1 Bft) W 279 ° 0 min 0,000 mm 0,0 UV-I 0 W/m² 5,2 °C 10,7 °C 3,2 km/h (1 Bft)
30.04.2018 22:15 10,7 °C 69 % 1007,3 hPa 0,0 mm 0,2 km/h (0 Bft) W 279 ° 0 min 0,000 mm 0,0 UV-I 0 W/m² 5,2 °C 10,7 °C 1,6 km/h (1 Bft)
30.04.2018 22:16 10,7 °C 68 % 1007,3 hPa 0,0 mm 0,0 km/h (0 Bft) W 279 ° 0 min 0,000 mm 0,0 UV-I 0 W/m² 5,0 °C 10,7 °C 0,0 km/h (0 Bft)
30.04.2018 22:17 10,7 °C 69 % 1007,3 hPa 0,0 mm 0,0 km/h (0 Bft) W 279 ° 0 min 0,000 mm 0,0 UV-I 0 W/m² 5,2 °C 10,7 °C 0,0 km/h (0 Bft)
30.04.2018 22:18 10,6 °C 69 % 1007,3 hPa 0,0 mm 0,0 km/h (0 Bft) W 279 ° 0 min 0,000 mm 0,0 UV-I 0 W/m² 5,2 °C 10,6 °C 0,0 km/h (0 Bft)
30.04.2018 22:19 10,6 °C 69 % 1007,3 hPa 0,0 mm 0,0 km/h (0 Bft) W 279 ° 0 min 0,000 mm 0,0 UV-I 0 W/m² 5,2 °C 10,6 °C 0,0 km/h (0 Bft)
30.04.2018 22:20 10,6 °C 68 % 1007,3 hPa 0,0 mm 0,5 km/h (0 Bft) W 279 ° 0 min 0,000 mm 0,0 UV-I 0 W/m² 4,9 °C 10,6 °C 3,2 km/h (1 Bft)
30.04.2018 22:21 10,6 °C 68 % 1007,3 hPa 0,0 mm 1,2 km/h (1 Bft) W 279 ° 0 min 0,000 mm 0,0 UV-I 0 W/m² 4,9 °C 10,6 °C 3,2 km/h (1 Bft)
30.04.2018 22:22 10,6 °C 68 % 1007,3 hPa 0,0 mm 0,0 km/h (0 Bft) W 279 ° 0 min 0,000 mm 0,0 UV-I 0 W/m² 4,9 °C 10,6 °C 0,0 km/h (0 Bft)
30.04.2018 22:23 10,6 °C 68 % 1007,3 hPa 0,0 mm 0,0 km/h (0 Bft) W 279 ° 0 min 0,000 mm 0,0 UV-I 0 W/m² 4,9 °C 10,6 °C 0,0 km/h (0 Bft)
30.04.2018 22:24 10,6 °C 68 % 1007,3 hPa 0,0 mm 0,1 km/h (0 Bft) W 279 ° 0 min 0,000 mm 0,0 UV-I 0 W/m² 4,9 °C 10,6 °C 1,6 km/h (1 Bft)
30.04.2018 22:25 10,4 °C 69 % 1007,3 hPa 0,0 mm 0,7 km/h (0 Bft) W 279 ° 0 min 0,000 mm 0,0 UV-I 0 W/m² 5,0 °C 10,4 °C 1,6 km/h (1 Bft)
30.04.2018 22:26 10,4 °C 69 % 1007,3 hPa 0,0 mm 0,6 km/h (0 Bft) W 279 ° 0 min 0,000 mm 0,0 UV-I 0 W/m² 5,0 °C 10,4 °C 1,6 km/h (1 Bft)
30.04.2018 22:27 10,4 °C 68 % 1007,3 hPa 0,0 mm 0,9 km/h (0 Bft) W 279 ° 0 min 0,000 mm 0,0 UV-I 0 W/m² 4,8 °C 10,4 °C 3,2 km/h (1 Bft)
30.04.2018 22:28 10,4 °C 69 % 1007,3 hPa 0,0 mm 0,0 km/h (0 Bft) W 279 ° 0 min 0,000 mm 0,0 UV-I 0 W/m² 5,0 °C 10,4 °C 0,0 km/h (0 Bft)
30.04.2018 22:29 10,4 °C 69 % 1007,3 hPa 0,0 mm 0,6 km/h (0 Bft) W 279 ° 0 min 0,000 mm 0,0 UV-I 0 W/m² 5,0 °C 10,4 °C 3,2 km/h (1 Bft)
30.04.2018 22:30 10,4 °C 68 % 1007,3 hPa 0,0 mm 0,4 km/h (0 Bft) W 279 ° 0 min 0,000 mm 0,0 UV-I 0 W/m² 4,8 °C 10,4 °C 1,6 km/h (1 Bft)
30.04.2018 22:31 10,4 °C 69 % 1007,4 hPa 0,0 mm 0,0 km/h (0 Bft) W 279 ° 0 min 0,000 mm 0,0 UV-I 0 W/m² 5,0 °C 10,4 °C 0,0 km/h (0 Bft)
30.04.2018 22:32 10,3 °C 69 % 1007,3 hPa 0,0 mm 0,0 km/h (0 Bft) W 279 ° 0 min 0,000 mm 0,0 UV-I 0 W/m² 4,9 °C 10,3 °C 0,0 km/h (0 Bft)
30.04.2018 22:33 10,3 °C 69 % 1007,3 hPa 0,0 mm 0,1 km/h (0 Bft) W 279 ° 0 min 0,000 mm 0,0 UV-I 0 W/m² 4,9 °C 10,3 °C 1,6 km/h (1 Bft)
30.04.2018 22:34 10,3 °C 69 % 1007,5 hPa 0,0 mm 0,0 km/h (0 Bft) W 279 ° 0 min 0,000 mm 0,0 UV-I 0 W/m² 4,9 °C 10,3 °C 0,0 km/h (0 Bft)
30.04.2018 22:35 10,3 °C 69 % 1007,5 hPa 0,0 mm 0,0 km/h (0 Bft) W 279 ° 0 min 0,000 mm 0,0 UV-I 0 W/m² 4,9 °C 10,3 °C 0,0 km/h (0 Bft)
30.04.2018 22:36 10,2 °C 69 % 1007,4 hPa 0,0 mm 0,0 km/h (0 Bft) W 279 ° 0 min 0,000 mm 0,0 UV-I 0 W/m² 4,8 °C 10,2 °C 0,0 km/h (0 Bft)
30.04.2018 22:37 10,2 °C 69 % 1007,5 hPa 0,0 mm 0,0 km/h (0 Bft) W 279 ° 0 min 0,000 mm 0,0 UV-I 0 W/m² 4,8 °C 10,2 °C 0,0 km/h (0 Bft)
30.04.2018 22:38 10,2 °C 70 % 1007,4 hPa 0,0 mm 0,0 km/h (0 Bft) W 279 ° 0 min 0,000 mm 0,0 UV-I 0 W/m² 5,0 °C 10,2 °C 0,0 km/h (0 Bft)
30.04.2018 22:39 10,2 °C 69 % 1007,5 hPa 0,0 mm 0,0 km/h (0 Bft) W 279 ° 0 min 0,000 mm 0,0 UV-I 0 W/m² 4,8 °C 10,2 °C 0,0 km/h (0 Bft)
30.04.2018 22:40 10,2 °C 70 % 1007,5 hPa 0,0 mm 0,0 km/h (0 Bft) W 279 ° 0 min 0,000 mm 0,0 UV-I 0 W/m² 5,0 °C 10,2 °C 0,0 km/h (0 Bft)
30.04.2018 22:41 10,2 °C 69 % 1007,5 hPa 0,0 mm 0,0 km/h (0 Bft) W 279 ° 0 min 0,000 mm 0,0 UV-I 0 W/m² 4,8 °C 10,2 °C 0,0 km/h (0 Bft)
30.04.2018 22:42 10,3 °C 69 % 1007,6 hPa 0,0 mm 0,0 km/h (0 Bft) W 279 ° 0 min 0,000 mm 0,0 UV-I 0 W/m² 4,9 °C 10,3 °C 0,0 km/h (0 Bft)
30.04.2018 22:43 10,3 °C 70 % 1007,5 hPa 0,0 mm 0,0 km/h (0 Bft) W 279 ° 0 min 0,000 mm 0,0 UV-I 0 W/m² 5,1 °C 10,3 °C 0,0 km/h (0 Bft)
30.04.2018 22:44 10,3 °C 69 % 1007,5 hPa 0,0 mm 0,0 km/h (0 Bft) W 279 ° 0 min 0,000 mm 0,0 UV-I 0 W/m² 4,9 °C 10,3 °C 0,0 km/h (0 Bft)
30.04.2018 22:45 10,3 °C 70 % 1007,5 hPa 0,0 mm 0,0 km/h (0 Bft) W 279 ° 0 min 0,000 mm 0,0 UV-I 0 W/m² 5,1 °C 10,3 °C 0,0 km/h (0 Bft)
30.04.2018 22:46 10,2 °C 71 % 1007,5 hPa 0,0 mm 0,0 km/h (0 Bft) W 279 ° 0 min 0,000 mm 0,0 UV-I 0 W/m² 5,2 °C 10,2 °C 0,0 km/h (0 Bft)
30.04.2018 22:47 10,2 °C 72 % 1007,5 hPa 0,0 mm 0,0 km/h (0 Bft) W 279 ° 0 min 0,000 mm 0,0 UV-I 0 W/m² 5,4 °C 10,2 °C 0,0 km/h (0 Bft)
30.04.2018 22:48 10,1 °C 72 % 1007,5 hPa 0,0 mm 0,0 km/h (0 Bft) W 279 ° 0 min 0,000 mm 0,0 UV-I 0 W/m² 5,3 °C 10,1 °C 0,0 km/h (0 Bft)
30.04.2018 22:49 10,1 °C 71 % 1007,5 hPa 0,0 mm 0,0 km/h (0 Bft) W 279 ° 0 min 0,000 mm 0,0 UV-I 0 W/m² 5,1 °C 10,1 °C 0,0 km/h (0 Bft)
30.04.2018 22:50 10,1 °C 72 % 1007,5 hPa 0,0 mm 0,0 km/h (0 Bft) W 279 ° 0 min 0,000 mm 0,0 UV-I 0 W/m² 5,3 °C 10,1 °C 0,0 km/h (0 Bft)
30.04.2018 22:51 10,1 °C 72 % 1007,6 hPa 0,0 mm 0,0 km/h (0 Bft) W 279 ° 0 min 0,000 mm 0,0 UV-I 0 W/m² 5,3 °C 10,1 °C 0,0 km/h (0 Bft)
30.04.2018 22:52 10,1 °C 72 % 1007,6 hPa 0,0 mm 0,0 km/h (0 Bft) W 279 ° 0 min 0,000 mm 0,0 UV-I 0 W/m² 5,3 °C 10,1 °C 0,0 km/h (0 Bft)
30.04.2018 22:53 10,1 °C 71 % 1007,6 hPa 0,0 mm 0,0 km/h (0 Bft) W 279 ° 0 min 0,000 mm 0,0 UV-I 0 W/m² 5,1 °C 10,1 °C 0,0 km/h (0 Bft)
30.04.2018 22:54 10,1 °C 72 % 1007,6 hPa 0,0 mm 0,0 km/h (0 Bft) W 279 ° 0 min 0,000 mm 0,0 UV-I 0 W/m² 5,3 °C 10,1 °C 0,0 km/h (0 Bft)
30.04.2018 22:55 10,1 °C 72 % 1007,7 hPa 0,0 mm 0,0 km/h (0 Bft) W 279 ° 0 min 0,000 mm 0,0 UV-I 0 W/m² 5,3 °C 10,1 °C 0,0 km/h (0 Bft)
30.04.2018 22:56 10,1 °C 73 % 1007,7 hPa 0,0 mm 0,0 km/h (0 Bft) W 279 ° 0 min 0,000 mm 0,0 UV-I 0 W/m² 5,5 °C 10,1 °C 0,0 km/h (0 Bft)
30.04.2018 22:57 10,1 °C 72 % 1007,7 hPa 0,0 mm 0,0 km/h (0 Bft) W 279 ° 0 min 0,000 mm 0,0 UV-I 0 W/m² 5,3 °C 10,1 °C 0,0 km/h (0 Bft)
30.04.2018 22:58 10,1 °C 72 % 1007,7 hPa 0,0 mm 0,0 km/h (0 Bft) W 279 ° 0 min 0,000 mm 0,0 UV-I 0 W/m² 5,3 °C 10,1 °C 0,0 km/h (0 Bft)
30.04.2018 22:59 10,1 °C 71 % 1007,7 hPa 0,0 mm 0,9 km/h (0 Bft) W 279 ° 0 min 0,000 mm 0,0 UV-I 0 W/m² 5,1 °C 10,1 °C 1,6 km/h (1 Bft)
30.04.2018 23:00 10,2 °C 70 % 1007,7 hPa 0,0 mm 0,3 km/h (0 Bft) W 279 ° 0 min 0,000 mm 0,0 UV-I 0 W/m² 5,0 °C 10,2 °C 1,6 km/h (1 Bft)
30.04.2018 23:01 10,2 °C 69 % 1007,7 hPa 0,0 mm 0,0 km/h (0 Bft) W 279 ° 0 min 0,026 mm 0,0 UV-I 0 W/m² 4,8 °C 10,2 °C 0,0 km/h (0 Bft)
30.04.2018 23:02 10,2 °C 70 % 1007,7 hPa 0,0 mm 0,0 km/h (0 Bft) W 279 ° 0 min 0,000 mm 0,0 UV-I 0 W/m² 5,0 °C 10,2 °C 0,0 km/h (0 Bft)
30.04.2018 23:03 10,2 °C 70 % 1007,8 hPa 0,0 mm 0,0 km/h (0 Bft) W 279 ° 0 min 0,000 mm 0,0 UV-I 0 W/m² 5,0 °C 10,2 °C 0,0 km/h (0 Bft)
30.04.2018 23:04 10,3 °C 69 % 1007,7 hPa 0,0 mm 0,0 km/h (0 Bft) W 279 ° 0 min 0,000 mm 0,0 UV-I 0 W/m² 4,9 °C 10,3 °C 0,0 km/h (0 Bft)
30.04.2018 23:05 10,2 °C 71 % 1007,7 hPa 0,0 mm 0,0 km/h (0 Bft) W 279 ° 0 min 0,000 mm 0,0 UV-I 0 W/m² 5,2 °C 10,2 °C 0,0 km/h (0 Bft)
30.04.2018 23:06 10,2 °C 69 % 1007,8 hPa 0,0 mm 0,0 km/h (0 Bft) W 279 ° 0 min 0,000 mm 0,0 UV-I 0 W/m² 4,8 °C 10,2 °C 0,0 km/h (0 Bft)
30.04.2018 23:07 10,3 °C 68 % 1007,8 hPa 0,0 mm 0,4 km/h (0 Bft) W 279 ° 0 min 0,000 mm 0,0 UV-I 0 W/m² 4,7 °C 10,3 °C 1,6 km/h (1 Bft)
30.04.2018 23:08 10,3 °C 69 % 1007,8 hPa 0,0 mm 0,7 km/h (0 Bft) W 279 ° 0 min 0,000 mm 0,0 UV-I 0 W/m² 4,9 °C 10,3 °C 1,6 km/h (1 Bft)
30.04.2018 23:09 10,3 °C 70 % 1007,8 hPa 0,0 mm 0,0 km/h (0 Bft) W 279 ° 0 min 0,000 mm 0,0 UV-I 0 W/m² 5,1 °C 10,3 °C 0,0 km/h (0 Bft)
30.04.2018 23:10 10,2 °C 70 % 1007,8 hPa 0,0 mm 0,0 km/h (0 Bft) W 279 ° 0 min 0,000 mm 0,0 UV-I 0 W/m² 5,0 °C 10,2 °C 0,0 km/h (0 Bft)
30.04.2018 23:11 10,2 °C 68 % 1007,8 hPa 0,0 mm 0,0 km/h (0 Bft) W 279 ° 0 min 0,000 mm 0,0 UV-I 0 W/m² 4,6 °C 10,2 °C 0,0 km/h (0 Bft)
30.04.2018 23:12 10,3 °C 68 % 1007,8 hPa 0,0 mm 0,0 km/h (0 Bft) W 279 ° 0 min 0,000 mm 0,0 UV-I 0 W/m² 4,7 °C 10,3 °C 0,0 km/h (0 Bft)
30.04.2018 23:13 10,2 °C 70 % 1007,8 hPa 0,0 mm 0,6 km/h (0 Bft) W 279 ° 0 min 0,000 mm 0,0 UV-I 0 W/m² 5,0 °C 10,2 °C 1,6 km/h (1 Bft)
30.04.2018 23:14 10,1 °C 73 % 1007,8 hPa 0,0 mm 0,0 km/h (0 Bft) W 279 ° 0 min 0,000 mm 0,0 UV-I 0 W/m² 5,5 °C 10,1 °C 0,0 km/h (0 Bft)
30.04.2018 23:15 10,1 °C 74 % 1007,8 hPa 0,0 mm 0,0 km/h (0 Bft) W 279 ° 0 min 0,000 mm 0,0 UV-I 0 W/m² 5,7 °C 10,1 °C 0,0 km/h (0 Bft)
30.04.2018 23:16 9,9 °C 74 % 1007,8 hPa 0,0 mm 0,0 km/h (0 Bft) W 279 ° 0 min 0,000 mm 0,0 UV-I 0 W/m² 5,5 °C 9,9 °C 0,0 km/h (0 Bft)
30.04.2018 23:17 9,8 °C 74 % 1007,9 hPa 0,0 mm 0,0 km/h (0 Bft) W 279 ° 0 min 0,000 mm 0,0 UV-I 0 W/m² 5,4 °C 9,8 °C 0,0 km/h (0 Bft)
30.04.2018 23:18 9,8 °C 75 % 1007,9 hPa 0,0 mm 0,0 km/h (0 Bft) W 279 ° 0 min 0,000 mm 0,0 UV-I 0 W/m² 5,6 °C 9,8 °C 0,0 km/h (0 Bft)
30.04.2018 23:19 9,7 °C 75 % 1007,8 hPa 0,0 mm 0,0 km/h (0 Bft) W 279 ° 0 min 0,000 mm 0,0 UV-I 0 W/m² 5,5 °C 9,7 °C 0,0 km/h (0 Bft)
30.04.2018 23:20 9,7 °C 75 % 1007,8 hPa 0,0 mm 0,0 km/h (0 Bft) W 279 ° 0 min 0,000 mm 0,0 UV-I 0 W/m² 5,5 °C 9,7 °C 0,0 km/h (0 Bft)
30.04.2018 23:21 9,7 °C 74 % 1007,8 hPa 0,0 mm 0,0 km/h (0 Bft) W 279 ° 0 min 0,000 mm 0,0 UV-I 0 W/m² 5,3 °C 9,7 °C 0,0 km/h (0 Bft)
30.04.2018 23:22 9,7 °C 74 % 1007,8 hPa 0,0 mm 0,0 km/h (0 Bft) W 279 ° 0 min 0,000 mm 0,0 UV-I 0 W/m² 5,3 °C 9,7 °C 0,0 km/h (0 Bft)
30.04.2018 23:23 9,7 °C 74 % 1007,7 hPa 0,0 mm 0,0 km/h (0 Bft) W 279 ° 0 min 0,000 mm 0,0 UV-I 0 W/m² 5,3 °C 9,7 °C 0,0 km/h (0 Bft)
30.04.2018 23:24 9,7 °C 73 % 1007,8 hPa 0,0 mm 0,0 km/h (0 Bft) W 279 ° 0 min 0,000 mm 0,0 UV-I 0 W/m² 5,1 °C 9,7 °C 0,0 km/h (0 Bft)
30.04.2018 23:25 9,7 °C 72 % 1007,8 hPa 0,0 mm 0,0 km/h (0 Bft) W 279 ° 0 min 0,000 mm 0,0 UV-I 0 W/m² 4,9 °C 9,7 °C 0,0 km/h (0 Bft)
30.04.2018 23:26 9,8 °C 71 % 1007,8 hPa 0,0 mm 0,0 km/h (0 Bft) W 279 ° 0 min 0,000 mm 0,0 UV-I 0 W/m² 4,8 °C 9,8 °C 0,0 km/h (0 Bft)
30.04.2018 23:27 9,8 °C 70 % 1007,8 hPa 0,0 mm 0,0 km/h (0 Bft) W 279 ° 0 min 0,000 mm 0,0 UV-I 0 W/m² 4,6 °C 9,8 °C 0,0 km/h (0 Bft)
30.04.2018 23:28 9,8 °C 71 % 1007,8 hPa 0,0 mm 0,0 km/h (0 Bft) W 279 ° 0 min 0,000 mm 0,0 UV-I 0 W/m² 4,8 °C 9,8 °C 0,0 km/h (0 Bft)
30.04.2018 23:29 9,8 °C 70 % 1007,8 hPa 0,0 mm 0,0 km/h (0 Bft) W 279 ° 0 min 0,000 mm 0,0 UV-I 0 W/m² 4,6 °C 9,8 °C 0,0 km/h (0 Bft)
30.04.2018 23:30 9,8 °C 69 % 1007,8 hPa 0,0 mm 0,5 km/h (0 Bft) W 279 ° 0 min 0,000 mm 0,0 UV-I 0 W/m² 4,4 °C 9,8 °C 1,6 km/h (1 Bft)
30.04.2018 23:31 9,9 °C 69 % 1007,8 hPa 0,0 mm 0,7 km/h (0 Bft) W 279 ° 0 min 0,000 mm 0,0 UV-I 0 W/m² 4,5 °C 9,9 °C 1,6 km/h (1 Bft)
30.04.2018 23:32 9,9 °C 71 % 1007,8 hPa 0,0 mm 0,7 km/h (0 Bft) W 279 ° 0 min 0,000 mm 0,0 UV-I 0 W/m² 4,9 °C 9,9 °C 1,6 km/h (1 Bft)
30.04.2018 23:33 9,9 °C 71 % 1007,7 hPa 0,0 mm 1,3 km/h (1 Bft) W 279 ° 0 min 0,000 mm 0,0 UV-I 0 W/m² 4,9 °C 9,9 °C 3,2 km/h (1 Bft)
30.04.2018 23:34 9,9 °C 70 % 1007,8 hPa 0,0 mm 0,2 km/h (0 Bft) W 279 ° 0 min 0,000 mm 0,0 UV-I 0 W/m² 4,7 °C 9,9 °C 1,6 km/h (1 Bft)
30.04.2018 23:35 9,9 °C 71 % 1007,7 hPa 0,0 mm 0,0 km/h (0 Bft) W 279 ° 0 min 0,000 mm 0,0 UV-I 0 W/m² 4,9 °C 9,9 °C 0,0 km/h (0 Bft)
30.04.2018 23:36 9,8 °C 72 % 1007,8 hPa 0,0 mm 0,0 km/h (0 Bft) W 279 ° 0 min 0,000 mm 0,0 UV-I 0 W/m² 5,0 °C 9,8 °C 0,0 km/h (0 Bft)
30.04.2018 23:37 9,7 °C 72 % 1007,8 hPa 0,0 mm 0,0 km/h (0 Bft) W 279 ° 0 min 0,000 mm 0,0 UV-I 0 W/m² 4,9 °C 9,7 °C 0,0 km/h (0 Bft)
30.04.2018 23:38 9,5 °C 73 % 1007,8 hPa 0,0 mm 0,0 km/h (0 Bft) W 279 ° 0 min 0,000 mm 0,0 UV-I 0 W/m² 4,9 °C 9,5 °C 0,0 km/h (0 Bft)
30.04.2018 23:39 9,3 °C 73 % 1007,9 hPa 0,0 mm 0,0 km/h (0 Bft) W 279 ° 0 min 0,000 mm 0,0 UV-I 0 W/m² 4,7 °C 9,3 °C 0,0 km/h (0 Bft)
30.04.2018 23:40 9,3 °C 73 % 1007,9 hPa 0,0 mm 0,0 km/h (0 Bft) W 279 ° 0 min 0,000 mm 0,0 UV-I 0 W/m² 4,7 °C 9,3 °C 0,0 km/h (0 Bft)
30.04.2018 23:41 9,2 °C 73 % 1007,9 hPa 0,0 mm 0,0 km/h (0 Bft) W 279 ° 0 min 0,000 mm 0,0 UV-I 0 W/m² 4,6 °C 9,2 °C 0,0 km/h (0 Bft)
30.04.2018 23:42 9,2 °C 74 % 1007,9 hPa 0,0 mm 0,0 km/h (0 Bft) W 279 ° 0 min 0,000 mm 0,0 UV-I 0 W/m² 4,8 °C 9,2 °C 0,0 km/h (0 Bft)
30.04.2018 23:43 9,2 °C 74 % 1007,9 hPa 0,0 mm 0,0 km/h (0 Bft) W 279 ° 0 min 0,000 mm 0,0 UV-I 0 W/m² 4,8 °C 9,2 °C 0,0 km/h (0 Bft)
30.04.2018 23:44 9,2 °C 74 % 1007,8 hPa 0,0 mm 0,0 km/h (0 Bft) W 279 ° 0 min 0,000 mm 0,0 UV-I 0 W/m² 4,8 °C 9,2 °C 0,0 km/h (0 Bft)
30.04.2018 23:45 9,2 °C 74 % 1007,9 hPa 0,0 mm 0,0 km/h (0 Bft) W 279 ° 0 min 0,000 mm 0,0 UV-I 0 W/m² 4,8 °C 9,2 °C 0,0 km/h (0 Bft)
30.04.2018 23:46 9,2 °C 74 % 1007,9 hPa 0,0 mm 0,3 km/h (0 Bft) W 279 ° 0 min 0,000 mm 0,0 UV-I 0 W/m² 4,8 °C 9,2 °C 1,6 km/h (1 Bft)
30.04.2018 23:47 9,2 °C 74 % 1007,9 hPa 0,0 mm 1,4 km/h (1 Bft) W 279 ° 0 min 0,000 mm 0,0 UV-I 0 W/m² 4,8 °C 9,2 °C 1,6 km/h (1 Bft)
30.04.2018 23:48 9,2 °C 73 % 1007,9 hPa 0,0 mm 0,8 km/h (0 Bft) W 279 ° 0 min 0,000 mm 0,0 UV-I 0 W/m² 4,6 °C 9,2 °C 1,6 km/h (1 Bft)
30.04.2018 23:49 9,2 °C 73 % 1008,0 hPa 0,0 mm 0,9 km/h (0 Bft) W 279 ° 0 min 0,000 mm 0,0 UV-I 0 W/m² 4,6 °C 9,2 °C 1,6 km/h (1 Bft)
30.04.2018 23:50 9,2 °C 74 % 1007,9 hPa 0,0 mm 0,3 km/h (0 Bft) W 279 ° 0 min 0,000 mm 0,0 UV-I 0 W/m² 4,8 °C 9,2 °C 1,6 km/h (1 Bft)
30.04.2018 23:51 9,2 °C 74 % 1008,0 hPa 0,0 mm 0,0 km/h (0 Bft) W 279 ° 0 min 0,000 mm 0,0 UV-I 0 W/m² 4,8 °C 9,2 °C 0,0 km/h (0 Bft)
30.04.2018 23:52 9,1 °C 74 % 1008,0 hPa 0,0 mm 0,0 km/h (0 Bft) W 279 ° 0 min 0,000 mm 0,0 UV-I 0 W/m² 4,7 °C 9,1 °C 0,0 km/h (0 Bft)
30.04.2018 23:53 9,1 °C 75 % 1008,0 hPa 0,0 mm 0,2 km/h (0 Bft) W 279 ° 0 min 0,000 mm 0,0 UV-I 0 W/m² 4,9 °C 9,1 °C 1,6 km/h (1 Bft)
30.04.2018 23:54 9,0 °C 75 % 1008,0 hPa 0,0 mm 0,3 km/h (0 Bft) W 279 ° 0 min 0,000 mm 0,0 UV-I 0 W/m² 4,8 °C 9,0 °C 1,6 km/h (1 Bft)
30.04.2018 23:55 8,9 °C 76 % 1008,0 hPa 0,0 mm 0,0 km/h (0 Bft) W 279 ° 0 min 0,000 mm 0,0 UV-I 0 W/m² 4,9 °C 8,9 °C 0,0 km/h (0 Bft)
30.04.2018 23:56 8,9 °C 75 % 1008,0 hPa 0,0 mm 0,3 km/h (0 Bft) W 279 ° 0 min 0,000 mm 0,0 UV-I 0 W/m² 4,7 °C 8,9 °C 1,6 km/h (1 Bft)
30.04.2018 23:57 9,0 °C 74 % 1008,0 hPa 0,0 mm 1,4 km/h (1 Bft) W 279 ° 0 min 0,000 mm 0,0 UV-I 0 W/m² 4,6 °C 9,0 °C 3,2 km/h (1 Bft)
30.04.2018 23:58 9,1 °C 74 % 1008,0 hPa 0,0 mm 0,6 km/h (0 Bft) W 279 ° 0 min 0,000 mm 0,0 UV-I 0 W/m² 4,7 °C 9,1 °C 1,6 km/h (1 Bft)
30.04.2018 23:59 9,1 °C 74 % 1008,1 hPa 0,0 mm 0,0 km/h (0 Bft) W 279 ° 0 min 0,000 mm 0,0 UV-I 0 W/m² 4,7 °C 9,1 °C 0,0 km/h (0 Bft)
_ Min-Zeit 08:16 17:08 03:53 - 23:59 - - - - - - 07:20 06:55 23:59
Minimum _ 6,3 °C 58 % 997,0 hPa - 0,0 km/h (0 Bft) - - - - - - 3,9 °C 3,7 °C 0,0 km/h (0 Bft)
_ Max-Zeit 17:15 08:39 23:59 12:13 04:59 - - 16:05 14:01 13:28 12:39 15:13 17:15 04:37
Maximum _ 15,7 °C 87 % 1008,1 hPa 0,2 mm 27,4 km/h
W-NW (4 Bft)
- - 1 min 0,381 mm 7,1 UV-I 1164 W/m² 9,4 °C 15,7 °C 45,1 km/h
W (6 Bft)
Durchschnitt _ 11,5 °C 71 % 1002,7 hPa #0,4 mm 4,1 km/h (1 Bft) W - #4:53 h #2,591 mm 2,9 UV-I 178 W/m² 6,4 °C 11,3 °C 7,0 km/h (2 Bft)